<?xml version="1.0" encoding="UTF-8" standalone="no" ?>
<gpx xmlns="http://www.topografix.com/GPX/1/1" xmlns:xsi="http://www.w3.org/2001/XMLSchema-instance" xsi:schemaLocation="http://www.topografix.com/GPX/1/1 http://www.topografix.com/GPX/1/1/gpx.xsd" version="1.1" creator="VisuGPX - https://www.visugpx.com">
  <metadata>
    <name>tour horaire de la grande lance d\'Allemond</name>
    <desc><![CDATA[de belles pentes nord à skier]]></desc>
  </metadata>
  <trk>
    <name><![CDATA[tour horaire de la grande lance d\'Allemond_1]]></name>
    <trkseg>
      <trkpt lat="45.12866" lon="6.01797">
        <ele>1170</ele>
        <time>2015-02-19T06:28:21.510Z</time>
      </trkpt>
      <trkpt lat="45.12867" lon="6.01807">
        <ele>1170</ele>
        <time>2015-02-19T06:28:26.640Z</time>
      </trkpt>
      <trkpt lat="45.12872" lon="6.01815">
        <ele>1170</ele>
        <time>2015-02-19T06:28:34.530Z</time>
      </trkpt>
      <trkpt lat="45.12879" lon="6.01823">
        <ele>1170</ele>
        <time>2015-02-19T06:28:42.530Z</time>
      </trkpt>
      <trkpt lat="45.12887" lon="6.01832">
        <ele>1170</ele>
        <time>2015-02-19T06:28:52.530Z</time>
      </trkpt>
      <trkpt lat="45.12891" lon="6.01843">
        <ele>1170</ele>
        <time>2015-02-19T06:29:01.530Z</time>
      </trkpt>
      <trkpt lat="45.12896" lon="6.01855">
        <ele>1170.3</ele>
        <time>2015-02-19T06:29:10.530Z</time>
      </trkpt>
      <trkpt lat="45.12905" lon="6.01864">
        <ele>1174.1</ele>
        <time>2015-02-19T06:29:20.370Z</time>
      </trkpt>
      <trkpt lat="45.1291" lon="6.01877">
        <ele>1174.9</ele>
        <time>2015-02-19T06:29:29.170Z</time>
      </trkpt>
      <trkpt lat="45.12917" lon="6.01887">
        <ele>1176</ele>
        <time>2015-02-19T06:29:39.430Z</time>
      </trkpt>
      <trkpt lat="45.12922" lon="6.01899">
        <ele>1177</ele>
        <time>2015-02-19T06:29:49.430Z</time>
      </trkpt>
      <trkpt lat="45.1293" lon="6.01905">
        <ele>1178.5</ele>
        <time>2015-02-19T06:29:57.430Z</time>
      </trkpt>
      <trkpt lat="45.12938" lon="6.01916">
        <ele>1179</ele>
        <time>2015-02-19T06:30:08.430Z</time>
      </trkpt>
      <trkpt lat="45.12945" lon="6.01926">
        <ele>1179.9</ele>
        <time>2015-02-19T06:30:18.430Z</time>
      </trkpt>
      <trkpt lat="45.12952" lon="6.01936">
        <ele>1181</ele>
        <time>2015-02-19T06:30:29.430Z</time>
      </trkpt>
      <trkpt lat="45.12961" lon="6.01946">
        <ele>1182.1</ele>
        <time>2015-02-19T06:30:40.430Z</time>
      </trkpt>
      <trkpt lat="45.12969" lon="6.01954">
        <ele>1183.1</ele>
        <time>2015-02-19T06:30:50.630Z</time>
      </trkpt>
      <trkpt lat="45.12978" lon="6.01962">
        <ele>1184</ele>
        <time>2015-02-19T06:31:01.430Z</time>
      </trkpt>
      <trkpt lat="45.12988" lon="6.01968">
        <ele>1184.1</ele>
        <time>2015-02-19T06:31:10.430Z</time>
      </trkpt>
      <trkpt lat="45.12997" lon="6.01973">
        <ele>1185</ele>
        <time>2015-02-19T06:31:19.430Z</time>
      </trkpt>
      <trkpt lat="45.13007" lon="6.01978">
        <ele>1185.1</ele>
        <time>2015-02-19T06:31:30.450Z</time>
      </trkpt>
      <trkpt lat="45.13017" lon="6.01982">
        <ele>1186.2</ele>
        <time>2015-02-19T06:31:41.430Z</time>
      </trkpt>
      <trkpt lat="45.13027" lon="6.01987">
        <ele>1187.2</ele>
        <time>2015-02-19T06:31:51.460Z</time>
      </trkpt>
      <trkpt lat="45.13037" lon="6.01991">
        <ele>1188.3</ele>
        <time>2015-02-19T06:32:02.430Z</time>
      </trkpt>
      <trkpt lat="45.13048" lon="6.01992">
        <ele>1189</ele>
        <time>2015-02-19T06:32:12.430Z</time>
      </trkpt>
      <trkpt lat="45.13058" lon="6.01998">
        <ele>1189.7</ele>
        <time>2015-02-19T06:32:23.430Z</time>
      </trkpt>
      <trkpt lat="45.13067" lon="6.02006">
        <ele>1191.4</ele>
        <time>2015-02-19T06:32:33.530Z</time>
      </trkpt>
      <trkpt lat="45.13076" lon="6.02012">
        <ele>1192</ele>
        <time>2015-02-19T06:32:42.430Z</time>
      </trkpt>
      <trkpt lat="45.13086" lon="6.0202">
        <ele>1192.4</ele>
        <time>2015-02-19T06:32:53.430Z</time>
      </trkpt>
      <trkpt lat="45.13096" lon="6.02024">
        <ele>1193.4</ele>
        <time>2015-02-19T06:33:03.430Z</time>
      </trkpt>
      <trkpt lat="45.13106" lon="6.02029">
        <ele>1194.5</ele>
        <time>2015-02-19T06:33:14.430Z</time>
      </trkpt>
      <trkpt lat="45.13115" lon="6.02036">
        <ele>1195</ele>
        <time>2015-02-19T06:33:23.430Z</time>
      </trkpt>
      <trkpt lat="45.13125" lon="6.02041">
        <ele>1195.7</ele>
        <time>2015-02-19T06:33:33.450Z</time>
      </trkpt>
      <trkpt lat="45.13135" lon="6.02047">
        <ele>1197</ele>
        <time>2015-02-19T06:33:43.430Z</time>
      </trkpt>
      <trkpt lat="45.13143" lon="6.02051">
        <ele>1197.1</ele>
        <time>2015-02-19T06:33:51.180Z</time>
      </trkpt>
      <trkpt lat="45.13153" lon="6.02056">
        <ele>1198.2</ele>
        <time>2015-02-19T06:34:01.440Z</time>
      </trkpt>
      <trkpt lat="45.13162" lon="6.02062">
        <ele>1199.2</ele>
        <time>2015-02-19T06:34:11.430Z</time>
      </trkpt>
      <trkpt lat="45.13173" lon="6.02066">
        <ele>1200.3</ele>
        <time>2015-02-19T06:34:22.450Z</time>
      </trkpt>
      <trkpt lat="45.13181" lon="6.02065">
        <ele>1202</ele>
        <time>2015-02-19T06:35:07.440Z</time>
      </trkpt>
      <trkpt lat="45.13189" lon="6.02061">
        <ele>1202</ele>
        <time>2015-02-19T06:35:16.430Z</time>
      </trkpt>
      <trkpt lat="45.13198" lon="6.02057">
        <ele>1202.8</ele>
        <time>2015-02-19T06:35:27.430Z</time>
      </trkpt>
      <trkpt lat="45.13208" lon="6.0205">
        <ele>1203.9</ele>
        <time>2015-02-19T06:35:38.430Z</time>
      </trkpt>
      <trkpt lat="45.13218" lon="6.02045">
        <ele>1205</ele>
        <time>2015-02-19T06:35:49.450Z</time>
      </trkpt>
      <trkpt lat="45.13229" lon="6.02042">
        <ele>1206.1</ele>
        <time>2015-02-19T06:36:00.430Z</time>
      </trkpt>
      <trkpt lat="45.13237" lon="6.02034">
        <ele>1207</ele>
        <time>2015-02-19T06:36:09.430Z</time>
      </trkpt>
      <trkpt lat="45.13248" lon="6.02032">
        <ele>1208</ele>
        <time>2015-02-19T06:36:19.430Z</time>
      </trkpt>
      <trkpt lat="45.13259" lon="6.0203">
        <ele>1209.1</ele>
        <time>2015-02-19T06:36:30.430Z</time>
      </trkpt>
      <trkpt lat="45.13269" lon="6.02033">
        <ele>1210</ele>
        <time>2015-02-19T06:36:41.430Z</time>
      </trkpt>
      <trkpt lat="45.1328" lon="6.0204">
        <ele>1210</ele>
        <time>2015-02-19T06:36:48.430Z</time>
      </trkpt>
      <trkpt lat="45.13288" lon="6.0205">
        <ele>1210.6</ele>
        <time>2015-02-19T06:36:55.430Z</time>
      </trkpt>
      <trkpt lat="45.1329" lon="6.02065">
        <ele>1211</ele>
        <time>2015-02-19T06:37:03.430Z</time>
      </trkpt>
      <trkpt lat="45.13289" lon="6.02079">
        <ele>1211</ele>
        <time>2015-02-19T06:37:10.430Z</time>
      </trkpt>
      <trkpt lat="45.1329" lon="6.02094">
        <ele>1211</ele>
        <time>2015-02-19T06:37:18.430Z</time>
      </trkpt>
      <trkpt lat="45.13289" lon="6.0211">
        <ele>1211</ele>
        <time>2015-02-19T06:37:28.430Z</time>
      </trkpt>
      <trkpt lat="45.13287" lon="6.02124">
        <ele>1211</ele>
        <time>2015-02-19T06:37:37.430Z</time>
      </trkpt>
      <trkpt lat="45.13285" lon="6.02138">
        <ele>1211.9</ele>
        <time>2015-02-19T06:37:48.430Z</time>
      </trkpt>
      <trkpt lat="45.13284" lon="6.02152">
        <ele>1212</ele>
        <time>2015-02-19T06:37:57.430Z</time>
      </trkpt>
      <trkpt lat="45.13282" lon="6.02166">
        <ele>1212.8</ele>
        <time>2015-02-19T06:38:07.430Z</time>
      </trkpt>
      <trkpt lat="45.13282" lon="6.02181">
        <ele>1213.8</ele>
        <time>2015-02-19T06:38:17.430Z</time>
      </trkpt>
      <trkpt lat="45.13283" lon="6.02195">
        <ele>1214.9</ele>
        <time>2015-02-19T06:38:28.430Z</time>
      </trkpt>
      <trkpt lat="45.13285" lon="6.0221">
        <ele>1215.9</ele>
        <time>2015-02-19T06:38:38.430Z</time>
      </trkpt>
      <trkpt lat="45.13286" lon="6.02224">
        <ele>1217</ele>
        <time>2015-02-19T06:38:49.430Z</time>
      </trkpt>
      <trkpt lat="45.13289" lon="6.02239">
        <ele>1218.1</ele>
        <time>2015-02-19T06:39:00.530Z</time>
      </trkpt>
      <trkpt lat="45.1329" lon="6.02254">
        <ele>1219.4</ele>
        <time>2015-02-19T06:39:11.530Z</time>
      </trkpt>
      <trkpt lat="45.13294" lon="6.02267">
        <ele>1221.1</ele>
        <time>2015-02-19T06:39:20.530Z</time>
      </trkpt>
      <trkpt lat="45.13296" lon="6.02282">
        <ele>1222.6</ele>
        <time>2015-02-19T06:39:32.530Z</time>
      </trkpt>
      <trkpt lat="45.13303" lon="6.02294">
        <ele>1224.4</ele>
        <time>2015-02-19T06:39:43.530Z</time>
      </trkpt>
      <trkpt lat="45.13309" lon="6.02306">
        <ele>1225.4</ele>
        <time>2015-02-19T06:39:53.530Z</time>
      </trkpt>
      <trkpt lat="45.13318" lon="6.02313">
        <ele>1226.4</ele>
        <time>2015-02-19T06:40:03.530Z</time>
      </trkpt>
      <trkpt lat="45.13327" lon="6.02322">
        <ele>1227.7</ele>
        <time>2015-02-19T06:40:16.530Z</time>
      </trkpt>
      <trkpt lat="45.13334" lon="6.02332">
        <ele>1228</ele>
        <time>2015-02-19T06:40:24.530Z</time>
      </trkpt>
      <trkpt lat="45.13341" lon="6.02342">
        <ele>1228.5</ele>
        <time>2015-02-19T06:40:34.530Z</time>
      </trkpt>
      <trkpt lat="45.13349" lon="6.02353">
        <ele>1230</ele>
        <time>2015-02-19T06:40:44.530Z</time>
      </trkpt>
      <trkpt lat="45.13358" lon="6.0236">
        <ele>1231.5</ele>
        <time>2015-02-19T06:40:54.540Z</time>
      </trkpt>
      <trkpt lat="45.13367" lon="6.02367">
        <ele>1232.8</ele>
        <time>2015-02-19T06:41:07.530Z</time>
      </trkpt>
      <trkpt lat="45.13376" lon="6.02374">
        <ele>1233.7</ele>
        <time>2015-02-19T06:41:16.530Z</time>
      </trkpt>
      <trkpt lat="45.13385" lon="6.02381">
        <ele>1235.4</ele>
        <time>2015-02-19T06:41:26.530Z</time>
      </trkpt>
      <trkpt lat="45.13393" lon="6.0239">
        <ele>1236.7</ele>
        <time>2015-02-19T06:41:36.550Z</time>
      </trkpt>
      <trkpt lat="45.13404" lon="6.02396">
        <ele>1238.4</ele>
        <time>2015-02-19T06:41:46.530Z</time>
      </trkpt>
      <trkpt lat="45.13413" lon="6.02404">
        <ele>1239.7</ele>
        <time>2015-02-19T06:41:56.530Z</time>
      </trkpt>
      <trkpt lat="45.13422" lon="6.02412">
        <ele>1240.8</ele>
        <time>2015-02-19T06:42:07.530Z</time>
      </trkpt>
      <trkpt lat="45.13431" lon="6.02419">
        <ele>1241.8</ele>
        <time>2015-02-19T06:42:17.530Z</time>
      </trkpt>
      <trkpt lat="45.13439" lon="6.02427">
        <ele>1242.8</ele>
        <time>2015-02-19T06:42:27.530Z</time>
      </trkpt>
      <trkpt lat="45.13448" lon="6.02435">
        <ele>1243.8</ele>
        <time>2015-02-19T06:42:37.530Z</time>
      </trkpt>
      <trkpt lat="45.13457" lon="6.02442">
        <ele>1245</ele>
        <time>2015-02-19T06:42:49.530Z</time>
      </trkpt>
      <trkpt lat="45.13467" lon="6.02443">
        <ele>1246.8</ele>
        <time>2015-02-19T06:42:58.530Z</time>
      </trkpt>
      <trkpt lat="45.13478" lon="6.02444">
        <ele>1247.9</ele>
        <time>2015-02-19T06:43:08.530Z</time>
      </trkpt>
      <trkpt lat="45.13487" lon="6.02452">
        <ele>1249.4</ele>
        <time>2015-02-19T06:43:16.530Z</time>
      </trkpt>
      <trkpt lat="45.13496" lon="6.0246">
        <ele>1250.6</ele>
        <time>2015-02-19T06:43:25.540Z</time>
      </trkpt>
      <trkpt lat="45.13504" lon="6.0247">
        <ele>1252</ele>
        <time>2015-02-19T06:43:34.530Z</time>
      </trkpt>
      <trkpt lat="45.13512" lon="6.0248">
        <ele>1253.5</ele>
        <time>2015-02-19T06:43:44.530Z</time>
      </trkpt>
      <trkpt lat="45.13521" lon="6.02489">
        <ele>1255</ele>
        <time>2015-02-19T06:43:54.530Z</time>
      </trkpt>
      <trkpt lat="45.1353" lon="6.02494">
        <ele>1255.4</ele>
        <time>2015-02-19T06:44:05.530Z</time>
      </trkpt>
      <trkpt lat="45.13539" lon="6.02503">
        <ele>1257</ele>
        <time>2015-02-19T06:45:45.530Z</time>
      </trkpt>
      <trkpt lat="45.13548" lon="6.02512">
        <ele>1257.8</ele>
        <time>2015-02-19T06:45:57.530Z</time>
      </trkpt>
      <trkpt lat="45.13555" lon="6.02521">
        <ele>1258</ele>
        <time>2015-02-19T06:46:08.530Z</time>
      </trkpt>
      <trkpt lat="45.13562" lon="6.02532">
        <ele>1259</ele>
        <time>2015-02-19T06:46:19.530Z</time>
      </trkpt>
      <trkpt lat="45.13571" lon="6.02539">
        <ele>1260.4</ele>
        <time>2015-02-19T06:46:31.530Z</time>
      </trkpt>
      <trkpt lat="45.13582" lon="6.02539">
        <ele>1262</ele>
        <time>2015-02-19T06:46:43.530Z</time>
      </trkpt>
      <trkpt lat="45.13593" lon="6.02542">
        <ele>1262.4</ele>
        <time>2015-02-19T06:46:53.530Z</time>
      </trkpt>
      <trkpt lat="45.136" lon="6.0255">
        <ele>1263.8</ele>
        <time>2015-02-19T06:47:03.530Z</time>
      </trkpt>
      <trkpt lat="45.13607" lon="6.02562">
        <ele>1265.8</ele>
        <time>2015-02-19T06:47:13.530Z</time>
      </trkpt>
      <trkpt lat="45.13615" lon="6.02572">
        <ele>1267.5</ele>
        <time>2015-02-19T06:47:24.530Z</time>
      </trkpt>
      <trkpt lat="45.1362" lon="6.02585">
        <ele>1268.5</ele>
        <time>2015-02-19T06:47:34.530Z</time>
      </trkpt>
      <trkpt lat="45.13625" lon="6.02598">
        <ele>1270.4</ele>
        <time>2015-02-19T06:47:46.530Z</time>
      </trkpt>
      <trkpt lat="45.13632" lon="6.02609">
        <ele>1271.9</ele>
        <time>2015-02-19T06:47:58.530Z</time>
      </trkpt>
      <trkpt lat="45.1364" lon="6.02618">
        <ele>1273</ele>
        <time>2015-02-19T06:48:09.530Z</time>
      </trkpt>
      <trkpt lat="45.1365" lon="6.02624">
        <ele>1274</ele>
        <time>2015-02-19T06:48:19.530Z</time>
      </trkpt>
      <trkpt lat="45.13657" lon="6.02631">
        <ele>1274.9</ele>
        <time>2015-02-19T06:48:28.530Z</time>
      </trkpt>
      <trkpt lat="45.13666" lon="6.02637">
        <ele>1275.9</ele>
        <time>2015-02-19T06:48:38.530Z</time>
      </trkpt>
      <trkpt lat="45.13677" lon="6.0264">
        <ele>1276</ele>
        <time>2015-02-19T06:48:49.530Z</time>
      </trkpt>
      <trkpt lat="45.13687" lon="6.02643">
        <ele>1278</ele>
        <time>2015-02-19T06:48:59.530Z</time>
      </trkpt>
      <trkpt lat="45.13696" lon="6.02648">
        <ele>1278</ele>
        <time>2015-02-19T06:49:07.530Z</time>
      </trkpt>
      <trkpt lat="45.13706" lon="6.02656">
        <ele>1278.7</ele>
        <time>2015-02-19T06:49:16.530Z</time>
      </trkpt>
      <trkpt lat="45.13715" lon="6.02661">
        <ele>1279</ele>
        <time>2015-02-19T06:49:25.530Z</time>
      </trkpt>
      <trkpt lat="45.13725" lon="6.02665">
        <ele>1279.6</ele>
        <time>2015-02-19T06:49:35.530Z</time>
      </trkpt>
      <trkpt lat="45.13736" lon="6.02664">
        <ele>1280</ele>
        <time>2015-02-19T06:49:43.530Z</time>
      </trkpt>
      <trkpt lat="45.13746" lon="6.02665">
        <ele>1280</ele>
        <time>2015-02-19T06:49:51.530Z</time>
      </trkpt>
      <trkpt lat="45.13756" lon="6.02665">
        <ele>1280</ele>
        <time>2015-02-19T06:50:00.530Z</time>
      </trkpt>
      <trkpt lat="45.13766" lon="6.02662">
        <ele>1280.1</ele>
        <time>2015-02-19T06:50:10.530Z</time>
      </trkpt>
      <trkpt lat="45.13776" lon="6.02663">
        <ele>1280.9</ele>
        <time>2015-02-19T06:50:20.530Z</time>
      </trkpt>
      <trkpt lat="45.13787" lon="6.02664">
        <ele>1280.1</ele>
        <time>2015-02-19T06:50:28.530Z</time>
      </trkpt>
      <trkpt lat="45.13796" lon="6.02661">
        <ele>1279.3</ele>
        <time>2015-02-19T06:50:36.530Z</time>
      </trkpt>
      <trkpt lat="45.13807" lon="6.02654">
        <ele>1279.7</ele>
        <time>2015-02-19T06:50:46.550Z</time>
      </trkpt>
      <trkpt lat="45.13814" lon="6.02644">
        <ele>1280</ele>
        <time>2015-02-19T06:50:54.530Z</time>
      </trkpt>
      <trkpt lat="45.13822" lon="6.02636">
        <ele>1279.7</ele>
        <time>2015-02-19T06:51:02.530Z</time>
      </trkpt>
      <trkpt lat="45.13832" lon="6.02627">
        <ele>1279</ele>
        <time>2015-02-19T06:51:12.530Z</time>
      </trkpt>
      <trkpt lat="45.13842" lon="6.02625">
        <ele>1279</ele>
        <time>2015-02-19T06:51:20.530Z</time>
      </trkpt>
      <trkpt lat="45.13849" lon="6.02637">
        <ele>1279</ele>
        <time>2015-02-19T06:51:27.530Z</time>
      </trkpt>
      <trkpt lat="45.13857" lon="6.02649">
        <ele>1279</ele>
        <time>2015-02-19T06:51:33.270Z</time>
      </trkpt>
      <trkpt lat="45.13859" lon="6.02663">
        <ele>1278.8</ele>
        <time>2015-02-19T06:51:41.530Z</time>
      </trkpt>
      <trkpt lat="45.13861" lon="6.02677">
        <ele>1278.1</ele>
        <time>2015-02-19T06:51:48.530Z</time>
      </trkpt>
      <trkpt lat="45.13864" lon="6.02692">
        <ele>1278</ele>
        <time>2015-02-19T06:51:57.530Z</time>
      </trkpt>
      <trkpt lat="45.13865" lon="6.02707">
        <ele>1278</ele>
        <time>2015-02-19T06:52:05.530Z</time>
      </trkpt>
      <trkpt lat="45.13869" lon="6.0272">
        <ele>1278</ele>
        <time>2015-02-19T06:52:13.530Z</time>
      </trkpt>
      <trkpt lat="45.13873" lon="6.02734">
        <ele>1278</ele>
        <time>2015-02-19T06:52:21.530Z</time>
      </trkpt>
      <trkpt lat="45.1388" lon="6.02744">
        <ele>1278</ele>
        <time>2015-02-19T06:52:29.530Z</time>
      </trkpt>
      <trkpt lat="45.13888" lon="6.02755">
        <ele>1278</ele>
        <time>2015-02-19T06:52:36.530Z</time>
      </trkpt>
      <trkpt lat="45.13895" lon="6.02764">
        <ele>1278</ele>
        <time>2015-02-19T06:52:45.530Z</time>
      </trkpt>
      <trkpt lat="45.13904" lon="6.02771">
        <ele>1277.5</ele>
        <time>2015-02-19T06:52:54.530Z</time>
      </trkpt>
      <trkpt lat="45.13913" lon="6.02779">
        <ele>1277</ele>
        <time>2015-02-19T06:53:02.530Z</time>
      </trkpt>
      <trkpt lat="45.13922" lon="6.02787">
        <ele>1277</ele>
        <time>2015-02-19T06:53:09.530Z</time>
      </trkpt>
      <trkpt lat="45.13931" lon="6.02794">
        <ele>1277</ele>
        <time>2015-02-19T06:53:16.530Z</time>
      </trkpt>
      <trkpt lat="45.1394" lon="6.02802">
        <ele>1277</ele>
        <time>2015-02-19T06:53:24.530Z</time>
      </trkpt>
      <trkpt lat="45.1395" lon="6.02808">
        <ele>1276.6</ele>
        <time>2015-02-19T06:53:33.530Z</time>
      </trkpt>
      <trkpt lat="45.13959" lon="6.02817">
        <ele>1276.3</ele>
        <time>2015-02-19T06:53:42.530Z</time>
      </trkpt>
      <trkpt lat="45.13968" lon="6.02825">
        <ele>1277</ele>
        <time>2015-02-19T06:53:50.530Z</time>
      </trkpt>
      <trkpt lat="45.13978" lon="6.02834">
        <ele>1277</ele>
        <time>2015-02-19T06:53:58.530Z</time>
      </trkpt>
      <trkpt lat="45.13984" lon="6.02847">
        <ele>1275.6</ele>
        <time>2015-02-19T06:54:06.530Z</time>
      </trkpt>
      <trkpt lat="45.13989" lon="6.02862">
        <ele>1275</ele>
        <time>2015-02-19T06:54:13.530Z</time>
      </trkpt>
      <trkpt lat="45.13988" lon="6.02877">
        <ele>1275</ele>
        <time>2015-02-19T06:54:20.530Z</time>
      </trkpt>
      <trkpt lat="45.13987" lon="6.02892">
        <ele>1275</ele>
        <time>2015-02-19T06:54:27.530Z</time>
      </trkpt>
      <trkpt lat="45.13989" lon="6.02903">
        <ele>1275</ele>
        <time>2015-02-19T06:54:33.540Z</time>
      </trkpt>
      <trkpt lat="45.13992" lon="6.02913">
        <ele>1275</ele>
        <time>2015-02-19T06:54:38.530Z</time>
      </trkpt>
      <trkpt lat="45.13997" lon="6.02923">
        <ele>1275</ele>
        <time>2015-02-19T06:54:46.530Z</time>
      </trkpt>
      <trkpt lat="45.14004" lon="6.02929">
        <ele>1275</ele>
        <time>2015-02-19T06:54:54.540Z</time>
      </trkpt>
      <trkpt lat="45.1401" lon="6.02936">
        <ele>1274.8</ele>
        <time>2015-02-19T06:55:01.540Z</time>
      </trkpt>
      <trkpt lat="45.1402" lon="6.02939">
        <ele>1274</ele>
        <time>2015-02-19T06:55:11.530Z</time>
      </trkpt>
      <trkpt lat="45.1403" lon="6.02934">
        <ele>1274</ele>
        <time>2015-02-19T06:55:20.530Z</time>
      </trkpt>
      <trkpt lat="45.14039" lon="6.02928">
        <ele>1274</ele>
        <time>2015-02-19T06:55:29.560Z</time>
      </trkpt>
      <trkpt lat="45.14049" lon="6.02923">
        <ele>1274.9</ele>
        <time>2015-02-19T06:55:38.530Z</time>
      </trkpt>
      <trkpt lat="45.14059" lon="6.02917">
        <ele>1275</ele>
        <time>2015-02-19T06:55:47.530Z</time>
      </trkpt>
      <trkpt lat="45.14069" lon="6.02913">
        <ele>1275</ele>
        <time>2015-02-19T06:55:55.530Z</time>
      </trkpt>
      <trkpt lat="45.14079" lon="6.02908">
        <ele>1275</ele>
        <time>2015-02-19T06:56:03.530Z</time>
      </trkpt>
      <trkpt lat="45.14088" lon="6.02902">
        <ele>1275</ele>
        <time>2015-02-19T06:56:11.530Z</time>
      </trkpt>
      <trkpt lat="45.14095" lon="6.02893">
        <ele>1275</ele>
        <time>2015-02-19T06:56:18.530Z</time>
      </trkpt>
      <trkpt lat="45.14103" lon="6.02885">
        <ele>1275</ele>
        <time>2015-02-19T06:56:27.530Z</time>
      </trkpt>
      <trkpt lat="45.14112" lon="6.02874">
        <ele>1275.8</ele>
        <time>2015-02-19T06:56:37.530Z</time>
      </trkpt>
      <trkpt lat="45.1412" lon="6.02865">
        <ele>1276</ele>
        <time>2015-02-19T06:56:44.530Z</time>
      </trkpt>
      <trkpt lat="45.14126" lon="6.02856">
        <ele>1276</ele>
        <time>2015-02-19T06:56:51.530Z</time>
      </trkpt>
      <trkpt lat="45.14131" lon="6.02842">
        <ele>1276.1</ele>
        <time>2015-02-19T06:57:00.530Z</time>
      </trkpt>
      <trkpt lat="45.14137" lon="6.02831">
        <ele>1277</ele>
        <time>2015-02-19T06:57:11.550Z</time>
      </trkpt>
      <trkpt lat="45.14147" lon="6.02827">
        <ele>1277</ele>
        <time>2015-02-19T06:57:19.530Z</time>
      </trkpt>
      <trkpt lat="45.14159" lon="6.02829">
        <ele>1277.4</ele>
        <time>2015-02-19T06:57:23.530Z</time>
      </trkpt>
      <trkpt lat="45.1417" lon="6.02829">
        <ele>1278</ele>
        <time>2015-02-19T06:57:31.630Z</time>
      </trkpt>
      <trkpt lat="45.1418" lon="6.02826">
        <ele>1278</ele>
        <time>2015-02-19T06:57:42.630Z</time>
      </trkpt>
      <trkpt lat="45.14189" lon="6.0282">
        <ele>1278</ele>
        <time>2015-02-19T06:57:51.630Z</time>
      </trkpt>
      <trkpt lat="45.14196" lon="6.0281">
        <ele>1278.1</ele>
        <time>2015-02-19T06:58:00.630Z</time>
      </trkpt>
      <trkpt lat="45.14204" lon="6.02803">
        <ele>1278.7</ele>
        <time>2015-02-19T06:58:06.630Z</time>
      </trkpt>
      <trkpt lat="45.14211" lon="6.02793">
        <ele>1279.5</ele>
        <time>2015-02-19T06:58:14.630Z</time>
      </trkpt>
      <trkpt lat="45.1422" lon="6.02785">
        <ele>1280</ele>
        <time>2015-02-19T06:58:22.630Z</time>
      </trkpt>
      <trkpt lat="45.14228" lon="6.02776">
        <ele>1280.6</ele>
        <time>2015-02-19T06:58:35.630Z</time>
      </trkpt>
      <trkpt lat="45.14238" lon="6.02781">
        <ele>1281</ele>
        <time>2015-02-19T06:58:44.630Z</time>
      </trkpt>
      <trkpt lat="45.14248" lon="6.02784">
        <ele>1281</ele>
        <time>2015-02-19T06:58:53.630Z</time>
      </trkpt>
      <trkpt lat="45.1426" lon="6.02788">
        <ele>1281.8</ele>
        <time>2015-02-19T06:59:07.630Z</time>
      </trkpt>
      <trkpt lat="45.1427" lon="6.02789">
        <ele>1282.1</ele>
        <time>2015-02-19T06:59:20.630Z</time>
      </trkpt>
      <trkpt lat="45.14278" lon="6.02788">
        <ele>1283</ele>
        <time>2015-02-19T06:59:29.650Z</time>
      </trkpt>
      <trkpt lat="45.14285" lon="6.02785">
        <ele>1283</ele>
        <time>2015-02-19T06:59:37.630Z</time>
      </trkpt>
      <trkpt lat="45.14293" lon="6.02786">
        <ele>1283.5</ele>
        <time>2015-02-19T06:59:44.630Z</time>
      </trkpt>
      <trkpt lat="45.14302" lon="6.02786">
        <ele>1284</ele>
        <time>2015-02-19T06:59:51.630Z</time>
      </trkpt>
      <trkpt lat="45.14312" lon="6.02788">
        <ele>1284</ele>
        <time>2015-02-19T07:00:00.270Z</time>
      </trkpt>
      <trkpt lat="45.14321" lon="6.02789">
        <ele>1284.8</ele>
        <time>2015-02-19T07:00:08.270Z</time>
      </trkpt>
      <trkpt lat="45.1433" lon="6.0279">
        <ele>1285.9</ele>
        <time>2015-02-19T07:00:18.530Z</time>
      </trkpt>
      <trkpt lat="45.1434" lon="6.02788">
        <ele>1286.8</ele>
        <time>2015-02-19T07:00:27.530Z</time>
      </trkpt>
      <trkpt lat="45.14348" lon="6.02786">
        <ele>1287</ele>
        <time>2015-02-19T07:00:35.530Z</time>
      </trkpt>
      <trkpt lat="45.14358" lon="6.02785">
        <ele>1287.5</ele>
        <time>2015-02-19T07:00:44.530Z</time>
      </trkpt>
      <trkpt lat="45.14368" lon="6.02783">
        <ele>1288</ele>
        <time>2015-02-19T07:00:53.530Z</time>
      </trkpt>
      <trkpt lat="45.14377" lon="6.0278">
        <ele>1288.1</ele>
        <time>2015-02-19T07:01:00.530Z</time>
      </trkpt>
      <trkpt lat="45.14386" lon="6.02781">
        <ele>1288.8</ele>
        <time>2015-02-19T07:01:07.530Z</time>
      </trkpt>
      <trkpt lat="45.14391" lon="6.02791">
        <ele>1289</ele>
        <time>2015-02-19T07:01:14.530Z</time>
      </trkpt>
      <trkpt lat="45.14393" lon="6.02799">
        <ele>1289</ele>
        <time>2015-02-19T07:01:19.530Z</time>
      </trkpt>
      <trkpt lat="45.14393" lon="6.02813">
        <ele>1289.8</ele>
        <time>2015-02-19T07:01:27.530Z</time>
      </trkpt>
      <trkpt lat="45.14391" lon="6.02825">
        <ele>1290.5</ele>
        <time>2015-02-19T07:01:34.530Z</time>
      </trkpt>
      <trkpt lat="45.1439" lon="6.02835">
        <ele>1291.2</ele>
        <time>2015-02-19T07:01:40.530Z</time>
      </trkpt>
      <trkpt lat="45.14389" lon="6.02844">
        <ele>1292.4</ele>
        <time>2015-02-19T07:01:46.530Z</time>
      </trkpt>
      <trkpt lat="45.14388" lon="6.02866">
        <ele>1294</ele>
        <time>2015-02-19T07:02:00.530Z</time>
      </trkpt>
      <trkpt lat="45.14387" lon="6.02877">
        <ele>1294</ele>
        <time>2015-02-19T07:02:08.530Z</time>
      </trkpt>
      <trkpt lat="45.14387" lon="6.02889">
        <ele>1295.4</ele>
        <time>2015-02-19T07:02:16.530Z</time>
      </trkpt>
      <trkpt lat="45.14386" lon="6.02901">
        <ele>1296.5</ele>
        <time>2015-02-19T07:02:24.530Z</time>
      </trkpt>
      <trkpt lat="45.14383" lon="6.02912">
        <ele>1297.3</ele>
        <time>2015-02-19T07:02:32.530Z</time>
      </trkpt>
      <trkpt lat="45.1438" lon="6.02922">
        <ele>1298</ele>
        <time>2015-02-19T07:02:40.530Z</time>
      </trkpt>
      <trkpt lat="45.14378" lon="6.02934">
        <ele>1298</ele>
        <time>2015-02-19T07:02:48.530Z</time>
      </trkpt>
      <trkpt lat="45.14377" lon="6.02947">
        <ele>1298</ele>
        <time>2015-02-19T07:02:56.530Z</time>
      </trkpt>
      <trkpt lat="45.14376" lon="6.02961">
        <ele>1298.6</ele>
        <time>2015-02-19T07:03:05.530Z</time>
      </trkpt>
      <trkpt lat="45.14377" lon="6.02973">
        <ele>1299.4</ele>
        <time>2015-02-19T07:03:13.550Z</time>
      </trkpt>
      <trkpt lat="45.14379" lon="6.02987">
        <ele>1300</ele>
        <time>2015-02-19T07:03:23.530Z</time>
      </trkpt>
      <trkpt lat="45.14383" lon="6.03001">
        <ele>1300.3</ele>
        <time>2015-02-19T07:03:33.260Z</time>
      </trkpt>
      <trkpt lat="45.14382" lon="6.03031">
        <ele>1302.4</ele>
        <time>2015-02-19T07:03:53.530Z</time>
      </trkpt>
      <trkpt lat="45.14385" lon="6.03046">
        <ele>1303.4</ele>
        <time>2015-02-19T07:04:03.530Z</time>
      </trkpt>
      <trkpt lat="45.14383" lon="6.03058">
        <ele>1304.1</ele>
        <time>2015-02-19T07:04:10.530Z</time>
      </trkpt>
      <trkpt lat="45.14381" lon="6.03072">
        <ele>1305</ele>
        <time>2015-02-19T07:04:19.530Z</time>
      </trkpt>
      <trkpt lat="45.14378" lon="6.03087">
        <ele>1305.9</ele>
        <time>2015-02-19T07:04:28.530Z</time>
      </trkpt>
      <trkpt lat="45.14378" lon="6.03101">
        <ele>1306</ele>
        <time>2015-02-19T07:04:36.530Z</time>
      </trkpt>
      <trkpt lat="45.14374" lon="6.03115">
        <ele>1306.7</ele>
        <time>2015-02-19T07:04:46.530Z</time>
      </trkpt>
      <trkpt lat="45.14372" lon="6.0313">
        <ele>1308.6</ele>
        <time>2015-02-19T07:04:57.530Z</time>
      </trkpt>
      <trkpt lat="45.14375" lon="6.03143">
        <ele>1309</ele>
        <time>2015-02-19T07:05:06.530Z</time>
      </trkpt>
      <trkpt lat="45.14378" lon="6.03158">
        <ele>1310.4</ele>
        <time>2015-02-19T07:05:16.530Z</time>
      </trkpt>
      <trkpt lat="45.1438" lon="6.03173">
        <ele>1311</ele>
        <time>2015-02-19T07:05:27.530Z</time>
      </trkpt>
      <trkpt lat="45.14383" lon="6.03187">
        <ele>1311.8</ele>
        <time>2015-02-19T07:05:37.530Z</time>
      </trkpt>
      <trkpt lat="45.1439" lon="6.03198">
        <ele>1312.8</ele>
        <time>2015-02-19T07:05:47.530Z</time>
      </trkpt>
      <trkpt lat="45.14395" lon="6.0321">
        <ele>1313</ele>
        <time>2015-02-19T07:05:59.530Z</time>
      </trkpt>
      <trkpt lat="45.14398" lon="6.03223">
        <ele>1315</ele>
        <time>2015-02-19T07:06:10.530Z</time>
      </trkpt>
      <trkpt lat="45.14402" lon="6.03237">
        <ele>1315</ele>
        <time>2015-02-19T07:06:19.530Z</time>
      </trkpt>
      <trkpt lat="45.14404" lon="6.0325">
        <ele>1316</ele>
        <time>2015-02-19T07:06:29.530Z</time>
      </trkpt>
      <trkpt lat="45.14401" lon="6.03241">
        <ele>1317.6</ele>
        <time>2015-02-19T07:06:43.530Z</time>
      </trkpt>
      <trkpt lat="45.14402" lon="6.03253">
        <ele>1316.8</ele>
        <time>2015-02-19T07:07:17.530Z</time>
      </trkpt>
      <trkpt lat="45.14404" lon="6.03264">
        <ele>1317.7</ele>
        <time>2015-02-19T07:07:26.530Z</time>
      </trkpt>
      <trkpt lat="45.14406" lon="6.03277">
        <ele>1318.6</ele>
        <time>2015-02-19T07:07:35.530Z</time>
      </trkpt>
      <trkpt lat="45.14409" lon="6.03287">
        <ele>1319.3</ele>
        <time>2015-02-19T07:07:42.530Z</time>
      </trkpt>
      <trkpt lat="45.14412" lon="6.03299">
        <ele>1320.2</ele>
        <time>2015-02-19T07:07:51.530Z</time>
      </trkpt>
      <trkpt lat="45.14416" lon="6.0331">
        <ele>1321</ele>
        <time>2015-02-19T07:07:59.530Z</time>
      </trkpt>
      <trkpt lat="45.1442" lon="6.0332">
        <ele>1321.9</ele>
        <time>2015-02-19T07:08:08.530Z</time>
      </trkpt>
      <trkpt lat="45.14425" lon="6.03331">
        <ele>1322.9</ele>
        <time>2015-02-19T07:08:18.530Z</time>
      </trkpt>
      <trkpt lat="45.14429" lon="6.0334">
        <ele>1323.9</ele>
        <time>2015-02-19T07:08:28.530Z</time>
      </trkpt>
      <trkpt lat="45.14433" lon="6.03351">
        <ele>1325</ele>
        <time>2015-02-19T07:08:41.530Z</time>
      </trkpt>
      <trkpt lat="45.14437" lon="6.0336">
        <ele>1326.8</ele>
        <time>2015-02-19T07:09:41.530Z</time>
      </trkpt>
      <trkpt lat="45.14447" lon="6.03355">
        <ele>1330.8</ele>
        <time>2015-02-19T07:10:57.550Z</time>
      </trkpt>
      <trkpt lat="45.14456" lon="6.03357">
        <ele>1335</ele>
        <time>2015-02-19T07:11:25.530Z</time>
      </trkpt>
      <trkpt lat="45.14465" lon="6.03355">
        <ele>1338.8</ele>
        <time>2015-02-19T07:11:53.530Z</time>
      </trkpt>
      <trkpt lat="45.14475" lon="6.03353">
        <ele>1342.8</ele>
        <time>2015-02-19T07:12:17.530Z</time>
      </trkpt>
      <trkpt lat="45.14477" lon="6.0334">
        <ele>1349.4</ele>
        <time>2015-02-19T07:12:56.530Z</time>
      </trkpt>
      <trkpt lat="45.14487" lon="6.03335">
        <ele>1352.1</ele>
        <time>2015-02-19T07:13:10.530Z</time>
      </trkpt>
      <trkpt lat="45.14496" lon="6.03339">
        <ele>1354.7</ele>
        <time>2015-02-19T07:13:26.530Z</time>
      </trkpt>
      <trkpt lat="45.14503" lon="6.03348">
        <ele>1356.6</ele>
        <time>2015-02-19T07:13:37.530Z</time>
      </trkpt>
      <trkpt lat="45.14514" lon="6.03351">
        <ele>1359</ele>
        <time>2015-02-19T07:13:53.530Z</time>
      </trkpt>
      <trkpt lat="45.14525" lon="6.03351">
        <ele>1362.1</ele>
        <time>2015-02-19T07:14:07.530Z</time>
      </trkpt>
      <trkpt lat="45.14535" lon="6.0335">
        <ele>1363.1</ele>
        <time>2015-02-19T07:14:20.530Z</time>
      </trkpt>
      <trkpt lat="45.14545" lon="6.0335">
        <ele>1364</ele>
        <time>2015-02-19T07:14:29.530Z</time>
      </trkpt>
      <trkpt lat="45.14555" lon="6.03351">
        <ele>1369.4</ele>
        <time>2015-02-19T07:14:46.530Z</time>
      </trkpt>
      <trkpt lat="45.14565" lon="6.03352">
        <ele>1371.5</ele>
        <time>2015-02-19T07:15:01.530Z</time>
      </trkpt>
      <trkpt lat="45.14575" lon="6.03358">
        <ele>1374.8</ele>
        <time>2015-02-19T07:15:17.530Z</time>
      </trkpt>
      <trkpt lat="45.14588" lon="6.03357">
        <ele>1377.4</ele>
        <time>2015-02-19T07:15:36.530Z</time>
      </trkpt>
      <trkpt lat="45.14597" lon="6.03357">
        <ele>1380.2</ele>
        <time>2015-02-19T07:15:50.530Z</time>
      </trkpt>
      <trkpt lat="45.14605" lon="6.03359">
        <ele>1382</ele>
        <time>2015-02-19T07:15:59.530Z</time>
      </trkpt>
      <trkpt lat="45.14612" lon="6.0336">
        <ele>1385.5</ele>
        <time>2015-02-19T07:16:08.530Z</time>
      </trkpt>
      <trkpt lat="45.14619" lon="6.03356">
        <ele>1387.2</ele>
        <time>2015-02-19T07:16:21.530Z</time>
      </trkpt>
      <trkpt lat="45.14624" lon="6.0335">
        <ele>1388.2</ele>
        <time>2015-02-19T07:16:31.530Z</time>
      </trkpt>
      <trkpt lat="45.1463" lon="6.03343">
        <ele>1389.4</ele>
        <time>2015-02-19T07:16:41.530Z</time>
      </trkpt>
      <trkpt lat="45.14637" lon="6.03335">
        <ele>1392.8</ele>
        <time>2015-02-19T07:16:58.530Z</time>
      </trkpt>
      <trkpt lat="45.14651" lon="6.03334">
        <ele>1396.7</ele>
        <time>2015-02-19T07:17:16.530Z</time>
      </trkpt>
      <trkpt lat="45.1466" lon="6.03339">
        <ele>1397.8</ele>
        <time>2015-02-19T07:17:27.530Z</time>
      </trkpt>
      <trkpt lat="45.14668" lon="6.03338">
        <ele>1400</ele>
        <time>2015-02-19T07:17:39.530Z</time>
      </trkpt>
      <trkpt lat="45.14677" lon="6.03336">
        <ele>1402</ele>
        <time>2015-02-19T07:17:54.530Z</time>
      </trkpt>
      <trkpt lat="45.14686" lon="6.03335">
        <ele>1405.5</ele>
        <time>2015-02-19T07:18:08.530Z</time>
      </trkpt>
      <trkpt lat="45.14696" lon="6.03334">
        <ele>1407.3</ele>
        <time>2015-02-19T07:18:22.530Z</time>
      </trkpt>
      <trkpt lat="45.14706" lon="6.0333">
        <ele>1409.4</ele>
        <time>2015-02-19T07:18:36.530Z</time>
      </trkpt>
      <trkpt lat="45.14714" lon="6.03324">
        <ele>1411</ele>
        <time>2015-02-19T07:18:49.530Z</time>
      </trkpt>
      <trkpt lat="45.14707" lon="6.03318">
        <ele>1413</ele>
        <time>2015-02-19T07:19:06.530Z</time>
      </trkpt>
      <trkpt lat="45.14699" lon="6.03312">
        <ele>1415</ele>
        <time>2015-02-19T07:19:27.530Z</time>
      </trkpt>
      <trkpt lat="45.14691" lon="6.03303">
        <ele>1415</ele>
        <time>2015-02-19T07:19:37.530Z</time>
      </trkpt>
      <trkpt lat="45.14682" lon="6.03295">
        <ele>1416.2</ele>
        <time>2015-02-19T07:19:51.530Z</time>
      </trkpt>
      <trkpt lat="45.14686" lon="6.03284">
        <ele>1419.6</ele>
        <time>2015-02-19T07:20:08.530Z</time>
      </trkpt>
      <trkpt lat="45.14695" lon="6.03283">
        <ele>1420.4</ele>
        <time>2015-02-19T07:20:21.530Z</time>
      </trkpt>
      <trkpt lat="45.14703" lon="6.0328">
        <ele>1423.8</ele>
        <time>2015-02-19T07:20:38.530Z</time>
      </trkpt>
      <trkpt lat="45.14712" lon="6.03278">
        <ele>1427.4</ele>
        <time>2015-02-19T07:20:51.530Z</time>
      </trkpt>
      <trkpt lat="45.14721" lon="6.03279">
        <ele>1430.2</ele>
        <time>2015-02-19T07:21:05.530Z</time>
      </trkpt>
      <trkpt lat="45.14731" lon="6.03272">
        <ele>1433.2</ele>
        <time>2015-02-19T07:21:21.530Z</time>
      </trkpt>
      <trkpt lat="45.1474" lon="6.03267">
        <ele>1434.8</ele>
        <time>2015-02-19T07:21:33.530Z</time>
      </trkpt>
      <trkpt lat="45.14748" lon="6.0327">
        <ele>1436.6</ele>
        <time>2015-02-19T07:21:45.530Z</time>
      </trkpt>
      <trkpt lat="45.14756" lon="6.03265">
        <ele>1438.5</ele>
        <time>2015-02-19T07:21:57.530Z</time>
      </trkpt>
      <trkpt lat="45.14765" lon="6.03259">
        <ele>1442.9</ele>
        <time>2015-02-19T07:22:09.530Z</time>
      </trkpt>
      <trkpt lat="45.14776" lon="6.03256">
        <ele>1444.8</ele>
        <time>2015-02-19T07:22:23.530Z</time>
      </trkpt>
      <trkpt lat="45.14783" lon="6.03249">
        <ele>1446.4</ele>
        <time>2015-02-19T07:22:33.530Z</time>
      </trkpt>
      <trkpt lat="45.1479" lon="6.03243">
        <ele>1448.2</ele>
        <time>2015-02-19T07:22:45.530Z</time>
      </trkpt>
      <trkpt lat="45.148" lon="6.03244">
        <ele>1451.1</ele>
        <time>2015-02-19T07:23:00.530Z</time>
      </trkpt>
      <trkpt lat="45.14808" lon="6.0324">
        <ele>1452.6</ele>
        <time>2015-02-19T07:23:12.530Z</time>
      </trkpt>
      <trkpt lat="45.14816" lon="6.03237">
        <ele>1455.1</ele>
        <time>2015-02-19T07:23:23.530Z</time>
      </trkpt>
      <trkpt lat="45.14823" lon="6.03233">
        <ele>1457.5</ele>
        <time>2015-02-19T07:23:34.530Z</time>
      </trkpt>
      <trkpt lat="45.14835" lon="6.03229">
        <ele>1460</ele>
        <time>2015-02-19T07:23:54.530Z</time>
      </trkpt>
      <trkpt lat="45.14844" lon="6.03222">
        <ele>1463.2</ele>
        <time>2015-02-19T07:24:10.530Z</time>
      </trkpt>
      <trkpt lat="45.14854" lon="6.03218">
        <ele>1465.5</ele>
        <time>2015-02-19T07:24:24.530Z</time>
      </trkpt>
      <trkpt lat="45.14864" lon="6.03213">
        <ele>1468</ele>
        <time>2015-02-19T07:24:39.530Z</time>
      </trkpt>
      <trkpt lat="45.14876" lon="6.03211">
        <ele>1472.2</ele>
        <time>2015-02-19T07:25:00.530Z</time>
      </trkpt>
      <trkpt lat="45.14885" lon="6.03206">
        <ele>1475.6</ele>
        <time>2015-02-19T07:25:12.530Z</time>
      </trkpt>
      <trkpt lat="45.14894" lon="6.03205">
        <ele>1477</ele>
        <time>2015-02-19T07:25:26.530Z</time>
      </trkpt>
      <trkpt lat="45.14901" lon="6.03202">
        <ele>1477.5</ele>
        <time>2015-02-19T07:25:34.530Z</time>
      </trkpt>
      <trkpt lat="45.14911" lon="6.032">
        <ele>1481.3</ele>
        <time>2015-02-19T07:25:52.530Z</time>
      </trkpt>
      <trkpt lat="45.14919" lon="6.03195">
        <ele>1482.6</ele>
        <time>2015-02-19T07:26:02.530Z</time>
      </trkpt>
      <trkpt lat="45.14929" lon="6.03192">
        <ele>1486</ele>
        <time>2015-02-19T07:26:19.530Z</time>
      </trkpt>
      <trkpt lat="45.14938" lon="6.03186">
        <ele>1490.2</ele>
        <time>2015-02-19T07:26:31.530Z</time>
      </trkpt>
      <trkpt lat="45.14945" lon="6.03185">
        <ele>1491.1</ele>
        <time>2015-02-19T07:26:40.530Z</time>
      </trkpt>
      <trkpt lat="45.14955" lon="6.03183">
        <ele>1494.8</ele>
        <time>2015-02-19T07:26:58.530Z</time>
      </trkpt>
      <trkpt lat="45.1496" lon="6.03176">
        <ele>1500</ele>
        <time>2015-02-19T07:27:29.530Z</time>
      </trkpt>
      <trkpt lat="45.14966" lon="6.03171">
        <ele>1502.3</ele>
        <time>2015-02-19T07:27:46.380Z</time>
      </trkpt>
      <trkpt lat="45.14964" lon="6.03164">
        <ele>1505.6</ele>
        <time>2015-02-19T07:28:02.630Z</time>
      </trkpt>
      <trkpt lat="45.14968" lon="6.03153">
        <ele>1509.6</ele>
        <time>2015-02-19T07:28:27.630Z</time>
      </trkpt>
      <trkpt lat="45.14978" lon="6.03151">
        <ele>1512.4</ele>
        <time>2015-02-19T07:28:41.630Z</time>
      </trkpt>
      <trkpt lat="45.14987" lon="6.03148">
        <ele>1516.1</ele>
        <time>2015-02-19T07:28:56.630Z</time>
      </trkpt>
      <trkpt lat="45.14996" lon="6.03143">
        <ele>1518.2</ele>
        <time>2015-02-19T07:29:10.630Z</time>
      </trkpt>
      <trkpt lat="45.15005" lon="6.03142">
        <ele>1520.8</ele>
        <time>2015-02-19T07:29:23.630Z</time>
      </trkpt>
      <trkpt lat="45.15016" lon="6.0314">
        <ele>1522.8</ele>
        <time>2015-02-19T07:29:37.630Z</time>
      </trkpt>
      <trkpt lat="45.15025" lon="6.03135">
        <ele>1525.2</ele>
        <time>2015-02-19T07:29:50.630Z</time>
      </trkpt>
      <trkpt lat="45.15036" lon="6.03138">
        <ele>1527.8</ele>
        <time>2015-02-19T07:30:03.630Z</time>
      </trkpt>
      <trkpt lat="45.15056" lon="6.03139">
        <ele>1531.5</ele>
        <time>2015-02-19T07:30:27.370Z</time>
      </trkpt>
      <trkpt lat="45.15065" lon="6.03135">
        <ele>1534.4</ele>
        <time>2015-02-19T07:30:41.630Z</time>
      </trkpt>
      <trkpt lat="45.15074" lon="6.03138">
        <ele>1537.4</ele>
        <time>2015-02-19T07:30:56.630Z</time>
      </trkpt>
      <trkpt lat="45.15084" lon="6.03133">
        <ele>1539.6</ele>
        <time>2015-02-19T07:31:17.630Z</time>
      </trkpt>
      <trkpt lat="45.15093" lon="6.0313">
        <ele>1541.4</ele>
        <time>2015-02-19T07:31:31.630Z</time>
      </trkpt>
      <trkpt lat="45.15103" lon="6.03124">
        <ele>1543</ele>
        <time>2015-02-19T07:31:43.630Z</time>
      </trkpt>
      <trkpt lat="45.15113" lon="6.03119">
        <ele>1544</ele>
        <time>2015-02-19T07:31:54.630Z</time>
      </trkpt>
      <trkpt lat="45.15121" lon="6.03117">
        <ele>1546.8</ele>
        <time>2015-02-19T07:32:05.630Z</time>
      </trkpt>
      <trkpt lat="45.15131" lon="6.03111">
        <ele>1549.4</ele>
        <time>2015-02-19T07:32:21.630Z</time>
      </trkpt>
      <trkpt lat="45.15141" lon="6.03106">
        <ele>1552.4</ele>
        <time>2015-02-19T07:32:36.630Z</time>
      </trkpt>
      <trkpt lat="45.15149" lon="6.03102">
        <ele>1558.2</ele>
        <time>2015-02-19T07:32:51.630Z</time>
      </trkpt>
      <trkpt lat="45.15159" lon="6.03096">
        <ele>1559</ele>
        <time>2015-02-19T07:33:06.630Z</time>
      </trkpt>
      <trkpt lat="45.15167" lon="6.03096">
        <ele>1561.3</ele>
        <time>2015-02-19T07:33:20.630Z</time>
      </trkpt>
      <trkpt lat="45.15178" lon="6.03092">
        <ele>1564.8</ele>
        <time>2015-02-19T07:33:37.630Z</time>
      </trkpt>
      <trkpt lat="45.15187" lon="6.03092">
        <ele>1565.7</ele>
        <time>2015-02-19T07:33:46.630Z</time>
      </trkpt>
      <trkpt lat="45.15194" lon="6.03088">
        <ele>1568</ele>
        <time>2015-02-19T07:33:59.640Z</time>
      </trkpt>
      <trkpt lat="45.15204" lon="6.03087">
        <ele>1570</ele>
        <time>2015-02-19T07:34:09.630Z</time>
      </trkpt>
      <trkpt lat="45.15213" lon="6.03086">
        <ele>1570.2</ele>
        <time>2015-02-19T07:34:21.630Z</time>
      </trkpt>
      <trkpt lat="45.15221" lon="6.03085">
        <ele>1572</ele>
        <time>2015-02-19T07:34:34.630Z</time>
      </trkpt>
      <trkpt lat="45.15223" lon="6.03095">
        <ele>1571</ele>
        <time>2015-02-19T07:36:13.630Z</time>
      </trkpt>
      <trkpt lat="45.15215" lon="6.03092">
        <ele>1572</ele>
        <time>2015-02-19T07:38:07.630Z</time>
      </trkpt>
      <trkpt lat="45.15207" lon="6.03088">
        <ele>1572.2</ele>
        <time>2015-02-19T07:38:20.630Z</time>
      </trkpt>
      <trkpt lat="45.15198" lon="6.03082">
        <ele>1574</ele>
        <time>2015-02-19T07:38:31.630Z</time>
      </trkpt>
      <trkpt lat="45.15191" lon="6.03074">
        <ele>1574.2</ele>
        <time>2015-02-19T07:38:40.630Z</time>
      </trkpt>
      <trkpt lat="45.15185" lon="6.03066">
        <ele>1576.3</ele>
        <time>2015-02-19T07:38:52.630Z</time>
      </trkpt>
      <trkpt lat="45.15176" lon="6.03058">
        <ele>1577.8</ele>
        <time>2015-02-19T07:39:07.630Z</time>
      </trkpt>
      <trkpt lat="45.15171" lon="6.0305">
        <ele>1579.4</ele>
        <time>2015-02-19T07:39:16.630Z</time>
      </trkpt>
      <trkpt lat="45.15162" lon="6.03046">
        <ele>1580.7</ele>
        <time>2015-02-19T07:39:26.630Z</time>
      </trkpt>
      <trkpt lat="45.15152" lon="6.03045">
        <ele>1581</ele>
        <time>2015-02-19T07:39:35.630Z</time>
      </trkpt>
      <trkpt lat="45.15143" lon="6.03042">
        <ele>1581.4</ele>
        <time>2015-02-19T07:39:43.630Z</time>
      </trkpt>
      <trkpt lat="45.15136" lon="6.03035">
        <ele>1581.5</ele>
        <time>2015-02-19T07:39:54.630Z</time>
      </trkpt>
      <trkpt lat="45.15128" lon="6.03028">
        <ele>1582.8</ele>
        <time>2015-02-19T07:40:05.630Z</time>
      </trkpt>
      <trkpt lat="45.15122" lon="6.03018">
        <ele>1585.2</ele>
        <time>2015-02-19T07:40:15.630Z</time>
      </trkpt>
      <trkpt lat="45.15113" lon="6.03014">
        <ele>1586.2</ele>
        <time>2015-02-19T07:40:30.630Z</time>
      </trkpt>
      <trkpt lat="45.15105" lon="6.03006">
        <ele>1588.4</ele>
        <time>2015-02-19T07:40:41.630Z</time>
      </trkpt>
      <trkpt lat="45.15097" lon="6.02999">
        <ele>1590.4</ele>
        <time>2015-02-19T07:40:53.630Z</time>
      </trkpt>
      <trkpt lat="45.15089" lon="6.02996">
        <ele>1591</ele>
        <time>2015-02-19T07:41:02.630Z</time>
      </trkpt>
      <trkpt lat="45.15083" lon="6.02989">
        <ele>1591</ele>
        <time>2015-02-19T07:41:13.630Z</time>
      </trkpt>
      <trkpt lat="45.15076" lon="6.02979">
        <ele>1592.2</ele>
        <time>2015-02-19T07:41:25.630Z</time>
      </trkpt>
      <trkpt lat="45.15069" lon="6.02972">
        <ele>1595</ele>
        <time>2015-02-19T07:41:39.630Z</time>
      </trkpt>
      <trkpt lat="45.1506" lon="6.02966">
        <ele>1597.4</ele>
        <time>2015-02-19T07:41:53.630Z</time>
      </trkpt>
      <trkpt lat="45.15054" lon="6.02959">
        <ele>1602</ele>
        <time>2015-02-19T07:42:10.630Z</time>
      </trkpt>
      <trkpt lat="45.15047" lon="6.02954">
        <ele>1602</ele>
        <time>2015-02-19T07:42:18.630Z</time>
      </trkpt>
      <trkpt lat="45.15037" lon="6.02952">
        <ele>1604.2</ele>
        <time>2015-02-19T07:42:51.630Z</time>
      </trkpt>
      <trkpt lat="45.1503" lon="6.02945">
        <ele>1605.6</ele>
        <time>2015-02-19T07:43:05.640Z</time>
      </trkpt>
      <trkpt lat="45.15021" lon="6.02938">
        <ele>1607.7</ele>
        <time>2015-02-19T07:43:21.630Z</time>
      </trkpt>
      <trkpt lat="45.15013" lon="6.02935">
        <ele>1611</ele>
        <time>2015-02-19T07:43:31.630Z</time>
      </trkpt>
      <trkpt lat="45.15003" lon="6.02926">
        <ele>1613.6</ele>
        <time>2015-02-19T07:43:52.630Z</time>
      </trkpt>
      <trkpt lat="45.14995" lon="6.02922">
        <ele>1617</ele>
        <time>2015-02-19T07:44:09.630Z</time>
      </trkpt>
      <trkpt lat="45.14987" lon="6.02913">
        <ele>1619.1</ele>
        <time>2015-02-19T07:44:30.650Z</time>
      </trkpt>
      <trkpt lat="45.14981" lon="6.02902">
        <ele>1621.8</ele>
        <time>2015-02-19T07:44:48.630Z</time>
      </trkpt>
      <trkpt lat="45.14981" lon="6.0289">
        <ele>1626.2</ele>
        <time>2015-02-19T07:45:11.380Z</time>
      </trkpt>
      <trkpt lat="45.14975" lon="6.02881">
        <ele>1627</ele>
        <time>2015-02-19T07:45:28.630Z</time>
      </trkpt>
      <trkpt lat="45.14971" lon="6.02869">
        <ele>1628.8</ele>
        <time>2015-02-19T07:45:43.630Z</time>
      </trkpt>
      <trkpt lat="45.14978" lon="6.02859">
        <ele>1631.3</ele>
        <time>2015-02-19T07:46:00.630Z</time>
      </trkpt>
      <trkpt lat="45.14972" lon="6.02847">
        <ele>1634.8</ele>
        <time>2015-02-19T07:46:17.630Z</time>
      </trkpt>
      <trkpt lat="45.14972" lon="6.02832">
        <ele>1638.8</ele>
        <time>2015-02-19T07:46:47.630Z</time>
      </trkpt>
      <trkpt lat="45.14967" lon="6.02821">
        <ele>1641.5</ele>
        <time>2015-02-19T07:47:04.630Z</time>
      </trkpt>
      <trkpt lat="45.14965" lon="6.02808">
        <ele>1646</ele>
        <time>2015-02-19T07:47:34.630Z</time>
      </trkpt>
      <trkpt lat="45.14959" lon="6.02797">
        <ele>1648.4</ele>
        <time>2015-02-19T07:47:53.630Z</time>
      </trkpt>
      <trkpt lat="45.14964" lon="6.02784">
        <ele>1651.8</ele>
        <time>2015-02-19T07:48:18.630Z</time>
      </trkpt>
      <trkpt lat="45.14972" lon="6.02779">
        <ele>1655.2</ele>
        <time>2015-02-19T07:48:35.630Z</time>
      </trkpt>
      <trkpt lat="45.1498" lon="6.02777">
        <ele>1658.4</ele>
        <time>2015-02-19T07:48:56.630Z</time>
      </trkpt>
      <trkpt lat="45.14989" lon="6.02777">
        <ele>1661</ele>
        <time>2015-02-19T07:49:16.630Z</time>
      </trkpt>
      <trkpt lat="45.14999" lon="6.02777">
        <ele>1662.8</ele>
        <time>2015-02-19T07:49:28.630Z</time>
      </trkpt>
      <trkpt lat="45.15007" lon="6.02775">
        <ele>1664.2</ele>
        <time>2015-02-19T07:49:40.630Z</time>
      </trkpt>
      <trkpt lat="45.15017" lon="6.02777">
        <ele>1667.6</ele>
        <time>2015-02-19T07:49:57.630Z</time>
      </trkpt>
      <trkpt lat="45.15027" lon="6.02775">
        <ele>1669.6</ele>
        <time>2015-02-19T07:50:12.630Z</time>
      </trkpt>
      <trkpt lat="45.15037" lon="6.02773">
        <ele>1672.6</ele>
        <time>2015-02-19T07:50:27.630Z</time>
      </trkpt>
      <trkpt lat="45.15048" lon="6.02772">
        <ele>1674.9</ele>
        <time>2015-02-19T07:50:48.630Z</time>
      </trkpt>
      <trkpt lat="45.15057" lon="6.02769">
        <ele>1677.3</ele>
        <time>2015-02-19T07:51:00.630Z</time>
      </trkpt>
      <trkpt lat="45.15067" lon="6.02766">
        <ele>1681.6</ele>
        <time>2015-02-19T07:51:15.630Z</time>
      </trkpt>
      <trkpt lat="45.15077" lon="6.02767">
        <ele>1683.6</ele>
        <time>2015-02-19T07:51:27.630Z</time>
      </trkpt>
      <trkpt lat="45.15088" lon="6.02767">
        <ele>1687.3</ele>
        <time>2015-02-19T07:52:12.630Z</time>
      </trkpt>
      <trkpt lat="45.15098" lon="6.02763">
        <ele>1689.2</ele>
        <time>2015-02-19T07:52:25.630Z</time>
      </trkpt>
      <trkpt lat="45.15108" lon="6.0276">
        <ele>1691.2</ele>
        <time>2015-02-19T07:52:35.640Z</time>
      </trkpt>
      <trkpt lat="45.15118" lon="6.02757">
        <ele>1693.8</ele>
        <time>2015-02-19T07:52:48.630Z</time>
      </trkpt>
      <trkpt lat="45.1513" lon="6.02752">
        <ele>1697.4</ele>
        <time>2015-02-19T07:53:06.630Z</time>
      </trkpt>
      <trkpt lat="45.1514" lon="6.02746">
        <ele>1703</ele>
        <time>2015-02-19T07:53:39.630Z</time>
      </trkpt>
      <trkpt lat="45.15149" lon="6.02736">
        <ele>1707.1</ele>
        <time>2015-02-19T07:54:10.630Z</time>
      </trkpt>
      <trkpt lat="45.15159" lon="6.02731">
        <ele>1708.4</ele>
        <time>2015-02-19T07:54:21.630Z</time>
      </trkpt>
      <trkpt lat="45.15171" lon="6.02733">
        <ele>1712.4</ele>
        <time>2015-02-19T07:54:41.630Z</time>
      </trkpt>
      <trkpt lat="45.15182" lon="6.02735">
        <ele>1715.3</ele>
        <time>2015-02-19T07:55:00.630Z</time>
      </trkpt>
      <trkpt lat="45.15194" lon="6.02735">
        <ele>1718.6</ele>
        <time>2015-02-19T07:55:32.630Z</time>
      </trkpt>
      <trkpt lat="45.15204" lon="6.02733">
        <ele>1721</ele>
        <time>2015-02-19T07:55:44.630Z</time>
      </trkpt>
      <trkpt lat="45.15213" lon="6.02729">
        <ele>1724.4</ele>
        <time>2015-02-19T07:56:01.630Z</time>
      </trkpt>
      <trkpt lat="45.15222" lon="6.02727">
        <ele>1726.7</ele>
        <time>2015-02-19T07:56:16.630Z</time>
      </trkpt>
      <trkpt lat="45.15232" lon="6.02729">
        <ele>1728</ele>
        <time>2015-02-19T07:56:29.630Z</time>
      </trkpt>
      <trkpt lat="45.15241" lon="6.02725">
        <ele>1730.6</ele>
        <time>2015-02-19T07:56:52.630Z</time>
      </trkpt>
      <trkpt lat="45.15248" lon="6.02723">
        <ele>1734.2</ele>
        <time>2015-02-19T07:57:11.630Z</time>
      </trkpt>
      <trkpt lat="45.15257" lon="6.02719">
        <ele>1735.6</ele>
        <time>2015-02-19T07:57:32.630Z</time>
      </trkpt>
      <trkpt lat="45.15252" lon="6.02708">
        <ele>1740.4</ele>
        <time>2015-02-19T07:58:16.630Z</time>
      </trkpt>
      <trkpt lat="45.15247" lon="6.02699">
        <ele>1743.1</ele>
        <time>2015-02-19T07:58:30.630Z</time>
      </trkpt>
      <trkpt lat="45.15243" lon="6.02687">
        <ele>1745.6</ele>
        <time>2015-02-19T07:58:47.630Z</time>
      </trkpt>
      <trkpt lat="45.15236" lon="6.02678">
        <ele>1747.3</ele>
        <time>2015-02-19T07:59:02.630Z</time>
      </trkpt>
      <trkpt lat="45.15243" lon="6.02666">
        <ele>1748.7</ele>
        <time>2015-02-19T07:59:16.630Z</time>
      </trkpt>
      <trkpt lat="45.1525" lon="6.0266">
        <ele>1750.2</ele>
        <time>2015-02-19T07:59:30.630Z</time>
      </trkpt>
      <trkpt lat="45.15244" lon="6.02652">
        <ele>1753</ele>
        <time>2015-02-19T07:59:44.630Z</time>
      </trkpt>
      <trkpt lat="45.15235" lon="6.02646">
        <ele>1755.4</ele>
        <time>2015-02-19T07:59:56.630Z</time>
      </trkpt>
      <trkpt lat="45.15227" lon="6.02639">
        <ele>1757</ele>
        <time>2015-02-19T08:00:09.470Z</time>
      </trkpt>
      <trkpt lat="45.15221" lon="6.02628">
        <ele>1759.2</ele>
        <time>2015-02-19T08:00:25.730Z</time>
      </trkpt>
      <trkpt lat="45.15223" lon="6.02611">
        <ele>1763</ele>
        <time>2015-02-19T08:00:44.730Z</time>
      </trkpt>
      <trkpt lat="45.15228" lon="6.02602">
        <ele>1765.8</ele>
        <time>2015-02-19T08:00:58.730Z</time>
      </trkpt>
      <trkpt lat="45.15233" lon="6.02594">
        <ele>1767.6</ele>
        <time>2015-02-19T08:01:12.730Z</time>
      </trkpt>
      <trkpt lat="45.15239" lon="6.02589">
        <ele>1769.3</ele>
        <time>2015-02-19T08:01:22.730Z</time>
      </trkpt>
      <trkpt lat="45.15245" lon="6.02582">
        <ele>1771.6</ele>
        <time>2015-02-19T08:01:55.730Z</time>
      </trkpt>
      <trkpt lat="45.15251" lon="6.02576">
        <ele>1773.2</ele>
        <time>2015-02-19T08:02:05.730Z</time>
      </trkpt>
      <trkpt lat="45.15256" lon="6.02572">
        <ele>1774.7</ele>
        <time>2015-02-19T08:02:16.760Z</time>
      </trkpt>
      <trkpt lat="45.15256" lon="6.02562">
        <ele>1777.5</ele>
        <time>2015-02-19T08:02:34.730Z</time>
      </trkpt>
      <trkpt lat="45.15252" lon="6.02555">
        <ele>1779</ele>
        <time>2015-02-19T08:02:44.730Z</time>
      </trkpt>
      <trkpt lat="45.15251" lon="6.02548">
        <ele>1780.6</ele>
        <time>2015-02-19T08:02:52.730Z</time>
      </trkpt>
      <trkpt lat="45.15249" lon="6.02542">
        <ele>1782</ele>
        <time>2015-02-19T08:02:59.730Z</time>
      </trkpt>
      <trkpt lat="45.15245" lon="6.02534">
        <ele>1783.8</ele>
        <time>2015-02-19T08:03:08.730Z</time>
      </trkpt>
      <trkpt lat="45.15242" lon="6.02526">
        <ele>1784.8</ele>
        <time>2015-02-19T08:03:17.730Z</time>
      </trkpt>
      <trkpt lat="45.15244" lon="6.02517">
        <ele>1785.9</ele>
        <time>2015-02-19T08:03:28.730Z</time>
      </trkpt>
      <trkpt lat="45.15249" lon="6.02512">
        <ele>1787</ele>
        <time>2015-02-19T08:04:21.730Z</time>
      </trkpt>
      <trkpt lat="45.15243" lon="6.02513">
        <ele>1787.8</ele>
        <time>2015-02-19T08:05:00.730Z</time>
      </trkpt>
      <trkpt lat="45.15244" lon="6.02497">
        <ele>1786</ele>
        <time>2015-02-19T08:08:25.810Z</time>
      </trkpt>
      <trkpt lat="45.15244" lon="6.02486">
        <ele>1786.6</ele>
        <time>2015-02-19T08:08:35.730Z</time>
      </trkpt>
      <trkpt lat="45.15244" lon="6.02479">
        <ele>1787</ele>
        <time>2015-02-19T08:08:41.730Z</time>
      </trkpt>
      <trkpt lat="45.15249" lon="6.02477">
        <ele>1787.1</ele>
        <time>2015-02-19T08:08:50.830Z</time>
      </trkpt>
      <trkpt lat="45.15255" lon="6.02475">
        <ele>1788.3</ele>
        <time>2015-02-19T08:09:00.610Z</time>
      </trkpt>
      <trkpt lat="45.15259" lon="6.02472">
        <ele>1791.5</ele>
        <time>2015-02-19T08:09:08.610Z</time>
      </trkpt>
      <trkpt lat="45.15264" lon="6.02468">
        <ele>1792</ele>
        <time>2015-02-19T08:09:22.830Z</time>
      </trkpt>
      <trkpt lat="45.1527" lon="6.02463">
        <ele>1792.6</ele>
        <time>2015-02-19T08:09:32.730Z</time>
      </trkpt>
      <trkpt lat="45.15274" lon="6.02459">
        <ele>1794.7</ele>
        <time>2015-02-19T08:09:41.830Z</time>
      </trkpt>
      <trkpt lat="45.15278" lon="6.02455">
        <ele>1797.5</ele>
        <time>2015-02-19T08:09:48.730Z</time>
      </trkpt>
      <trkpt lat="45.15282" lon="6.0245">
        <ele>1798.7</ele>
        <time>2015-02-19T08:09:56.730Z</time>
      </trkpt>
      <trkpt lat="45.1528" lon="6.02445">
        <ele>1799.4</ele>
        <time>2015-02-19T08:10:03.730Z</time>
      </trkpt>
      <trkpt lat="45.15277" lon="6.02439">
        <ele>1800.4</ele>
        <time>2015-02-19T08:10:11.830Z</time>
      </trkpt>
      <trkpt lat="45.15273" lon="6.02434">
        <ele>1801.9</ele>
        <time>2015-02-19T08:10:19.730Z</time>
      </trkpt>
      <trkpt lat="45.15271" lon="6.02431">
        <ele>1802.6</ele>
        <time>2015-02-19T08:10:25.830Z</time>
      </trkpt>
      <trkpt lat="45.15267" lon="6.02427">
        <ele>1803.6</ele>
        <time>2015-02-19T08:10:32.830Z</time>
      </trkpt>
      <trkpt lat="45.15265" lon="6.02422">
        <ele>1805</ele>
        <time>2015-02-19T08:10:39.830Z</time>
      </trkpt>
      <trkpt lat="45.15269" lon="6.02417">
        <ele>1805.7</ele>
        <time>2015-02-19T08:10:46.830Z</time>
      </trkpt>
      <trkpt lat="45.15274" lon="6.02414">
        <ele>1808.5</ele>
        <time>2015-02-19T08:10:54.830Z</time>
      </trkpt>
      <trkpt lat="45.15278" lon="6.0241">
        <ele>1810.7</ele>
        <time>2015-02-19T08:11:02.730Z</time>
      </trkpt>
      <trkpt lat="45.15282" lon="6.02407">
        <ele>1810.5</ele>
        <time>2015-02-19T08:11:14.830Z</time>
      </trkpt>
      <trkpt lat="45.15279" lon="6.02401">
        <ele>1811.2</ele>
        <time>2015-02-19T08:11:20.630Z</time>
      </trkpt>
      <trkpt lat="45.15275" lon="6.02396">
        <ele>1812.6</ele>
        <time>2015-02-19T08:11:27.730Z</time>
      </trkpt>
      <trkpt lat="45.15272" lon="6.0239">
        <ele>1814</ele>
        <time>2015-02-19T08:11:34.830Z</time>
      </trkpt>
      <trkpt lat="45.15268" lon="6.02385">
        <ele>1815.4</ele>
        <time>2015-02-19T08:11:41.830Z</time>
      </trkpt>
      <trkpt lat="45.15264" lon="6.02382">
        <ele>1816.8</ele>
        <time>2015-02-19T08:11:48.830Z</time>
      </trkpt>
      <trkpt lat="45.15259" lon="6.02379">
        <ele>1817.6</ele>
        <time>2015-02-19T08:11:55.830Z</time>
      </trkpt>
      <trkpt lat="45.15261" lon="6.02371">
        <ele>1819.6</ele>
        <time>2015-02-19T08:12:12.830Z</time>
      </trkpt>
      <trkpt lat="45.15266" lon="6.02366">
        <ele>1821.2</ele>
        <time>2015-02-19T08:12:21.830Z</time>
      </trkpt>
      <trkpt lat="45.15274" lon="6.02361">
        <ele>1822.9</ele>
        <time>2015-02-19T08:12:38.940Z</time>
      </trkpt>
      <trkpt lat="45.15282" lon="6.02355">
        <ele>1827</ele>
        <time>2015-02-19T08:12:51.720Z</time>
      </trkpt>
      <trkpt lat="45.15289" lon="6.02352">
        <ele>1827.3</ele>
        <time>2015-02-19T08:13:02.700Z</time>
      </trkpt>
      <trkpt lat="45.15295" lon="6.02348">
        <ele>1828.6</ele>
        <time>2015-02-19T08:13:12.660Z</time>
      </trkpt>
      <trkpt lat="45.15299" lon="6.02345">
        <ele>1830.2</ele>
        <time>2015-02-19T08:13:20.900Z</time>
      </trkpt>
      <trkpt lat="45.15304" lon="6.02341">
        <ele>1831.8</ele>
        <time>2015-02-19T08:13:28.600Z</time>
      </trkpt>
      <trkpt lat="45.15307" lon="6.02334">
        <ele>1834</ele>
        <time>2015-02-19T08:13:40.020Z</time>
      </trkpt>
      <trkpt lat="45.15305" lon="6.02326">
        <ele>1835.6</ele>
        <time>2015-02-19T08:13:47.810Z</time>
      </trkpt>
      <trkpt lat="45.15302" lon="6.02319">
        <ele>1836</ele>
        <time>2015-02-19T08:13:59.830Z</time>
      </trkpt>
      <trkpt lat="45.15301" lon="6.02312">
        <ele>1836</ele>
        <time>2015-02-19T08:14:06.630Z</time>
      </trkpt>
      <trkpt lat="45.15298" lon="6.02308">
        <ele>1836.8</ele>
        <time>2015-02-19T08:14:13.630Z</time>
      </trkpt>
      <trkpt lat="45.15294" lon="6.02304">
        <ele>1838</ele>
        <time>2015-02-19T08:14:19.800Z</time>
      </trkpt>
      <trkpt lat="45.15291" lon="6.02299">
        <ele>1839.3</ele>
        <time>2015-02-19T08:14:26.600Z</time>
      </trkpt>
      <trkpt lat="45.15288" lon="6.02292">
        <ele>1841</ele>
        <time>2015-02-19T08:14:34.730Z</time>
      </trkpt>
      <trkpt lat="45.15285" lon="6.02286">
        <ele>1842.2</ele>
        <time>2015-02-19T08:14:41.630Z</time>
      </trkpt>
      <trkpt lat="45.15283" lon="6.0228">
        <ele>1842.8</ele>
        <time>2015-02-19T08:14:47.900Z</time>
      </trkpt>
      <trkpt lat="45.15282" lon="6.02271">
        <ele>1844.1</ele>
        <time>2015-02-19T08:14:55.630Z</time>
      </trkpt>
      <trkpt lat="45.15282" lon="6.02265">
        <ele>1845.4</ele>
        <time>2015-02-19T08:15:01.900Z</time>
      </trkpt>
      <trkpt lat="45.15282" lon="6.02257">
        <ele>1846.8</ele>
        <time>2015-02-19T08:15:08.630Z</time>
      </trkpt>
      <trkpt lat="45.15282" lon="6.0225">
        <ele>1847</ele>
        <time>2015-02-19T08:15:15.730Z</time>
      </trkpt>
      <trkpt lat="45.15278" lon="6.02244">
        <ele>1847.3</ele>
        <time>2015-02-19T08:15:22.730Z</time>
      </trkpt>
      <trkpt lat="45.15274" lon="6.02241">
        <ele>1847.9</ele>
        <time>2015-02-19T08:15:28.630Z</time>
      </trkpt>
      <trkpt lat="45.1527" lon="6.02238">
        <ele>1849.5</ele>
        <time>2015-02-19T08:15:34.730Z</time>
      </trkpt>
      <trkpt lat="45.15266" lon="6.02233">
        <ele>1851.2</ele>
        <time>2015-02-19T08:15:41.630Z</time>
      </trkpt>
      <trkpt lat="45.15264" lon="6.02227">
        <ele>1851.9</ele>
        <time>2015-02-19T08:15:48.700Z</time>
      </trkpt>
      <trkpt lat="45.15261" lon="6.0222">
        <ele>1852.7</ele>
        <time>2015-02-19T08:15:56.630Z</time>
      </trkpt>
      <trkpt lat="45.15261" lon="6.02211">
        <ele>1855</ele>
        <time>2015-02-19T08:16:04.830Z</time>
      </trkpt>
      <trkpt lat="45.15262" lon="6.02204">
        <ele>1857</ele>
        <time>2015-02-19T08:16:11.830Z</time>
      </trkpt>
      <trkpt lat="45.15264" lon="6.02197">
        <ele>1857</ele>
        <time>2015-02-19T08:16:18.830Z</time>
      </trkpt>
      <trkpt lat="45.15266" lon="6.0219">
        <ele>1857.7</ele>
        <time>2015-02-19T08:16:26.830Z</time>
      </trkpt>
      <trkpt lat="45.1527" lon="6.02182">
        <ele>1859.4</ele>
        <time>2015-02-19T08:16:36.830Z</time>
      </trkpt>
      <trkpt lat="45.15276" lon="6.02182">
        <ele>1860.7</ele>
        <time>2015-02-19T08:16:46.630Z</time>
      </trkpt>
      <trkpt lat="45.15278" lon="6.02175">
        <ele>1862.2</ele>
        <time>2015-02-19T08:16:55.830Z</time>
      </trkpt>
      <trkpt lat="45.1528" lon="6.02168">
        <ele>1863.4</ele>
        <time>2015-02-19T08:17:03.730Z</time>
      </trkpt>
      <trkpt lat="45.15282" lon="6.02159">
        <ele>1866</ele>
        <time>2015-02-19T08:17:21.830Z</time>
      </trkpt>
      <trkpt lat="45.15284" lon="6.02152">
        <ele>1866</ele>
        <time>2015-02-19T08:17:28.830Z</time>
      </trkpt>
      <trkpt lat="45.15285" lon="6.02146">
        <ele>1866.4</ele>
        <time>2015-02-19T08:17:33.960Z</time>
      </trkpt>
      <trkpt lat="45.15287" lon="6.02137">
        <ele>1867.1</ele>
        <time>2015-02-19T08:17:40.630Z</time>
      </trkpt>
      <trkpt lat="45.15288" lon="6.0213">
        <ele>1867.7</ele>
        <time>2015-02-19T08:17:46.730Z</time>
      </trkpt>
      <trkpt lat="45.1529" lon="6.02122">
        <ele>1868.4</ele>
        <time>2015-02-19T08:17:53.630Z</time>
      </trkpt>
      <trkpt lat="45.15292" lon="6.02115">
        <ele>1869</ele>
        <time>2015-02-19T08:17:59.910Z</time>
      </trkpt>
      <trkpt lat="45.15294" lon="6.02107">
        <ele>1870.4</ele>
        <time>2015-02-19T08:18:06.830Z</time>
      </trkpt>
      <trkpt lat="45.15298" lon="6.02097">
        <ele>1872.2</ele>
        <time>2015-02-19T08:18:15.730Z</time>
      </trkpt>
      <trkpt lat="45.153" lon="6.02086">
        <ele>1873</ele>
        <time>2015-02-19T08:18:24.730Z</time>
      </trkpt>
      <trkpt lat="45.15301" lon="6.02078">
        <ele>1873.2</ele>
        <time>2015-02-19T08:18:31.600Z</time>
      </trkpt>
      <trkpt lat="45.15299" lon="6.02061">
        <ele>1874.7</ele>
        <time>2015-02-19T08:18:46.730Z</time>
      </trkpt>
      <trkpt lat="45.15298" lon="6.02052">
        <ele>1875.7</ele>
        <time>2015-02-19T08:18:53.600Z</time>
      </trkpt>
      <trkpt lat="45.15299" lon="6.02044">
        <ele>1877.2</ele>
        <time>2015-02-19T08:19:00.730Z</time>
      </trkpt>
      <trkpt lat="45.153" lon="6.02036">
        <ele>1878.8</ele>
        <time>2015-02-19T08:19:08.730Z</time>
      </trkpt>
      <trkpt lat="45.15301" lon="6.02027">
        <ele>1881.7</ele>
        <time>2015-02-19T08:19:18.650Z</time>
      </trkpt>
      <trkpt lat="45.15303" lon="6.02018">
        <ele>1882.8</ele>
        <time>2015-02-19T08:19:27.290Z</time>
      </trkpt>
      <trkpt lat="45.15306" lon="6.02011">
        <ele>1883</ele>
        <time>2015-02-19T08:19:36.630Z</time>
      </trkpt>
      <trkpt lat="45.15309" lon="6.02003">
        <ele>1883.3</ele>
        <time>2015-02-19T08:19:42.630Z</time>
      </trkpt>
      <trkpt lat="45.15312" lon="6.01997">
        <ele>1883.8</ele>
        <time>2015-02-19T08:19:47.660Z</time>
      </trkpt>
      <trkpt lat="45.15317" lon="6.01998">
        <ele>1884.6</ele>
        <time>2015-02-19T08:20:45.630Z</time>
      </trkpt>
      <trkpt lat="45.15322" lon="6.0199">
        <ele>1885.8</ele>
        <time>2015-02-19T08:20:57.630Z</time>
      </trkpt>
      <trkpt lat="45.15323" lon="6.01982">
        <ele>1886.8</ele>
        <time>2015-02-19T08:21:03.630Z</time>
      </trkpt>
      <trkpt lat="45.15325" lon="6.01973">
        <ele>1888.4</ele>
        <time>2015-02-19T08:21:11.630Z</time>
      </trkpt>
      <trkpt lat="45.15326" lon="6.01964">
        <ele>1890</ele>
        <time>2015-02-19T08:21:19.630Z</time>
      </trkpt>
      <trkpt lat="45.15328" lon="6.01954">
        <ele>1890.8</ele>
        <time>2015-02-19T08:21:27.630Z</time>
      </trkpt>
      <trkpt lat="45.15328" lon="6.01947">
        <ele>1892</ele>
        <time>2015-02-19T08:21:34.630Z</time>
      </trkpt>
      <trkpt lat="45.15329" lon="6.01939">
        <ele>1893.2</ele>
        <time>2015-02-19T08:21:41.630Z</time>
      </trkpt>
      <trkpt lat="45.15335" lon="6.01939">
        <ele>1896</ele>
        <time>2015-02-19T08:21:59.630Z</time>
      </trkpt>
      <trkpt lat="45.15341" lon="6.01937">
        <ele>1898.6</ele>
        <time>2015-02-19T08:22:12.630Z</time>
      </trkpt>
      <trkpt lat="45.1534" lon="6.01924">
        <ele>1901</ele>
        <time>2015-02-19T08:22:24.630Z</time>
      </trkpt>
      <trkpt lat="45.1534" lon="6.01918">
        <ele>1902.1</ele>
        <time>2015-02-19T08:22:30.630Z</time>
      </trkpt>
      <trkpt lat="45.15339" lon="6.01911">
        <ele>1902.8</ele>
        <time>2015-02-19T08:22:37.630Z</time>
      </trkpt>
      <trkpt lat="45.15339" lon="6.01903">
        <ele>1904</ele>
        <time>2015-02-19T08:22:44.630Z</time>
      </trkpt>
      <trkpt lat="45.15345" lon="6.01902">
        <ele>1907.4</ele>
        <time>2015-02-19T08:23:01.630Z</time>
      </trkpt>
      <trkpt lat="45.1535" lon="6.01906">
        <ele>1909.4</ele>
        <time>2015-02-19T08:23:11.630Z</time>
      </trkpt>
      <trkpt lat="45.15355" lon="6.01905">
        <ele>1911.8</ele>
        <time>2015-02-19T08:23:23.630Z</time>
      </trkpt>
      <trkpt lat="45.15358" lon="6.01897">
        <ele>1913.4</ele>
        <time>2015-02-19T08:23:33.630Z</time>
      </trkpt>
      <trkpt lat="45.15362" lon="6.01892">
        <ele>1916</ele>
        <time>2015-02-19T08:23:49.630Z</time>
      </trkpt>
      <trkpt lat="45.15364" lon="6.01885">
        <ele>1917.8</ele>
        <time>2015-02-19T08:23:58.640Z</time>
      </trkpt>
      <trkpt lat="45.15368" lon="6.01878">
        <ele>1922.1</ele>
        <time>2015-02-19T08:24:10.630Z</time>
      </trkpt>
      <trkpt lat="45.15366" lon="6.01869">
        <ele>1923.2</ele>
        <time>2015-02-19T08:24:20.630Z</time>
      </trkpt>
      <trkpt lat="45.15362" lon="6.01863">
        <ele>1925</ele>
        <time>2015-02-19T08:24:29.630Z</time>
      </trkpt>
      <trkpt lat="45.15359" lon="6.01855">
        <ele>1926.8</ele>
        <time>2015-02-19T08:24:38.630Z</time>
      </trkpt>
      <trkpt lat="45.15361" lon="6.01849">
        <ele>1928.2</ele>
        <time>2015-02-19T08:24:45.630Z</time>
      </trkpt>
      <trkpt lat="45.15362" lon="6.01842">
        <ele>1929.8</ele>
        <time>2015-02-19T08:24:53.630Z</time>
      </trkpt>
      <trkpt lat="45.15366" lon="6.01837">
        <ele>1931.1</ele>
        <time>2015-02-19T08:25:00.630Z</time>
      </trkpt>
      <trkpt lat="45.15369" lon="6.0183">
        <ele>1931.9</ele>
        <time>2015-02-19T08:25:08.630Z</time>
      </trkpt>
      <trkpt lat="45.15369" lon="6.01821">
        <ele>1934.8</ele>
        <time>2015-02-19T08:25:23.630Z</time>
      </trkpt>
      <trkpt lat="45.15369" lon="6.01814">
        <ele>1935.8</ele>
        <time>2015-02-19T08:25:28.630Z</time>
      </trkpt>
      <trkpt lat="45.1537" lon="6.01807">
        <ele>1936</ele>
        <time>2015-02-19T08:25:34.630Z</time>
      </trkpt>
      <trkpt lat="45.15372" lon="6.01801">
        <ele>1936.1</ele>
        <time>2015-02-19T08:25:40.370Z</time>
      </trkpt>
      <trkpt lat="45.15375" lon="6.01795">
        <ele>1936.8</ele>
        <time>2015-02-19T08:25:47.370Z</time>
      </trkpt>
      <trkpt lat="45.15379" lon="6.0179">
        <ele>1938</ele>
        <time>2015-02-19T08:25:54.630Z</time>
      </trkpt>
      <trkpt lat="45.15382" lon="6.01783">
        <ele>1939.6</ele>
        <time>2015-02-19T08:26:01.630Z</time>
      </trkpt>
      <trkpt lat="45.15383" lon="6.01775">
        <ele>1941.9</ele>
        <time>2015-02-19T08:26:09.630Z</time>
      </trkpt>
      <trkpt lat="45.15385" lon="6.01769">
        <ele>1944.4</ele>
        <time>2015-02-19T08:26:17.630Z</time>
      </trkpt>
      <trkpt lat="45.15387" lon="6.01761">
        <ele>1945.5</ele>
        <time>2015-02-19T08:26:24.630Z</time>
      </trkpt>
      <trkpt lat="45.15388" lon="6.01754">
        <ele>1946</ele>
        <time>2015-02-19T08:26:31.630Z</time>
      </trkpt>
      <trkpt lat="45.15391" lon="6.01744">
        <ele>1946.3</ele>
        <time>2015-02-19T08:26:42.630Z</time>
      </trkpt>
      <trkpt lat="45.15395" lon="6.01734">
        <ele>1947.5</ele>
        <time>2015-02-19T08:26:54.630Z</time>
      </trkpt>
      <trkpt lat="45.15398" lon="6.01727">
        <ele>1948.3</ele>
        <time>2015-02-19T08:27:02.630Z</time>
      </trkpt>
      <trkpt lat="45.15401" lon="6.0172">
        <ele>1949.2</ele>
        <time>2015-02-19T08:27:11.630Z</time>
      </trkpt>
      <trkpt lat="45.15404" lon="6.01714">
        <ele>1950.2</ele>
        <time>2015-02-19T08:27:21.630Z</time>
      </trkpt>
      <trkpt lat="45.15407" lon="6.01708">
        <ele>1950.8</ele>
        <time>2015-02-19T08:27:27.650Z</time>
      </trkpt>
      <trkpt lat="45.15409" lon="6.01703">
        <ele>1951.3</ele>
        <time>2015-02-19T08:27:32.630Z</time>
      </trkpt>
      <trkpt lat="45.15412" lon="6.01695">
        <ele>1952.1</ele>
        <time>2015-02-19T08:27:40.630Z</time>
      </trkpt>
      <trkpt lat="45.1541" lon="6.01689">
        <ele>1954</ele>
        <time>2015-02-19T08:28:08.630Z</time>
      </trkpt>
      <trkpt lat="45.15406" lon="6.01683">
        <ele>1954</ele>
        <time>2015-02-19T08:28:30.630Z</time>
      </trkpt>
      <trkpt lat="45.15404" lon="6.01677">
        <ele>1954</ele>
        <time>2015-02-19T08:28:38.630Z</time>
      </trkpt>
      <trkpt lat="45.15403" lon="6.0167">
        <ele>1956.1</ele>
        <time>2015-02-19T08:28:46.630Z</time>
      </trkpt>
      <trkpt lat="45.15401" lon="6.01663">
        <ele>1958</ele>
        <time>2015-02-19T08:28:54.630Z</time>
      </trkpt>
      <trkpt lat="45.15398" lon="6.01656">
        <ele>1959.3</ele>
        <time>2015-02-19T08:29:02.630Z</time>
      </trkpt>
      <trkpt lat="45.15395" lon="6.01651">
        <ele>1959.9</ele>
        <time>2015-02-19T08:29:08.630Z</time>
      </trkpt>
      <trkpt lat="45.15392" lon="6.01645">
        <ele>1960.9</ele>
        <time>2015-02-19T08:29:18.630Z</time>
      </trkpt>
      <trkpt lat="45.15394" lon="6.0164">
        <ele>1963</ele>
        <time>2015-02-19T08:29:55.630Z</time>
      </trkpt>
      <trkpt lat="45.15399" lon="6.01638">
        <ele>1963.9</ele>
        <time>2015-02-19T08:30:02.630Z</time>
      </trkpt>
      <trkpt lat="45.15403" lon="6.01637">
        <ele>1965.7</ele>
        <time>2015-02-19T08:30:08.630Z</time>
      </trkpt>
      <trkpt lat="45.15407" lon="6.01636">
        <ele>1966.5</ele>
        <time>2015-02-19T08:30:14.630Z</time>
      </trkpt>
      <trkpt lat="45.15412" lon="6.01635">
        <ele>1968.2</ele>
        <time>2015-02-19T08:30:23.650Z</time>
      </trkpt>
      <trkpt lat="45.15417" lon="6.01632">
        <ele>1970.8</ele>
        <time>2015-02-19T08:30:33.630Z</time>
      </trkpt>
      <trkpt lat="45.15421" lon="6.01631">
        <ele>1971.8</ele>
        <time>2015-02-19T08:30:38.630Z</time>
      </trkpt>
      <trkpt lat="45.15427" lon="6.0163">
        <ele>1973.4</ele>
        <time>2015-02-19T08:30:46.630Z</time>
      </trkpt>
      <trkpt lat="45.15433" lon="6.01629">
        <ele>1974</ele>
        <time>2015-02-19T08:30:57.630Z</time>
      </trkpt>
      <trkpt lat="45.15439" lon="6.01629">
        <ele>1974.8</ele>
        <time>2015-02-19T08:31:07.630Z</time>
      </trkpt>
      <trkpt lat="45.15443" lon="6.01623">
        <ele>1980.5</ele>
        <time>2015-02-19T08:31:34.630Z</time>
      </trkpt>
      <trkpt lat="45.1544" lon="6.01615">
        <ele>1983</ele>
        <time>2015-02-19T08:31:58.630Z</time>
      </trkpt>
      <trkpt lat="45.15437" lon="6.01611">
        <ele>1983</ele>
        <time>2015-02-19T08:32:05.630Z</time>
      </trkpt>
      <trkpt lat="45.15433" lon="6.01607">
        <ele>1983.6</ele>
        <time>2015-02-19T08:32:11.640Z</time>
      </trkpt>
      <trkpt lat="45.15428" lon="6.01603">
        <ele>1986.2</ele>
        <time>2015-02-19T08:32:20.630Z</time>
      </trkpt>
      <trkpt lat="45.15432" lon="6.01599">
        <ele>1988</ele>
        <time>2015-02-19T08:32:36.630Z</time>
      </trkpt>
      <trkpt lat="45.15436" lon="6.01597">
        <ele>1988.4</ele>
        <time>2015-02-19T08:32:43.630Z</time>
      </trkpt>
      <trkpt lat="45.15441" lon="6.01594">
        <ele>1989.2</ele>
        <time>2015-02-19T08:32:50.630Z</time>
      </trkpt>
      <trkpt lat="45.15446" lon="6.01593">
        <ele>1991</ele>
        <time>2015-02-19T08:32:59.630Z</time>
      </trkpt>
      <trkpt lat="45.15452" lon="6.01593">
        <ele>1993.2</ele>
        <time>2015-02-19T08:33:11.630Z</time>
      </trkpt>
      <trkpt lat="45.1546" lon="6.01599">
        <ele>1996.7</ele>
        <time>2015-02-19T08:33:28.630Z</time>
      </trkpt>
      <trkpt lat="45.15462" lon="6.01591">
        <ele>1998.8</ele>
        <time>2015-02-19T08:33:48.630Z</time>
      </trkpt>
      <trkpt lat="45.1546" lon="6.01582">
        <ele>2000.1</ele>
        <time>2015-02-19T08:34:00.630Z</time>
      </trkpt>
      <trkpt lat="45.15455" lon="6.01576">
        <ele>2001.3</ele>
        <time>2015-02-19T08:34:10.630Z</time>
      </trkpt>
      <trkpt lat="45.15449" lon="6.0157">
        <ele>2004.6</ele>
        <time>2015-02-19T08:34:22.630Z</time>
      </trkpt>
      <trkpt lat="45.15445" lon="6.01568">
        <ele>2006</ele>
        <time>2015-02-19T08:34:29.630Z</time>
      </trkpt>
      <trkpt lat="45.15439" lon="6.01565">
        <ele>2006</ele>
        <time>2015-02-19T08:34:36.630Z</time>
      </trkpt>
      <trkpt lat="45.15443" lon="6.0156">
        <ele>2008</ele>
        <time>2015-02-19T08:34:54.630Z</time>
      </trkpt>
      <trkpt lat="45.15449" lon="6.01558">
        <ele>2009.5</ele>
        <time>2015-02-19T08:35:04.630Z</time>
      </trkpt>
      <trkpt lat="45.15455" lon="6.01556">
        <ele>2010.6</ele>
        <time>2015-02-19T08:35:15.630Z</time>
      </trkpt>
      <trkpt lat="45.15461" lon="6.01558">
        <ele>2011.7</ele>
        <time>2015-02-19T08:35:26.640Z</time>
      </trkpt>
      <trkpt lat="45.15456" lon="6.01551">
        <ele>2014.5</ele>
        <time>2015-02-19T08:35:44.630Z</time>
      </trkpt>
      <trkpt lat="45.15451" lon="6.01547">
        <ele>2016.5</ele>
        <time>2015-02-19T08:35:54.630Z</time>
      </trkpt>
      <trkpt lat="45.15446" lon="6.01545">
        <ele>2018</ele>
        <time>2015-02-19T08:36:03.630Z</time>
      </trkpt>
      <trkpt lat="45.1545" lon="6.0154">
        <ele>2020</ele>
        <time>2015-02-19T08:36:19.630Z</time>
      </trkpt>
      <trkpt lat="45.15455" lon="6.01538">
        <ele>2020</ele>
        <time>2015-02-19T08:36:26.630Z</time>
      </trkpt>
      <trkpt lat="45.15461" lon="6.01537">
        <ele>2021.2</ele>
        <time>2015-02-19T08:36:35.630Z</time>
      </trkpt>
      <trkpt lat="45.15466" lon="6.01538">
        <ele>2022.4</ele>
        <time>2015-02-19T08:36:43.630Z</time>
      </trkpt>
      <trkpt lat="45.15471" lon="6.0154">
        <ele>2024.4</ele>
        <time>2015-02-19T08:36:56.630Z</time>
      </trkpt>
      <trkpt lat="45.15476" lon="6.01547">
        <ele>2027</ele>
        <time>2015-02-19T08:37:09.630Z</time>
      </trkpt>
      <trkpt lat="45.15481" lon="6.01552">
        <ele>2029.3</ele>
        <time>2015-02-19T08:37:32.630Z</time>
      </trkpt>
      <trkpt lat="45.15483" lon="6.01542">
        <ele>2030.5</ele>
        <time>2015-02-19T08:37:44.630Z</time>
      </trkpt>
      <trkpt lat="45.15481" lon="6.01532">
        <ele>2032.6</ele>
        <time>2015-02-19T08:37:57.630Z</time>
      </trkpt>
      <trkpt lat="45.1548" lon="6.01523">
        <ele>2033.9</ele>
        <time>2015-02-19T08:38:08.630Z</time>
      </trkpt>
      <trkpt lat="45.15481" lon="6.01513">
        <ele>2036</ele>
        <time>2015-02-19T08:38:19.630Z</time>
      </trkpt>
      <trkpt lat="45.15479" lon="6.01506">
        <ele>2038</ele>
        <time>2015-02-19T08:38:29.630Z</time>
      </trkpt>
      <trkpt lat="45.15473" lon="6.01501">
        <ele>2039</ele>
        <time>2015-02-19T08:38:39.630Z</time>
      </trkpt>
      <trkpt lat="45.15467" lon="6.01498">
        <ele>2039</ele>
        <time>2015-02-19T08:38:47.730Z</time>
      </trkpt>
      <trkpt lat="45.15462" lon="6.01497">
        <ele>2040.5</ele>
        <time>2015-02-19T08:38:54.730Z</time>
      </trkpt>
      <trkpt lat="45.15452" lon="6.01496">
        <ele>2043.8</ele>
        <time>2015-02-19T08:39:08.730Z</time>
      </trkpt>
      <trkpt lat="45.15448" lon="6.01492">
        <ele>2044</ele>
        <time>2015-02-19T08:39:16.730Z</time>
      </trkpt>
      <trkpt lat="45.15445" lon="6.01485">
        <ele>2047</ele>
        <time>2015-02-19T08:40:26.730Z</time>
      </trkpt>
      <trkpt lat="45.15447" lon="6.01479">
        <ele>2047</ele>
        <time>2015-02-19T08:40:33.730Z</time>
      </trkpt>
      <trkpt lat="45.15448" lon="6.01472">
        <ele>2047.3</ele>
        <time>2015-02-19T08:40:42.730Z</time>
      </trkpt>
      <trkpt lat="45.15449" lon="6.01465">
        <ele>2048.1</ele>
        <time>2015-02-19T08:40:50.730Z</time>
      </trkpt>
      <trkpt lat="45.15454" lon="6.01467">
        <ele>2049.4</ele>
        <time>2015-02-19T08:41:00.730Z</time>
      </trkpt>
      <trkpt lat="45.15458" lon="6.01471">
        <ele>2052.2</ele>
        <time>2015-02-19T08:41:07.730Z</time>
      </trkpt>
      <trkpt lat="45.15464" lon="6.0147">
        <ele>2053.6</ele>
        <time>2015-02-19T08:41:21.730Z</time>
      </trkpt>
      <trkpt lat="45.15464" lon="6.01461">
        <ele>2056.3</ele>
        <time>2015-02-19T08:41:32.730Z</time>
      </trkpt>
      <trkpt lat="45.15465" lon="6.01455">
        <ele>2057</ele>
        <time>2015-02-19T08:41:39.730Z</time>
      </trkpt>
      <trkpt lat="45.15465" lon="6.01448">
        <ele>2057</ele>
        <time>2015-02-19T08:41:48.730Z</time>
      </trkpt>
      <trkpt lat="45.15464" lon="6.01441">
        <ele>2060.2</ele>
        <time>2015-02-19T08:41:57.730Z</time>
      </trkpt>
      <trkpt lat="45.15463" lon="6.01435">
        <ele>2061.5</ele>
        <time>2015-02-19T08:42:04.730Z</time>
      </trkpt>
      <trkpt lat="45.15464" lon="6.01427">
        <ele>2062.4</ele>
        <time>2015-02-19T08:42:13.730Z</time>
      </trkpt>
      <trkpt lat="45.15468" lon="6.01422">
        <ele>2063.9</ele>
        <time>2015-02-19T08:42:22.730Z</time>
      </trkpt>
      <trkpt lat="45.15473" lon="6.01418">
        <ele>2066.3</ele>
        <time>2015-02-19T08:42:32.730Z</time>
      </trkpt>
      <trkpt lat="45.15477" lon="6.01414">
        <ele>2067.2</ele>
        <time>2015-02-19T08:42:41.730Z</time>
      </trkpt>
      <trkpt lat="45.15481" lon="6.01409">
        <ele>2068.2</ele>
        <time>2015-02-19T08:42:50.730Z</time>
      </trkpt>
      <trkpt lat="45.15486" lon="6.01405">
        <ele>2070.3</ele>
        <time>2015-02-19T08:43:02.730Z</time>
      </trkpt>
      <trkpt lat="45.15483" lon="6.01399">
        <ele>2072.8</ele>
        <time>2015-02-19T08:43:15.730Z</time>
      </trkpt>
      <trkpt lat="45.15478" lon="6.01393">
        <ele>2074</ele>
        <time>2015-02-19T08:43:26.730Z</time>
      </trkpt>
      <trkpt lat="45.15474" lon="6.01387">
        <ele>2074.8</ele>
        <time>2015-02-19T08:43:37.730Z</time>
      </trkpt>
      <trkpt lat="45.1547" lon="6.01382">
        <ele>2077.1</ele>
        <time>2015-02-19T08:43:46.730Z</time>
      </trkpt>
      <trkpt lat="45.15467" lon="6.01376">
        <ele>2078.8</ele>
        <time>2015-02-19T08:43:53.730Z</time>
      </trkpt>
      <trkpt lat="45.15468" lon="6.01367">
        <ele>2081</ele>
        <time>2015-02-19T08:44:04.730Z</time>
      </trkpt>
      <trkpt lat="45.15473" lon="6.01363">
        <ele>2082</ele>
        <time>2015-02-19T08:44:13.730Z</time>
      </trkpt>
      <trkpt lat="45.15478" lon="6.0136">
        <ele>2082.6</ele>
        <time>2015-02-19T08:44:21.730Z</time>
      </trkpt>
      <trkpt lat="45.15483" lon="6.01359">
        <ele>2085.2</ele>
        <time>2015-02-19T08:44:30.730Z</time>
      </trkpt>
      <trkpt lat="45.15487" lon="6.01357">
        <ele>2086.4</ele>
        <time>2015-02-19T08:44:36.730Z</time>
      </trkpt>
      <trkpt lat="45.15491" lon="6.01356">
        <ele>2087</ele>
        <time>2015-02-19T08:44:44.730Z</time>
      </trkpt>
      <trkpt lat="45.15499" lon="6.01352">
        <ele>2090</ele>
        <time>2015-02-19T08:45:01.730Z</time>
      </trkpt>
      <trkpt lat="45.15502" lon="6.01349">
        <ele>2090</ele>
        <time>2015-02-19T08:45:09.730Z</time>
      </trkpt>
      <trkpt lat="45.15501" lon="6.01343">
        <ele>2092.4</ele>
        <time>2015-02-19T08:45:17.730Z</time>
      </trkpt>
      <trkpt lat="45.155" lon="6.01338">
        <ele>2093.3</ele>
        <time>2015-02-19T08:45:22.730Z</time>
      </trkpt>
      <trkpt lat="45.15497" lon="6.01328">
        <ele>2094.6</ele>
        <time>2015-02-19T08:45:35.730Z</time>
      </trkpt>
      <trkpt lat="45.15495" lon="6.01322">
        <ele>2095.8</ele>
        <time>2015-02-19T08:45:43.730Z</time>
      </trkpt>
      <trkpt lat="45.15493" lon="6.01317">
        <ele>2097</ele>
        <time>2015-02-19T08:45:49.730Z</time>
      </trkpt>
      <trkpt lat="45.15492" lon="6.01311">
        <ele>2097.6</ele>
        <time>2015-02-19T08:45:55.730Z</time>
      </trkpt>
      <trkpt lat="45.15491" lon="6.01306">
        <ele>2098.2</ele>
        <time>2015-02-19T08:46:01.730Z</time>
      </trkpt>
      <trkpt lat="45.15489" lon="6.01299">
        <ele>2098.9</ele>
        <time>2015-02-19T08:46:08.730Z</time>
      </trkpt>
      <trkpt lat="45.15487" lon="6.01293">
        <ele>2100.2</ele>
        <time>2015-02-19T08:46:15.730Z</time>
      </trkpt>
      <trkpt lat="45.15484" lon="6.01289">
        <ele>2101.9</ele>
        <time>2015-02-19T08:46:22.730Z</time>
      </trkpt>
      <trkpt lat="45.1548" lon="6.01284">
        <ele>2104</ele>
        <time>2015-02-19T08:46:32.730Z</time>
      </trkpt>
      <trkpt lat="45.15476" lon="6.01277">
        <ele>2104.6</ele>
        <time>2015-02-19T08:46:42.730Z</time>
      </trkpt>
      <trkpt lat="45.15475" lon="6.01271">
        <ele>2106</ele>
        <time>2015-02-19T08:46:49.730Z</time>
      </trkpt>
      <trkpt lat="45.15473" lon="6.01266">
        <ele>2106.7</ele>
        <time>2015-02-19T08:46:56.730Z</time>
      </trkpt>
      <trkpt lat="45.1547" lon="6.01258">
        <ele>2109.1</ele>
        <time>2015-02-19T08:47:06.730Z</time>
      </trkpt>
      <trkpt lat="45.15467" lon="6.01253">
        <ele>2110</ele>
        <time>2015-02-19T08:47:13.730Z</time>
      </trkpt>
      <trkpt lat="45.15465" lon="6.01246">
        <ele>2110.6</ele>
        <time>2015-02-19T08:47:22.730Z</time>
      </trkpt>
      <trkpt lat="45.15462" lon="6.01239">
        <ele>2112.2</ele>
        <time>2015-02-19T08:47:31.730Z</time>
      </trkpt>
      <trkpt lat="45.15459" lon="6.01231">
        <ele>2113.4</ele>
        <time>2015-02-19T08:47:41.750Z</time>
      </trkpt>
      <trkpt lat="45.15457" lon="6.01225">
        <ele>2115</ele>
        <time>2015-02-19T08:47:49.730Z</time>
      </trkpt>
      <trkpt lat="45.15454" lon="6.01221">
        <ele>2117.1</ele>
        <time>2015-02-19T08:47:56.730Z</time>
      </trkpt>
      <trkpt lat="45.15449" lon="6.01217">
        <ele>2118</ele>
        <time>2015-02-19T08:48:04.730Z</time>
      </trkpt>
      <trkpt lat="45.15452" lon="6.01205">
        <ele>2121</ele>
        <time>2015-02-19T08:48:19.730Z</time>
      </trkpt>
      <trkpt lat="45.15453" lon="6.01198">
        <ele>2121.9</ele>
        <time>2015-02-19T08:48:28.730Z</time>
      </trkpt>
      <trkpt lat="45.15455" lon="6.0119">
        <ele>2123.9</ele>
        <time>2015-02-19T08:48:48.730Z</time>
      </trkpt>
      <trkpt lat="45.15455" lon="6.01181">
        <ele>2124</ele>
        <time>2015-02-19T08:48:56.730Z</time>
      </trkpt>
      <trkpt lat="45.15455" lon="6.01175">
        <ele>2124.2</ele>
        <time>2015-02-19T08:49:01.730Z</time>
      </trkpt>
      <trkpt lat="45.15454" lon="6.0117">
        <ele>2124.6</ele>
        <time>2015-02-19T08:49:05.730Z</time>
      </trkpt>
      <trkpt lat="45.15453" lon="6.01161">
        <ele>2125</ele>
        <time>2015-02-19T08:49:13.730Z</time>
      </trkpt>
      <trkpt lat="45.15452" lon="6.01151">
        <ele>2125</ele>
        <time>2015-02-19T08:49:22.730Z</time>
      </trkpt>
      <trkpt lat="45.1545" lon="6.0114">
        <ele>2126</ele>
        <time>2015-02-19T08:49:34.730Z</time>
      </trkpt>
      <trkpt lat="45.1545" lon="6.0113">
        <ele>2128</ele>
        <time>2015-02-19T08:49:51.730Z</time>
      </trkpt>
      <trkpt lat="45.15449" lon="6.01119">
        <ele>2128.2</ele>
        <time>2015-02-19T08:50:00.730Z</time>
      </trkpt>
      <trkpt lat="45.15447" lon="6.01108">
        <ele>2130</ele>
        <time>2015-02-19T08:50:09.730Z</time>
      </trkpt>
      <trkpt lat="45.15445" lon="6.01098">
        <ele>2130</ele>
        <time>2015-02-19T08:50:18.730Z</time>
      </trkpt>
      <trkpt lat="45.15444" lon="6.0109">
        <ele>2131.4</ele>
        <time>2015-02-19T08:50:26.730Z</time>
      </trkpt>
      <trkpt lat="45.15443" lon="6.01083">
        <ele>2133</ele>
        <time>2015-02-19T08:50:39.730Z</time>
      </trkpt>
      <trkpt lat="45.15442" lon="6.01075">
        <ele>2133.8</ele>
        <time>2015-02-19T08:50:47.730Z</time>
      </trkpt>
      <trkpt lat="45.15441" lon="6.01066">
        <ele>2134</ele>
        <time>2015-02-19T08:50:54.730Z</time>
      </trkpt>
      <trkpt lat="45.1544" lon="6.01058">
        <ele>2134.2</ele>
        <time>2015-02-19T08:51:01.730Z</time>
      </trkpt>
      <trkpt lat="45.15438" lon="6.01051">
        <ele>2134.8</ele>
        <time>2015-02-19T08:51:07.730Z</time>
      </trkpt>
      <trkpt lat="45.15437" lon="6.01043">
        <ele>2135.5</ele>
        <time>2015-02-19T08:51:14.730Z</time>
      </trkpt>
      <trkpt lat="45.15439" lon="6.01035">
        <ele>2136.3</ele>
        <time>2015-02-19T08:51:22.730Z</time>
      </trkpt>
      <trkpt lat="45.15439" lon="6.01027">
        <ele>2137.2</ele>
        <time>2015-02-19T08:51:30.730Z</time>
      </trkpt>
      <trkpt lat="45.15439" lon="6.0102">
        <ele>2138.6</ele>
        <time>2015-02-19T08:51:37.730Z</time>
      </trkpt>
      <trkpt lat="45.15437" lon="6.01013">
        <ele>2140</ele>
        <time>2015-02-19T08:51:44.730Z</time>
      </trkpt>
      <trkpt lat="45.15435" lon="6.01007">
        <ele>2141.2</ele>
        <time>2015-02-19T08:51:51.730Z</time>
      </trkpt>
      <trkpt lat="45.15432" lon="6.01001">
        <ele>2142</ele>
        <time>2015-02-19T08:51:59.730Z</time>
      </trkpt>
      <trkpt lat="45.15428" lon="6.00994">
        <ele>2144.7</ele>
        <time>2015-02-19T08:52:08.730Z</time>
      </trkpt>
      <trkpt lat="45.15425" lon="6.00986">
        <ele>2145.7</ele>
        <time>2015-02-19T08:52:16.760Z</time>
      </trkpt>
      <trkpt lat="45.15422" lon="6.00979">
        <ele>2147.4</ele>
        <time>2015-02-19T08:52:26.730Z</time>
      </trkpt>
      <trkpt lat="45.15416" lon="6.00973">
        <ele>2148.8</ele>
        <time>2015-02-19T08:52:37.740Z</time>
      </trkpt>
      <trkpt lat="45.15414" lon="6.00968">
        <ele>2151.7</ele>
        <time>2015-02-19T08:52:48.730Z</time>
      </trkpt>
      <trkpt lat="45.15414" lon="6.00961">
        <ele>2152.4</ele>
        <time>2015-02-19T08:52:53.730Z</time>
      </trkpt>
      <trkpt lat="45.15414" lon="6.00954">
        <ele>2153.2</ele>
        <time>2015-02-19T08:53:01.730Z</time>
      </trkpt>
      <trkpt lat="45.15416" lon="6.00946">
        <ele>2154</ele>
        <time>2015-02-19T08:53:09.730Z</time>
      </trkpt>
      <trkpt lat="45.15417" lon="6.0094">
        <ele>2154.8</ele>
        <time>2015-02-19T08:53:17.730Z</time>
      </trkpt>
      <trkpt lat="45.15418" lon="6.00933">
        <ele>2157.4</ele>
        <time>2015-02-19T08:53:25.730Z</time>
      </trkpt>
      <trkpt lat="45.15417" lon="6.00924">
        <ele>2159.5</ele>
        <time>2015-02-19T08:53:44.730Z</time>
      </trkpt>
      <trkpt lat="45.15412" lon="6.00918">
        <ele>2161.8</ele>
        <time>2015-02-19T08:53:55.730Z</time>
      </trkpt>
      <trkpt lat="45.1541" lon="6.0091">
        <ele>2164</ele>
        <time>2015-02-19T08:54:04.730Z</time>
      </trkpt>
      <trkpt lat="45.15408" lon="6.00904">
        <ele>2165.4</ele>
        <time>2015-02-19T08:54:11.730Z</time>
      </trkpt>
      <trkpt lat="45.15409" lon="6.00897">
        <ele>2167</ele>
        <time>2015-02-19T08:54:19.560Z</time>
      </trkpt>
      <trkpt lat="45.15412" lon="6.00892">
        <ele>2169.7</ele>
        <time>2015-02-19T08:54:28.730Z</time>
      </trkpt>
      <trkpt lat="45.15416" lon="6.00885">
        <ele>2170.9</ele>
        <time>2015-02-19T08:54:38.730Z</time>
      </trkpt>
      <trkpt lat="45.1542" lon="6.0088">
        <ele>2171.8</ele>
        <time>2015-02-19T08:54:47.730Z</time>
      </trkpt>
      <trkpt lat="45.15425" lon="6.00875">
        <ele>2172.8</ele>
        <time>2015-02-19T08:54:57.730Z</time>
      </trkpt>
      <trkpt lat="45.15431" lon="6.00871">
        <ele>2176.6</ele>
        <time>2015-02-19T08:55:12.730Z</time>
      </trkpt>
      <trkpt lat="45.15436" lon="6.00867">
        <ele>2178.5</ele>
        <time>2015-02-19T08:55:24.730Z</time>
      </trkpt>
      <trkpt lat="45.15434" lon="6.0086">
        <ele>2181.2</ele>
        <time>2015-02-19T08:55:43.730Z</time>
      </trkpt>
      <trkpt lat="45.15431" lon="6.00855">
        <ele>2183</ele>
        <time>2015-02-19T08:55:52.730Z</time>
      </trkpt>
      <trkpt lat="45.15428" lon="6.00851">
        <ele>2183.6</ele>
        <time>2015-02-19T08:56:01.730Z</time>
      </trkpt>
      <trkpt lat="45.15423" lon="6.00846">
        <ele>2186.4</ele>
        <time>2015-02-19T08:56:11.730Z</time>
      </trkpt>
      <trkpt lat="45.15419" lon="6.00842">
        <ele>2188.1</ele>
        <time>2015-02-19T08:56:20.730Z</time>
      </trkpt>
      <trkpt lat="45.15412" lon="6.00835">
        <ele>2189.8</ele>
        <time>2015-02-19T08:56:33.730Z</time>
      </trkpt>
      <trkpt lat="45.15408" lon="6.00832">
        <ele>2191.6</ele>
        <time>2015-02-19T08:56:41.730Z</time>
      </trkpt>
      <trkpt lat="45.15413" lon="6.00826">
        <ele>2194</ele>
        <time>2015-02-19T08:56:54.730Z</time>
      </trkpt>
      <trkpt lat="45.15419" lon="6.0082">
        <ele>2196.8</ele>
        <time>2015-02-19T08:57:06.730Z</time>
      </trkpt>
      <trkpt lat="45.15422" lon="6.00816">
        <ele>2198.4</ele>
        <time>2015-02-19T08:57:13.730Z</time>
      </trkpt>
      <trkpt lat="45.15428" lon="6.00812">
        <ele>2200</ele>
        <time>2015-02-19T08:57:24.730Z</time>
      </trkpt>
      <trkpt lat="45.15433" lon="6.0081">
        <ele>2201</ele>
        <time>2015-02-19T08:57:32.730Z</time>
      </trkpt>
      <trkpt lat="45.15429" lon="6.00805">
        <ele>2203.4</ele>
        <time>2015-02-19T08:57:47.730Z</time>
      </trkpt>
      <trkpt lat="45.15424" lon="6.00801">
        <ele>2204.6</ele>
        <time>2015-02-19T08:58:01.730Z</time>
      </trkpt>
      <trkpt lat="45.1542" lon="6.00795">
        <ele>2207.1</ele>
        <time>2015-02-19T08:58:10.730Z</time>
      </trkpt>
      <trkpt lat="45.15414" lon="6.00793">
        <ele>2207.9</ele>
        <time>2015-02-19T08:58:18.730Z</time>
      </trkpt>
      <trkpt lat="45.15409" lon="6.0079">
        <ele>2210.7</ele>
        <time>2015-02-19T08:58:28.730Z</time>
      </trkpt>
      <trkpt lat="45.15403" lon="6.00789">
        <ele>2211.8</ele>
        <time>2015-02-19T08:58:37.730Z</time>
      </trkpt>
      <trkpt lat="45.15397" lon="6.00786">
        <ele>2212.9</ele>
        <time>2015-02-19T08:58:48.740Z</time>
      </trkpt>
      <trkpt lat="45.15402" lon="6.00778">
        <ele>2216.7</ele>
        <time>2015-02-19T08:59:06.730Z</time>
      </trkpt>
      <trkpt lat="45.15405" lon="6.00771">
        <ele>2217.8</ele>
        <time>2015-02-19T08:59:17.730Z</time>
      </trkpt>
      <trkpt lat="45.15408" lon="6.00766">
        <ele>2218.6</ele>
        <time>2015-02-19T08:59:25.730Z</time>
      </trkpt>
      <trkpt lat="45.15413" lon="6.00763">
        <ele>2220.8</ele>
        <time>2015-02-19T08:59:35.730Z</time>
      </trkpt>
      <trkpt lat="45.15414" lon="6.00752">
        <ele>2226.6</ele>
        <time>2015-02-19T09:00:11.630Z</time>
      </trkpt>
      <trkpt lat="45.15409" lon="6.00747">
        <ele>2229.1</ele>
        <time>2015-02-19T09:00:20.630Z</time>
      </trkpt>
      <trkpt lat="45.15405" lon="6.00741">
        <ele>2230.2</ele>
        <time>2015-02-19T09:00:30.630Z</time>
      </trkpt>
      <trkpt lat="45.154" lon="6.00737">
        <ele>2232.5</ele>
        <time>2015-02-19T09:01:04.630Z</time>
      </trkpt>
      <trkpt lat="45.15396" lon="6.00732">
        <ele>2233.8</ele>
        <time>2015-02-19T09:01:13.630Z</time>
      </trkpt>
      <trkpt lat="45.15392" lon="6.00729">
        <ele>2235.2</ele>
        <time>2015-02-19T09:01:21.630Z</time>
      </trkpt>
      <trkpt lat="45.15388" lon="6.00726">
        <ele>2236.3</ele>
        <time>2015-02-19T09:01:30.630Z</time>
      </trkpt>
      <trkpt lat="45.15383" lon="6.00723">
        <ele>2238.7</ele>
        <time>2015-02-19T09:01:38.630Z</time>
      </trkpt>
      <trkpt lat="45.15383" lon="6.00716">
        <ele>2239</ele>
        <time>2015-02-19T09:01:49.630Z</time>
      </trkpt>
      <trkpt lat="45.15387" lon="6.0071">
        <ele>2242.5</ele>
        <time>2015-02-19T09:01:58.630Z</time>
      </trkpt>
      <trkpt lat="45.15393" lon="6.00702">
        <ele>2245</ele>
        <time>2015-02-19T09:02:14.630Z</time>
      </trkpt>
      <trkpt lat="45.15401" lon="6.00693">
        <ele>2248.3</ele>
        <time>2015-02-19T09:02:30.630Z</time>
      </trkpt>
      <trkpt lat="45.15409" lon="6.00686">
        <ele>2252.8</ele>
        <time>2015-02-19T09:02:48.630Z</time>
      </trkpt>
      <trkpt lat="45.1541" lon="6.00677">
        <ele>2256.7</ele>
        <time>2015-02-19T09:03:18.630Z</time>
      </trkpt>
      <trkpt lat="45.15405" lon="6.00667">
        <ele>2259.8</ele>
        <time>2015-02-19T09:03:32.630Z</time>
      </trkpt>
      <trkpt lat="45.154" lon="6.00659">
        <ele>2264.4</ele>
        <time>2015-02-19T09:03:53.630Z</time>
      </trkpt>
      <trkpt lat="45.15396" lon="6.00652">
        <ele>2265.6</ele>
        <time>2015-02-19T09:04:02.630Z</time>
      </trkpt>
      <trkpt lat="45.15391" lon="6.00647">
        <ele>2267.6</ele>
        <time>2015-02-19T09:04:12.730Z</time>
      </trkpt>
      <trkpt lat="45.15387" lon="6.00642">
        <ele>2269.1</ele>
        <time>2015-02-19T09:04:20.730Z</time>
      </trkpt>
      <trkpt lat="45.15382" lon="6.00638">
        <ele>2270</ele>
        <time>2015-02-19T09:04:29.730Z</time>
      </trkpt>
      <trkpt lat="45.15376" lon="6.00635">
        <ele>2273</ele>
        <time>2015-02-19T09:04:39.730Z</time>
      </trkpt>
      <trkpt lat="45.1537" lon="6.00633">
        <ele>2274.9</ele>
        <time>2015-02-19T09:04:52.730Z</time>
      </trkpt>
      <trkpt lat="45.15362" lon="6.0063">
        <ele>2278.8</ele>
        <time>2015-02-19T09:05:08.730Z</time>
      </trkpt>
      <trkpt lat="45.15356" lon="6.00628">
        <ele>2279.3</ele>
        <time>2015-02-19T09:05:20.730Z</time>
      </trkpt>
      <trkpt lat="45.15347" lon="6.00629">
        <ele>2283.2</ele>
        <time>2015-02-19T09:05:35.730Z</time>
      </trkpt>
      <trkpt lat="45.15341" lon="6.00632">
        <ele>2285.4</ele>
        <time>2015-02-19T09:05:46.730Z</time>
      </trkpt>
      <trkpt lat="45.15334" lon="6.00632">
        <ele>2286</ele>
        <time>2015-02-19T09:05:58.730Z</time>
      </trkpt>
      <trkpt lat="45.15336" lon="6.00626">
        <ele>2289</ele>
        <time>2015-02-19T09:06:10.730Z</time>
      </trkpt>
      <trkpt lat="45.15338" lon="6.00621">
        <ele>2289</ele>
        <time>2015-02-19T09:06:16.730Z</time>
      </trkpt>
      <trkpt lat="45.15341" lon="6.00613">
        <ele>2291.1</ele>
        <time>2015-02-19T09:06:26.750Z</time>
      </trkpt>
      <trkpt lat="45.15343" lon="6.00605">
        <ele>2293.2</ele>
        <time>2015-02-19T09:06:35.730Z</time>
      </trkpt>
      <trkpt lat="45.15346" lon="6.00599">
        <ele>2294</ele>
        <time>2015-02-19T09:06:44.730Z</time>
      </trkpt>
      <trkpt lat="45.15348" lon="6.00594">
        <ele>2295.5</ele>
        <time>2015-02-19T09:06:54.730Z</time>
      </trkpt>
      <trkpt lat="45.15351" lon="6.0059">
        <ele>2297</ele>
        <time>2015-02-19T09:07:01.730Z</time>
      </trkpt>
      <trkpt lat="45.15353" lon="6.00586">
        <ele>2297</ele>
        <time>2015-02-19T09:07:07.730Z</time>
      </trkpt>
      <trkpt lat="45.15356" lon="6.00581">
        <ele>2298.2</ele>
        <time>2015-02-19T09:07:13.730Z</time>
      </trkpt>
      <trkpt lat="45.15359" lon="6.00577">
        <ele>2300</ele>
        <time>2015-02-19T09:07:19.730Z</time>
      </trkpt>
      <trkpt lat="45.15362" lon="6.00572">
        <ele>2300</ele>
        <time>2015-02-19T09:07:26.730Z</time>
      </trkpt>
      <trkpt lat="45.15365" lon="6.00568">
        <ele>2301.2</ele>
        <time>2015-02-19T09:07:33.730Z</time>
      </trkpt>
      <trkpt lat="45.15368" lon="6.00565">
        <ele>2303</ele>
        <time>2015-02-19T09:07:39.730Z</time>
      </trkpt>
      <trkpt lat="45.15372" lon="6.00563">
        <ele>2304.6</ele>
        <time>2015-02-19T09:07:47.730Z</time>
      </trkpt>
      <trkpt lat="45.15367" lon="6.0055">
        <ele>2309.8</ele>
        <time>2015-02-19T09:08:17.740Z</time>
      </trkpt>
      <trkpt lat="45.15364" lon="6.00544">
        <ele>2311.3</ele>
        <time>2015-02-19T09:08:30.730Z</time>
      </trkpt>
      <trkpt lat="45.15367" lon="6.0054">
        <ele>2313.7</ele>
        <time>2015-02-19T09:08:38.730Z</time>
      </trkpt>
      <trkpt lat="45.15371" lon="6.00536">
        <ele>2314.7</ele>
        <time>2015-02-19T09:08:46.730Z</time>
      </trkpt>
      <trkpt lat="45.15375" lon="6.00533">
        <ele>2315.5</ele>
        <time>2015-02-19T09:08:54.730Z</time>
      </trkpt>
      <trkpt lat="45.15381" lon="6.00531">
        <ele>2317.5</ele>
        <time>2015-02-19T09:09:04.730Z</time>
      </trkpt>
      <trkpt lat="45.15387" lon="6.00533">
        <ele>2320</ele>
        <time>2015-02-19T09:09:14.730Z</time>
      </trkpt>
      <trkpt lat="45.15393" lon="6.00535">
        <ele>2321.8</ele>
        <time>2015-02-19T09:09:23.760Z</time>
      </trkpt>
      <trkpt lat="45.15392" lon="6.00526">
        <ele>2326.6</ele>
        <time>2015-02-19T09:09:45.730Z</time>
      </trkpt>
      <trkpt lat="45.15389" lon="6.00519">
        <ele>2327</ele>
        <time>2015-02-19T09:09:54.730Z</time>
      </trkpt>
      <trkpt lat="45.15387" lon="6.00512">
        <ele>2330</ele>
        <time>2015-02-19T09:10:05.730Z</time>
      </trkpt>
      <trkpt lat="45.15384" lon="6.00504">
        <ele>2332</ele>
        <time>2015-02-19T09:10:19.730Z</time>
      </trkpt>
      <trkpt lat="45.15379" lon="6.00499">
        <ele>2334.1</ele>
        <time>2015-02-19T09:10:30.730Z</time>
      </trkpt>
      <trkpt lat="45.15375" lon="6.00494">
        <ele>2334.8</ele>
        <time>2015-02-19T09:10:37.730Z</time>
      </trkpt>
      <trkpt lat="45.1537" lon="6.00488">
        <ele>2337.7</ele>
        <time>2015-02-19T09:10:48.730Z</time>
      </trkpt>
      <trkpt lat="45.15368" lon="6.00482">
        <ele>2340.4</ele>
        <time>2015-02-19T09:11:01.730Z</time>
      </trkpt>
      <trkpt lat="45.15372" lon="6.00477">
        <ele>2342</ele>
        <time>2015-02-19T09:11:09.730Z</time>
      </trkpt>
      <trkpt lat="45.15376" lon="6.00471">
        <ele>2342</ele>
        <time>2015-02-19T09:11:18.730Z</time>
      </trkpt>
      <trkpt lat="45.15381" lon="6.00469">
        <ele>2344.1</ele>
        <time>2015-02-19T09:11:26.730Z</time>
      </trkpt>
      <trkpt lat="45.15385" lon="6.00466">
        <ele>2345</ele>
        <time>2015-02-19T09:11:34.730Z</time>
      </trkpt>
      <trkpt lat="45.15384" lon="6.0046">
        <ele>2348.4</ele>
        <time>2015-02-19T09:11:51.730Z</time>
      </trkpt>
      <trkpt lat="45.15381" lon="6.00456">
        <ele>2350</ele>
        <time>2015-02-19T09:11:59.730Z</time>
      </trkpt>
      <trkpt lat="45.15377" lon="6.0045">
        <ele>2352</ele>
        <time>2015-02-19T09:12:09.730Z</time>
      </trkpt>
      <trkpt lat="45.15372" lon="6.00445">
        <ele>2353.3</ele>
        <time>2015-02-19T09:12:20.730Z</time>
      </trkpt>
      <trkpt lat="45.15364" lon="6.0044">
        <ele>2357.2</ele>
        <time>2015-02-19T09:12:35.730Z</time>
      </trkpt>
      <trkpt lat="45.15364" lon="6.00433">
        <ele>2359</ele>
        <time>2015-02-19T09:12:49.730Z</time>
      </trkpt>
      <trkpt lat="45.15367" lon="6.00426">
        <ele>2360</ele>
        <time>2015-02-19T09:12:59.730Z</time>
      </trkpt>
      <trkpt lat="45.1537" lon="6.00416">
        <ele>2363.8</ele>
        <time>2015-02-19T09:13:13.730Z</time>
      </trkpt>
      <trkpt lat="45.15372" lon="6.0041">
        <ele>2365</ele>
        <time>2015-02-19T09:13:23.730Z</time>
      </trkpt>
      <trkpt lat="45.15374" lon="6.00401">
        <ele>2369</ele>
        <time>2015-02-19T09:13:39.730Z</time>
      </trkpt>
      <trkpt lat="45.1537" lon="6.00396">
        <ele>2370.8</ele>
        <time>2015-02-19T09:13:48.730Z</time>
      </trkpt>
      <trkpt lat="45.15365" lon="6.00391">
        <ele>2373.1</ele>
        <time>2015-02-19T09:14:00.730Z</time>
      </trkpt>
      <trkpt lat="45.15363" lon="6.00385">
        <ele>2374.2</ele>
        <time>2015-02-19T09:14:10.730Z</time>
      </trkpt>
      <trkpt lat="45.15365" lon="6.00378">
        <ele>2376.6</ele>
        <time>2015-02-19T09:14:22.730Z</time>
      </trkpt>
      <trkpt lat="45.15362" lon="6.00371">
        <ele>2378.6</ele>
        <time>2015-02-19T09:14:35.730Z</time>
      </trkpt>
      <trkpt lat="45.15362" lon="6.00357">
        <ele>2381.2</ele>
        <time>2015-02-19T09:15:57.730Z</time>
      </trkpt>
      <trkpt lat="45.15361" lon="6.00365">
        <ele>2382</ele>
        <time>2015-02-19T09:16:25.730Z</time>
      </trkpt>
      <trkpt lat="45.15354" lon="6.00367">
        <ele>2381</ele>
        <time>2015-02-19T09:17:47.860Z</time>
      </trkpt>
      <trkpt lat="45.15352" lon="6.00356">
        <ele>2381.7</ele>
        <time>2015-02-19T09:18:43.480Z</time>
      </trkpt>
      <trkpt lat="45.15347" lon="6.00349">
        <ele>2383.3</ele>
        <time>2015-02-19T09:18:51.480Z</time>
      </trkpt>
      <trkpt lat="45.15341" lon="6.00342">
        <ele>2384.7</ele>
        <time>2015-02-19T09:18:58.380Z</time>
      </trkpt>
      <trkpt lat="45.15336" lon="6.00334">
        <ele>2385</ele>
        <time>2015-02-19T09:19:05.630Z</time>
      </trkpt>
      <trkpt lat="45.15332" lon="6.00326">
        <ele>2385</ele>
        <time>2015-02-19T09:19:12.700Z</time>
      </trkpt>
      <trkpt lat="45.15326" lon="6.00316">
        <ele>2385</ele>
        <time>2015-02-19T09:19:20.700Z</time>
      </trkpt>
      <trkpt lat="45.15319" lon="6.00308">
        <ele>2385</ele>
        <time>2015-02-19T09:19:28.700Z</time>
      </trkpt>
      <trkpt lat="45.15309" lon="6.00302">
        <ele>2385</ele>
        <time>2015-02-19T09:19:39.570Z</time>
      </trkpt>
      <trkpt lat="45.15304" lon="6.00289">
        <ele>2386.8</ele>
        <time>2015-02-19T09:19:52.480Z</time>
      </trkpt>
      <trkpt lat="45.15305" lon="6.00274">
        <ele>2389.7</ele>
        <time>2015-02-19T09:20:03.450Z</time>
      </trkpt>
      <trkpt lat="45.15299" lon="6.00262">
        <ele>2393.6</ele>
        <time>2015-02-19T09:20:22.720Z</time>
      </trkpt>
      <trkpt lat="45.15293" lon="6.00251">
        <ele>2397.2</ele>
        <time>2015-02-19T09:20:41.590Z</time>
      </trkpt>
      <trkpt lat="45.1529" lon="6.00237">
        <ele>2399.3</ele>
        <time>2015-02-19T09:20:56.680Z</time>
      </trkpt>
      <trkpt lat="45.1528" lon="6.00231">
        <ele>2400.9</ele>
        <time>2015-02-19T09:21:09.730Z</time>
      </trkpt>
      <trkpt lat="45.15273" lon="6.00221">
        <ele>2404.9</ele>
        <time>2015-02-19T09:21:34.380Z</time>
      </trkpt>
      <trkpt lat="45.15276" lon="6.00207">
        <ele>2409.4</ele>
        <time>2015-02-19T09:21:48.500Z</time>
      </trkpt>
      <trkpt lat="45.15282" lon="6.00198">
        <ele>2411.1</ele>
        <time>2015-02-19T09:22:00.480Z</time>
      </trkpt>
      <trkpt lat="45.15278" lon="6.00186">
        <ele>2414</ele>
        <time>2015-02-19T09:22:25.130Z</time>
      </trkpt>
      <trkpt lat="45.15268" lon="6.00182">
        <ele>2416.2</ele>
        <time>2015-02-19T09:22:36.630Z</time>
      </trkpt>
      <trkpt lat="45.15259" lon="6.00175">
        <ele>2420.2</ele>
        <time>2015-02-19T09:22:51.630Z</time>
      </trkpt>
      <trkpt lat="45.1525" lon="6.00169">
        <ele>2426</ele>
        <time>2015-02-19T09:23:40.630Z</time>
      </trkpt>
      <trkpt lat="45.15245" lon="6.00185">
        <ele>2430.8</ele>
        <time>2015-02-19T09:24:19.630Z</time>
      </trkpt>
      <trkpt lat="45.15235" lon="6.00197">
        <ele>2432.8</ele>
        <time>2015-02-19T09:24:38.630Z</time>
      </trkpt>
      <trkpt lat="45.15228" lon="6.00189">
        <ele>2437.7</ele>
        <time>2015-02-19T09:25:17.830Z</time>
      </trkpt>
      <trkpt lat="45.15226" lon="6.00198">
        <ele>2441.8</ele>
        <time>2015-02-19T09:25:44.830Z</time>
      </trkpt>
      <trkpt lat="45.1522" lon="6.00194">
        <ele>2445.6</ele>
        <time>2015-02-19T09:26:06.830Z</time>
      </trkpt>
      <trkpt lat="45.15211" lon="6.00201">
        <ele>2448.9</ele>
        <time>2015-02-19T09:26:49.830Z</time>
      </trkpt>
      <trkpt lat="45.15201" lon="6.002">
        <ele>2454.6</ele>
        <time>2015-02-19T09:27:42.830Z</time>
      </trkpt>
      <trkpt lat="45.15195" lon="6.00193">
        <ele>2461.5</ele>
        <time>2015-02-19T09:28:35.830Z</time>
      </trkpt>
      <trkpt lat="45.1519" lon="6.00201">
        <ele>2469.7</ele>
        <time>2015-02-19T09:29:27.830Z</time>
      </trkpt>
      <trkpt lat="45.15189" lon="6.00214">
        <ele>2471.1</ele>
        <time>2015-02-19T09:29:41.830Z</time>
      </trkpt>
      <trkpt lat="45.15188" lon="6.00225">
        <ele>2472.2</ele>
        <time>2015-02-19T09:29:52.830Z</time>
      </trkpt>
      <trkpt lat="45.15184" lon="6.00231">
        <ele>2473</ele>
        <time>2015-02-19T09:30:10.830Z</time>
      </trkpt>
      <trkpt lat="45.15181" lon="6.00237">
        <ele>2473</ele>
        <time>2015-02-19T09:31:30.830Z</time>
      </trkpt>
      <trkpt lat="45.15177" lon="6.00243">
        <ele>2471.8</ele>
        <time>2015-02-19T09:38:58.850Z</time>
      </trkpt>
      <trkpt lat="45.15172" lon="6.00248">
        <ele>2470</ele>
        <time>2015-02-19T09:39:34.830Z</time>
      </trkpt>
      <trkpt lat="45.1517" lon="6.00256">
        <ele>2469</ele>
        <time>2015-02-19T09:39:36.830Z</time>
      </trkpt>
      <trkpt lat="45.15166" lon="6.00266">
        <ele>2468</ele>
        <time>2015-02-19T09:39:38.840Z</time>
      </trkpt>
      <trkpt lat="45.15156" lon="6.00276">
        <ele>2467</ele>
        <time>2015-02-19T09:39:40.830Z</time>
      </trkpt>
      <trkpt lat="45.15149" lon="6.00286">
        <ele>2465</ele>
        <time>2015-02-19T09:39:42.830Z</time>
      </trkpt>
      <trkpt lat="45.1514" lon="6.00296">
        <ele>2463</ele>
        <time>2015-02-19T09:39:44.830Z</time>
      </trkpt>
      <trkpt lat="45.15137" lon="6.00309">
        <ele>2461</ele>
        <time>2015-02-19T09:39:46.830Z</time>
      </trkpt>
      <trkpt lat="45.15133" lon="6.00335">
        <ele>2454.7</ele>
        <time>2015-02-19T09:39:52.850Z</time>
      </trkpt>
      <trkpt lat="45.1513" lon="6.00347">
        <ele>2451.4</ele>
        <time>2015-02-19T09:39:55.830Z</time>
      </trkpt>
      <trkpt lat="45.15118" lon="6.00348">
        <ele>2448.1</ele>
        <time>2015-02-19T09:39:58.850Z</time>
      </trkpt>
      <trkpt lat="45.15108" lon="6.00354">
        <ele>2446</ele>
        <time>2015-02-19T09:40:00.830Z</time>
      </trkpt>
      <trkpt lat="45.15097" lon="6.00357">
        <ele>2444.4</ele>
        <time>2015-02-19T09:40:02.830Z</time>
      </trkpt>
      <trkpt lat="45.15086" lon="6.00364">
        <ele>2442.8</ele>
        <time>2015-02-19T09:40:04.830Z</time>
      </trkpt>
      <trkpt lat="45.15083" lon="6.00378">
        <ele>2438.8</ele>
        <time>2015-02-19T09:40:09.830Z</time>
      </trkpt>
      <trkpt lat="45.1508" lon="6.0039">
        <ele>2437.4</ele>
        <time>2015-02-19T09:40:13.830Z</time>
      </trkpt>
      <trkpt lat="45.15081" lon="6.00406">
        <ele>2436.6</ele>
        <time>2015-02-19T09:40:17.830Z</time>
      </trkpt>
      <trkpt lat="45.15072" lon="6.00401">
        <ele>2434.9</ele>
        <time>2015-02-19T09:40:31.830Z</time>
      </trkpt>
      <trkpt lat="45.15065" lon="6.00396">
        <ele>2434.6</ele>
        <time>2015-02-19T09:40:34.830Z</time>
      </trkpt>
      <trkpt lat="45.15058" lon="6.00395">
        <ele>2434</ele>
        <time>2015-02-19T09:40:40.830Z</time>
      </trkpt>
      <trkpt lat="45.15048" lon="6.00395">
        <ele>2432.5</ele>
        <time>2015-02-19T09:40:43.830Z</time>
      </trkpt>
      <trkpt lat="45.15036" lon="6.00404">
        <ele>2430</ele>
        <time>2015-02-19T09:40:48.830Z</time>
      </trkpt>
      <trkpt lat="45.15029" lon="6.00415">
        <ele>2427.2</ele>
        <time>2015-02-19T09:40:51.850Z</time>
      </trkpt>
      <trkpt lat="45.15016" lon="6.00427">
        <ele>2422.1</ele>
        <time>2015-02-19T09:40:54.830Z</time>
      </trkpt>
      <trkpt lat="45.1501" lon="6.00441">
        <ele>2417</ele>
        <time>2015-02-19T09:40:57.830Z</time>
      </trkpt>
      <trkpt lat="45.15005" lon="6.00451">
        <ele>2413.6</ele>
        <time>2015-02-19T09:40:59.830Z</time>
      </trkpt>
      <trkpt lat="45.14994" lon="6.00455">
        <ele>2411.7</ele>
        <time>2015-02-19T09:41:01.830Z</time>
      </trkpt>
      <trkpt lat="45.1498" lon="6.00453">
        <ele>2410.8</ele>
        <time>2015-02-19T09:41:04.830Z</time>
      </trkpt>
      <trkpt lat="45.14971" lon="6.00447">
        <ele>2409.9</ele>
        <time>2015-02-19T09:41:07.830Z</time>
      </trkpt>
      <trkpt lat="45.14963" lon="6.00443">
        <ele>2407.5</ele>
        <time>2015-02-19T09:41:31.830Z</time>
      </trkpt>
      <trkpt lat="45.14955" lon="6.00438">
        <ele>2406</ele>
        <time>2015-02-19T09:41:34.830Z</time>
      </trkpt>
      <trkpt lat="45.1495" lon="6.00434">
        <ele>2404.5</ele>
        <time>2015-02-19T09:41:37.830Z</time>
      </trkpt>
      <trkpt lat="45.14936" lon="6.00436">
        <ele>2398.5</ele>
        <time>2015-02-19T09:41:42.830Z</time>
      </trkpt>
      <trkpt lat="45.14925" lon="6.00445">
        <ele>2391.8</ele>
        <time>2015-02-19T09:41:45.870Z</time>
      </trkpt>
      <trkpt lat="45.14912" lon="6.00444">
        <ele>2385.3</ele>
        <time>2015-02-19T09:41:48.830Z</time>
      </trkpt>
      <trkpt lat="45.14909" lon="6.00458">
        <ele>2380.1</ele>
        <time>2015-02-19T09:41:51.830Z</time>
      </trkpt>
      <trkpt lat="45.14899" lon="6.00443">
        <ele>2375.6</ele>
        <time>2015-02-19T09:41:56.830Z</time>
      </trkpt>
      <trkpt lat="45.1489" lon="6.00426">
        <ele>2372.8</ele>
        <time>2015-02-19T09:41:59.850Z</time>
      </trkpt>
      <trkpt lat="45.14884" lon="6.00415">
        <ele>2371.5</ele>
        <time>2015-02-19T09:42:01.830Z</time>
      </trkpt>
      <trkpt lat="45.14879" lon="6.00405">
        <ele>2370.5</ele>
        <time>2015-02-19T09:42:03.830Z</time>
      </trkpt>
      <trkpt lat="45.14873" lon="6.00395">
        <ele>2369.5</ele>
        <time>2015-02-19T09:42:05.830Z</time>
      </trkpt>
      <trkpt lat="45.14866" lon="6.00379">
        <ele>2368</ele>
        <time>2015-02-19T09:42:08.830Z</time>
      </trkpt>
      <trkpt lat="45.14861" lon="6.00365">
        <ele>2366.1</ele>
        <time>2015-02-19T09:42:11.830Z</time>
      </trkpt>
      <trkpt lat="45.14856" lon="6.00359">
        <ele>2362.5</ele>
        <time>2015-02-19T09:42:15.830Z</time>
      </trkpt>
      <trkpt lat="45.14844" lon="6.00365">
        <ele>2359.8</ele>
        <time>2015-02-19T09:42:18.830Z</time>
      </trkpt>
      <trkpt lat="45.14832" lon="6.00359">
        <ele>2358</ele>
        <time>2015-02-19T09:42:20.830Z</time>
      </trkpt>
      <trkpt lat="45.14823" lon="6.0035">
        <ele>2356.6</ele>
        <time>2015-02-19T09:42:22.830Z</time>
      </trkpt>
      <trkpt lat="45.14814" lon="6.00335">
        <ele>2354.5</ele>
        <time>2015-02-19T09:42:25.830Z</time>
      </trkpt>
      <trkpt lat="45.14811" lon="6.0032">
        <ele>2351.7</ele>
        <time>2015-02-19T09:42:29.830Z</time>
      </trkpt>
      <trkpt lat="45.14814" lon="6.00308">
        <ele>2350</ele>
        <time>2015-02-19T09:42:35.830Z</time>
      </trkpt>
      <trkpt lat="45.14808" lon="6.00316">
        <ele>2345.8</ele>
        <time>2015-02-19T09:43:03.830Z</time>
      </trkpt>
      <trkpt lat="45.14799" lon="6.00315">
        <ele>2343.8</ele>
        <time>2015-02-19T09:43:08.850Z</time>
      </trkpt>
      <trkpt lat="45.148" lon="6.00301">
        <ele>2341.2</ele>
        <time>2015-02-19T09:43:12.830Z</time>
      </trkpt>
      <trkpt lat="45.14799" lon="6.0029">
        <ele>2339.4</ele>
        <time>2015-02-19T09:43:14.830Z</time>
      </trkpt>
      <trkpt lat="45.14797" lon="6.00282">
        <ele>2338.4</ele>
        <time>2015-02-19T09:43:15.850Z</time>
      </trkpt>
      <trkpt lat="45.14797" lon="6.00269">
        <ele>2336.7</ele>
        <time>2015-02-19T09:43:17.830Z</time>
      </trkpt>
      <trkpt lat="45.14796" lon="6.00256">
        <ele>2334.9</ele>
        <time>2015-02-19T09:43:19.830Z</time>
      </trkpt>
      <trkpt lat="45.14797" lon="6.00234">
        <ele>2330.1</ele>
        <time>2015-02-19T09:43:22.840Z</time>
      </trkpt>
      <trkpt lat="45.14795" lon="6.00216">
        <ele>2326.3</ele>
        <time>2015-02-19T09:43:24.830Z</time>
      </trkpt>
      <trkpt lat="45.14793" lon="6.00194">
        <ele>2322.5</ele>
        <time>2015-02-19T09:43:26.830Z</time>
      </trkpt>
      <trkpt lat="45.14794" lon="6.00176">
        <ele>2318.7</ele>
        <time>2015-02-19T09:43:28.830Z</time>
      </trkpt>
      <trkpt lat="45.14786" lon="6.00163">
        <ele>2313.3</ele>
        <time>2015-02-19T09:43:31.830Z</time>
      </trkpt>
      <trkpt lat="45.14777" lon="6.00152">
        <ele>2310.1</ele>
        <time>2015-02-19T09:43:33.830Z</time>
      </trkpt>
      <trkpt lat="45.14768" lon="6.00143">
        <ele>2306.9</ele>
        <time>2015-02-19T09:43:35.830Z</time>
      </trkpt>
      <trkpt lat="45.14756" lon="6.00137">
        <ele>2303.7</ele>
        <time>2015-02-19T09:43:37.830Z</time>
      </trkpt>
      <trkpt lat="45.14753" lon="6.00122">
        <ele>2300.5</ele>
        <time>2015-02-19T09:43:39.830Z</time>
      </trkpt>
      <trkpt lat="45.14749" lon="6.00103">
        <ele>2298.4</ele>
        <time>2015-02-19T09:43:42.830Z</time>
      </trkpt>
      <trkpt lat="45.14744" lon="6.0009">
        <ele>2297.5</ele>
        <time>2015-02-19T09:43:45.830Z</time>
      </trkpt>
      <trkpt lat="45.14749" lon="6.00087">
        <ele>2296</ele>
        <time>2015-02-19T09:44:12.830Z</time>
      </trkpt>
      <trkpt lat="45.14745" lon="6.00079">
        <ele>2293.5</ele>
        <time>2015-02-19T09:44:25.830Z</time>
      </trkpt>
      <trkpt lat="45.14737" lon="6.0008">
        <ele>2292</ele>
        <time>2015-02-19T09:44:28.830Z</time>
      </trkpt>
      <trkpt lat="45.14728" lon="6.00079">
        <ele>2290.9</ele>
        <time>2015-02-19T09:44:30.830Z</time>
      </trkpt>
      <trkpt lat="45.14717" lon="6.00083">
        <ele>2286.4</ele>
        <time>2015-02-19T09:44:33.830Z</time>
      </trkpt>
      <trkpt lat="45.14708" lon="6.00072">
        <ele>2281.9</ele>
        <time>2015-02-19T09:44:36.830Z</time>
      </trkpt>
      <trkpt lat="45.147" lon="6.00062">
        <ele>2278.9</ele>
        <time>2015-02-19T09:44:38.830Z</time>
      </trkpt>
      <trkpt lat="45.14693" lon="6.0005">
        <ele>2276</ele>
        <time>2015-02-19T09:44:40.830Z</time>
      </trkpt>
      <trkpt lat="45.14684" lon="6.0004">
        <ele>2275.4</ele>
        <time>2015-02-19T09:44:42.830Z</time>
      </trkpt>
      <trkpt lat="45.14676" lon="6.00031">
        <ele>2274.8</ele>
        <time>2015-02-19T09:44:44.860Z</time>
      </trkpt>
      <trkpt lat="45.14668" lon="6.00021">
        <ele>2273.9</ele>
        <time>2015-02-19T09:44:47.830Z</time>
      </trkpt>
      <trkpt lat="45.14665" lon="6.00012">
        <ele>2273</ele>
        <time>2015-02-19T09:45:04.830Z</time>
      </trkpt>
      <trkpt lat="45.14658" lon="6.00006">
        <ele>2270.3</ele>
        <time>2015-02-19T09:45:21.830Z</time>
      </trkpt>
      <trkpt lat="45.14647" lon="6.00015">
        <ele>2265.5</ele>
        <time>2015-02-19T09:45:24.830Z</time>
      </trkpt>
      <trkpt lat="45.14638" lon="6.00024">
        <ele>2262.3</ele>
        <time>2015-02-19T09:45:26.830Z</time>
      </trkpt>
      <trkpt lat="45.14629" lon="6.00034">
        <ele>2259.3</ele>
        <time>2015-02-19T09:45:28.730Z</time>
      </trkpt>
      <trkpt lat="45.14617" lon="6.00042">
        <ele>2256</ele>
        <time>2015-02-19T09:45:30.760Z</time>
      </trkpt>
      <trkpt lat="45.1461" lon="6.00053">
        <ele>2251.1</ele>
        <time>2015-02-19T09:45:32.730Z</time>
      </trkpt>
      <trkpt lat="45.14595" lon="6.0005">
        <ele>2246.1</ele>
        <time>2015-02-19T09:45:34.730Z</time>
      </trkpt>
      <trkpt lat="45.14583" lon="6.00046">
        <ele>2241.1</ele>
        <time>2015-02-19T09:45:36.730Z</time>
      </trkpt>
      <trkpt lat="45.14573" lon="6.00058">
        <ele>2233.6</ele>
        <time>2015-02-19T09:45:39.730Z</time>
      </trkpt>
      <trkpt lat="45.14562" lon="6.00062">
        <ele>2228.8</ele>
        <time>2015-02-19T09:45:41.730Z</time>
      </trkpt>
      <trkpt lat="45.14554" lon="6.00071">
        <ele>2221.9</ele>
        <time>2015-02-19T09:45:44.740Z</time>
      </trkpt>
      <trkpt lat="45.14548" lon="6.00084">
        <ele>2215</ele>
        <time>2015-02-19T09:45:47.730Z</time>
      </trkpt>
      <trkpt lat="45.14538" lon="6.00092">
        <ele>2208.1</ele>
        <time>2015-02-19T09:45:50.730Z</time>
      </trkpt>
      <trkpt lat="45.14527" lon="6.001">
        <ele>2200.6</ele>
        <time>2015-02-19T09:45:53.730Z</time>
      </trkpt>
      <trkpt lat="45.14517" lon="6.00113">
        <ele>2193.1</ele>
        <time>2015-02-19T09:45:56.730Z</time>
      </trkpt>
      <trkpt lat="45.14507" lon="6.00119">
        <ele>2188.1</ele>
        <time>2015-02-19T09:45:58.730Z</time>
      </trkpt>
      <trkpt lat="45.14501" lon="6.00132">
        <ele>2182</ele>
        <time>2015-02-19T09:46:02.730Z</time>
      </trkpt>
      <trkpt lat="45.14508" lon="6.00129">
        <ele>2178</ele>
        <time>2015-02-19T09:46:22.730Z</time>
      </trkpt>
      <trkpt lat="45.14503" lon="6.00116">
        <ele>2175.9</ele>
        <time>2015-02-19T09:46:47.730Z</time>
      </trkpt>
      <trkpt lat="45.14499" lon="6.00104">
        <ele>2175.3</ele>
        <time>2015-02-19T09:46:49.730Z</time>
      </trkpt>
      <trkpt lat="45.14487" lon="6.00104">
        <ele>2170.5</ele>
        <time>2015-02-19T09:46:52.730Z</time>
      </trkpt>
      <trkpt lat="45.14477" lon="6.00108">
        <ele>2165.9</ele>
        <time>2015-02-19T09:46:54.730Z</time>
      </trkpt>
      <trkpt lat="45.14449" lon="6.001">
        <ele>2156.7</ele>
        <time>2015-02-19T09:46:58.730Z</time>
      </trkpt>
      <trkpt lat="45.14433" lon="6.00104">
        <ele>2152.1</ele>
        <time>2015-02-19T09:47:00.730Z</time>
      </trkpt>
      <trkpt lat="45.14423" lon="6.00116">
        <ele>2151</ele>
        <time>2015-02-19T09:47:02.730Z</time>
      </trkpt>
      <trkpt lat="45.14417" lon="6.00128">
        <ele>2150</ele>
        <time>2015-02-19T09:47:04.730Z</time>
      </trkpt>
      <trkpt lat="45.14425" lon="6.00122">
        <ele>2145.7</ele>
        <time>2015-02-19T09:48:43.730Z</time>
      </trkpt>
      <trkpt lat="45.14433" lon="6.00124">
        <ele>2146</ele>
        <time>2015-02-19T09:51:36.730Z</time>
      </trkpt>
      <trkpt lat="45.1443" lon="6.00118">
        <ele>2149.9</ele>
        <time>2015-02-19T09:54:09.730Z</time>
      </trkpt>
      <trkpt lat="45.14428" lon="6.00112">
        <ele>2150</ele>
        <time>2015-02-19T09:54:15.730Z</time>
      </trkpt>
      <trkpt lat="45.14427" lon="6.00106">
        <ele>2150.1</ele>
        <time>2015-02-19T09:54:21.730Z</time>
      </trkpt>
      <trkpt lat="45.14426" lon="6.00099">
        <ele>2150.8</ele>
        <time>2015-02-19T09:54:28.730Z</time>
      </trkpt>
      <trkpt lat="45.14428" lon="6.00092">
        <ele>2152.4</ele>
        <time>2015-02-19T09:54:37.730Z</time>
      </trkpt>
      <trkpt lat="45.14433" lon="6.00082">
        <ele>2155.2</ele>
        <time>2015-02-19T09:54:54.730Z</time>
      </trkpt>
      <trkpt lat="45.14439" lon="6.00072">
        <ele>2157.7</ele>
        <time>2015-02-19T09:55:07.730Z</time>
      </trkpt>
      <trkpt lat="45.14443" lon="6.0006">
        <ele>2160.2</ele>
        <time>2015-02-19T09:55:21.730Z</time>
      </trkpt>
      <trkpt lat="45.14444" lon="6.00053">
        <ele>2161.8</ele>
        <time>2015-02-19T09:55:29.730Z</time>
      </trkpt>
      <trkpt lat="45.1445" lon="6.00045">
        <ele>2163.3</ele>
        <time>2015-02-19T09:55:43.730Z</time>
      </trkpt>
      <trkpt lat="45.14455" lon="6.00039">
        <ele>2164.9</ele>
        <time>2015-02-19T09:55:59.730Z</time>
      </trkpt>
      <trkpt lat="45.14448" lon="6.00033">
        <ele>2169</ele>
        <time>2015-02-19T09:56:15.730Z</time>
      </trkpt>
      <trkpt lat="45.14441" lon="6.00028">
        <ele>2170.7</ele>
        <time>2015-02-19T09:56:27.730Z</time>
      </trkpt>
      <trkpt lat="45.14433" lon="6.0002">
        <ele>2173.6</ele>
        <time>2015-02-19T09:56:43.730Z</time>
      </trkpt>
      <trkpt lat="45.14426" lon="6.00011">
        <ele>2176.4</ele>
        <time>2015-02-19T09:56:57.730Z</time>
      </trkpt>
      <trkpt lat="45.14428" lon="6">
        <ele>2180.6</ele>
        <time>2015-02-19T09:57:23.730Z</time>
      </trkpt>
      <trkpt lat="45.14437" lon="5.99994">
        <ele>2183</ele>
        <time>2015-02-19T09:57:40.730Z</time>
      </trkpt>
      <trkpt lat="45.14445" lon="5.99987">
        <ele>2186.8</ele>
        <time>2015-02-19T09:57:56.730Z</time>
      </trkpt>
      <trkpt lat="45.14454" lon="5.9998">
        <ele>2189.4</ele>
        <time>2015-02-19T09:58:12.730Z</time>
      </trkpt>
      <trkpt lat="45.14461" lon="5.99972">
        <ele>2192.6</ele>
        <time>2015-02-19T09:58:28.730Z</time>
      </trkpt>
      <trkpt lat="45.14468" lon="5.99965">
        <ele>2195.4</ele>
        <time>2015-02-19T09:58:44.730Z</time>
      </trkpt>
      <trkpt lat="45.14475" lon="5.99957">
        <ele>2197.2</ele>
        <time>2015-02-19T09:59:01.730Z</time>
      </trkpt>
      <trkpt lat="45.14483" lon="5.99949">
        <ele>2200.4</ele>
        <time>2015-02-19T09:59:17.730Z</time>
      </trkpt>
      <trkpt lat="45.14491" lon="5.99942">
        <ele>2203.5</ele>
        <time>2015-02-19T09:59:35.730Z</time>
      </trkpt>
      <trkpt lat="45.14498" lon="5.99934">
        <ele>2206.7</ele>
        <time>2015-02-19T09:59:49.730Z</time>
      </trkpt>
      <trkpt lat="45.14506" lon="5.99928">
        <ele>2209.5</ele>
        <time>2015-02-19T10:00:03.480Z</time>
      </trkpt>
      <trkpt lat="45.14513" lon="5.99923">
        <ele>2212</ele>
        <time>2015-02-19T10:00:25.730Z</time>
      </trkpt>
      <trkpt lat="45.14521" lon="5.9992">
        <ele>2214.9</ele>
        <time>2015-02-19T10:00:40.470Z</time>
      </trkpt>
      <trkpt lat="45.1453" lon="5.99919">
        <ele>2217</ele>
        <time>2015-02-19T10:00:55.730Z</time>
      </trkpt>
      <trkpt lat="45.14537" lon="5.99913">
        <ele>2222</ele>
        <time>2015-02-19T10:01:20.730Z</time>
      </trkpt>
      <trkpt lat="45.14536" lon="5.99903">
        <ele>2224</ele>
        <time>2015-02-19T10:01:32.730Z</time>
      </trkpt>
      <trkpt lat="45.14534" lon="5.99895">
        <ele>2224.3</ele>
        <time>2015-02-19T10:01:41.730Z</time>
      </trkpt>
      <trkpt lat="45.14531" lon="5.99887">
        <ele>2227.3</ele>
        <time>2015-02-19T10:01:51.730Z</time>
      </trkpt>
      <trkpt lat="45.14526" lon="5.99878">
        <ele>2230.7</ele>
        <time>2015-02-19T10:02:07.730Z</time>
      </trkpt>
      <trkpt lat="45.14518" lon="5.99872">
        <ele>2232</ele>
        <time>2015-02-19T10:02:20.730Z</time>
      </trkpt>
      <trkpt lat="45.14524" lon="5.99862">
        <ele>2234.8</ele>
        <time>2015-02-19T10:02:38.730Z</time>
      </trkpt>
      <trkpt lat="45.14532" lon="5.99856">
        <ele>2237.4</ele>
        <time>2015-02-19T10:02:52.730Z</time>
      </trkpt>
      <trkpt lat="45.14537" lon="5.9985">
        <ele>2239.4</ele>
        <time>2015-02-19T10:03:04.730Z</time>
      </trkpt>
      <trkpt lat="45.14544" lon="5.99847">
        <ele>2241.2</ele>
        <time>2015-02-19T10:03:16.730Z</time>
      </trkpt>
      <trkpt lat="45.1455" lon="5.99844">
        <ele>2245</ele>
        <time>2015-02-19T10:03:30.730Z</time>
      </trkpt>
      <trkpt lat="45.14556" lon="5.99848">
        <ele>2245</ele>
        <time>2015-02-19T10:03:40.730Z</time>
      </trkpt>
      <trkpt lat="45.14565" lon="5.99854">
        <ele>2247.6</ele>
        <time>2015-02-19T10:03:53.730Z</time>
      </trkpt>
      <trkpt lat="45.14568" lon="5.99843">
        <ele>2250.9</ele>
        <time>2015-02-19T10:04:13.730Z</time>
      </trkpt>
      <trkpt lat="45.14568" lon="5.99835">
        <ele>2254</ele>
        <time>2015-02-19T10:04:25.730Z</time>
      </trkpt>
      <trkpt lat="45.14569" lon="5.99827">
        <ele>2255</ele>
        <time>2015-02-19T10:04:35.730Z</time>
      </trkpt>
      <trkpt lat="45.14569" lon="5.99816">
        <ele>2256.2</ele>
        <time>2015-02-19T10:04:46.730Z</time>
      </trkpt>
      <trkpt lat="45.14568" lon="5.99805">
        <ele>2258.8</ele>
        <time>2015-02-19T10:04:59.730Z</time>
      </trkpt>
      <trkpt lat="45.14566" lon="5.99795">
        <ele>2261.2</ele>
        <time>2015-02-19T10:05:12.730Z</time>
      </trkpt>
      <trkpt lat="45.14573" lon="5.99792">
        <ele>2262.8</ele>
        <time>2015-02-19T10:05:24.730Z</time>
      </trkpt>
      <trkpt lat="45.14578" lon="5.99792">
        <ele>2264.1</ele>
        <time>2015-02-19T10:05:31.730Z</time>
      </trkpt>
      <trkpt lat="45.14584" lon="5.99794">
        <ele>2265.6</ele>
        <time>2015-02-19T10:05:43.730Z</time>
      </trkpt>
      <trkpt lat="45.14588" lon="5.99801">
        <ele>2267</ele>
        <time>2015-02-19T10:05:53.730Z</time>
      </trkpt>
      <trkpt lat="45.14592" lon="5.9981">
        <ele>2268.8</ele>
        <time>2015-02-19T10:06:09.730Z</time>
      </trkpt>
      <trkpt lat="45.14596" lon="5.99803">
        <ele>2270</ele>
        <time>2015-02-19T10:06:15.730Z</time>
      </trkpt>
      <trkpt lat="45.14598" lon="5.99795">
        <ele>2271.4</ele>
        <time>2015-02-19T10:06:24.730Z</time>
      </trkpt>
      <trkpt lat="45.14599" lon="5.99787">
        <ele>2272.2</ele>
        <time>2015-02-19T10:06:31.730Z</time>
      </trkpt>
      <trkpt lat="45.14601" lon="5.99774">
        <ele>2274.8</ele>
        <time>2015-02-19T10:06:44.730Z</time>
      </trkpt>
      <trkpt lat="45.14601" lon="5.99761">
        <ele>2277.4</ele>
        <time>2015-02-19T10:06:57.730Z</time>
      </trkpt>
      <trkpt lat="45.14601" lon="5.99751">
        <ele>2279.4</ele>
        <time>2015-02-19T10:07:07.730Z</time>
      </trkpt>
      <trkpt lat="45.14601" lon="5.99742">
        <ele>2280.6</ele>
        <time>2015-02-19T10:07:16.730Z</time>
      </trkpt>
      <trkpt lat="45.14599" lon="5.99733">
        <ele>2281.9</ele>
        <time>2015-02-19T10:07:29.730Z</time>
      </trkpt>
      <trkpt lat="45.14597" lon="5.99727">
        <ele>2283.2</ele>
        <time>2015-02-19T10:07:36.730Z</time>
      </trkpt>
      <trkpt lat="45.14598" lon="5.9972">
        <ele>2285.4</ele>
        <time>2015-02-19T10:07:47.730Z</time>
      </trkpt>
      <trkpt lat="45.14602" lon="5.99714">
        <ele>2286.6</ele>
        <time>2015-02-19T10:07:56.730Z</time>
      </trkpt>
      <trkpt lat="45.14608" lon="5.99712">
        <ele>2287.8</ele>
        <time>2015-02-19T10:08:04.730Z</time>
      </trkpt>
      <trkpt lat="45.14614" lon="5.99713">
        <ele>2289.6</ele>
        <time>2015-02-19T10:08:13.730Z</time>
      </trkpt>
      <trkpt lat="45.14616" lon="5.99706">
        <ele>2292</ele>
        <time>2015-02-19T10:08:35.730Z</time>
      </trkpt>
      <trkpt lat="45.14615" lon="5.99698">
        <ele>2294.2</ele>
        <time>2015-02-19T10:08:44.730Z</time>
      </trkpt>
      <trkpt lat="45.14612" lon="5.99688">
        <ele>2296</ele>
        <time>2015-02-19T10:08:57.730Z</time>
      </trkpt>
      <trkpt lat="45.14609" lon="5.99679">
        <ele>2298</ele>
        <time>2015-02-19T10:09:10.730Z</time>
      </trkpt>
      <trkpt lat="45.14604" lon="5.99668">
        <ele>2300</ele>
        <time>2015-02-19T10:09:25.730Z</time>
      </trkpt>
      <trkpt lat="45.14601" lon="5.99663">
        <ele>2301.6</ele>
        <time>2015-02-19T10:09:33.730Z</time>
      </trkpt>
      <trkpt lat="45.14594" lon="5.99657">
        <ele>2304.2</ele>
        <time>2015-02-19T10:09:46.730Z</time>
      </trkpt>
      <trkpt lat="45.14585" lon="5.99655">
        <ele>2306</ele>
        <time>2015-02-19T10:10:00.730Z</time>
      </trkpt>
      <trkpt lat="45.14587" lon="5.99646">
        <ele>2308.2</ele>
        <time>2015-02-19T10:10:16.730Z</time>
      </trkpt>
      <trkpt lat="45.1459" lon="5.99635">
        <ele>2311</ele>
        <time>2015-02-19T10:10:32.730Z</time>
      </trkpt>
      <trkpt lat="45.14595" lon="5.99628">
        <ele>2311.6</ele>
        <time>2015-02-19T10:10:43.740Z</time>
      </trkpt>
      <trkpt lat="45.146" lon="5.99623">
        <ele>2313.4</ele>
        <time>2015-02-19T10:10:52.730Z</time>
      </trkpt>
      <trkpt lat="45.14605" lon="5.99619">
        <ele>2315.2</ele>
        <time>2015-02-19T10:11:02.730Z</time>
      </trkpt>
      <trkpt lat="45.1461" lon="5.99613">
        <ele>2317.8</ele>
        <time>2015-02-19T10:11:38.730Z</time>
      </trkpt>
      <trkpt lat="45.14616" lon="5.99611">
        <ele>2318.8</ele>
        <time>2015-02-19T10:11:44.730Z</time>
      </trkpt>
      <trkpt lat="45.14621" lon="5.99609">
        <ele>2321.2</ele>
        <time>2015-02-19T10:11:56.730Z</time>
      </trkpt>
      <trkpt lat="45.1462" lon="5.99602">
        <ele>2322.4</ele>
        <time>2015-02-19T10:12:04.740Z</time>
      </trkpt>
      <trkpt lat="45.14618" lon="5.99594">
        <ele>2323.3</ele>
        <time>2015-02-19T10:12:13.730Z</time>
      </trkpt>
      <trkpt lat="45.14616" lon="5.99587">
        <ele>2325</ele>
        <time>2015-02-19T10:12:25.730Z</time>
      </trkpt>
      <trkpt lat="45.14614" lon="5.99578">
        <ele>2326.6</ele>
        <time>2015-02-19T10:12:33.730Z</time>
      </trkpt>
      <trkpt lat="45.14612" lon="5.99571">
        <ele>2328.2</ele>
        <time>2015-02-19T10:12:41.730Z</time>
      </trkpt>
      <trkpt lat="45.14609" lon="5.99565">
        <ele>2329.8</ele>
        <time>2015-02-19T10:12:49.730Z</time>
      </trkpt>
      <trkpt lat="45.14606" lon="5.99559">
        <ele>2330.7</ele>
        <time>2015-02-19T10:12:57.730Z</time>
      </trkpt>
      <trkpt lat="45.146" lon="5.9955">
        <ele>2333</ele>
        <time>2015-02-19T10:13:10.730Z</time>
      </trkpt>
      <trkpt lat="45.14604" lon="5.9954">
        <ele>2335.4</ele>
        <time>2015-02-19T10:13:24.730Z</time>
      </trkpt>
      <trkpt lat="45.1461" lon="5.99534">
        <ele>2336.4</ele>
        <time>2015-02-19T10:13:34.730Z</time>
      </trkpt>
      <trkpt lat="45.14619" lon="5.99526">
        <ele>2338.7</ele>
        <time>2015-02-19T10:13:49.470Z</time>
      </trkpt>
      <trkpt lat="45.14628" lon="5.99529">
        <ele>2341.9</ele>
        <time>2015-02-19T10:14:09.730Z</time>
      </trkpt>
      <trkpt lat="45.14634" lon="5.99531">
        <ele>2342.9</ele>
        <time>2015-02-19T10:14:19.730Z</time>
      </trkpt>
      <trkpt lat="45.14642" lon="5.99539">
        <ele>2346.2</ele>
        <time>2015-02-19T10:14:34.730Z</time>
      </trkpt>
      <trkpt lat="45.14648" lon="5.99545">
        <ele>2349.2</ele>
        <time>2015-02-19T10:14:46.730Z</time>
      </trkpt>
      <trkpt lat="45.14653" lon="5.9955">
        <ele>2351</ele>
        <time>2015-02-19T10:14:55.730Z</time>
      </trkpt>
      <trkpt lat="45.14661" lon="5.9956">
        <ele>2353.9</ele>
        <time>2015-02-19T10:15:19.730Z</time>
      </trkpt>
      <trkpt lat="45.14661" lon="5.99548">
        <ele>2357.6</ele>
        <time>2015-02-19T10:15:38.730Z</time>
      </trkpt>
      <trkpt lat="45.14661" lon="5.99538">
        <ele>2358.9</ele>
        <time>2015-02-19T10:15:49.730Z</time>
      </trkpt>
      <trkpt lat="45.1466" lon="5.99529">
        <ele>2359.8</ele>
        <time>2015-02-19T10:15:58.730Z</time>
      </trkpt>
      <trkpt lat="45.1466" lon="5.99519">
        <ele>2362</ele>
        <time>2015-02-19T10:16:10.730Z</time>
      </trkpt>
      <trkpt lat="45.14659" lon="5.99508">
        <ele>2364.2</ele>
        <time>2015-02-19T10:16:22.730Z</time>
      </trkpt>
      <trkpt lat="45.14659" lon="5.99498">
        <ele>2366.2</ele>
        <time>2015-02-19T10:16:36.730Z</time>
      </trkpt>
      <trkpt lat="45.14657" lon="5.99487">
        <ele>2369.4</ele>
        <time>2015-02-19T10:16:48.730Z</time>
      </trkpt>
      <trkpt lat="45.14662" lon="5.9948">
        <ele>2372.6</ele>
        <time>2015-02-19T10:17:26.730Z</time>
      </trkpt>
      <trkpt lat="45.14671" lon="5.99484">
        <ele>2375.3</ele>
        <time>2015-02-19T10:17:43.730Z</time>
      </trkpt>
      <trkpt lat="45.14676" lon="5.99491">
        <ele>2378.7</ele>
        <time>2015-02-19T10:17:59.740Z</time>
      </trkpt>
      <trkpt lat="45.14681" lon="5.99498">
        <ele>2381.4</ele>
        <time>2015-02-19T10:18:08.730Z</time>
      </trkpt>
      <trkpt lat="45.14682" lon="5.99486">
        <ele>2384.8</ele>
        <time>2015-02-19T10:18:39.730Z</time>
      </trkpt>
      <trkpt lat="45.1468" lon="5.99478">
        <ele>2387.2</ele>
        <time>2015-02-19T10:18:52.730Z</time>
      </trkpt>
      <trkpt lat="45.14676" lon="5.99469">
        <ele>2389</ele>
        <time>2015-02-19T10:19:10.730Z</time>
      </trkpt>
      <trkpt lat="45.14685" lon="5.9947">
        <ele>2391.6</ele>
        <time>2015-02-19T10:19:33.730Z</time>
      </trkpt>
      <trkpt lat="45.14693" lon="5.99475">
        <ele>2394.8</ele>
        <time>2015-02-19T10:19:49.730Z</time>
      </trkpt>
      <trkpt lat="45.14691" lon="5.99464">
        <ele>2398</ele>
        <time>2015-02-19T10:20:15.730Z</time>
      </trkpt>
      <trkpt lat="45.14697" lon="5.99459">
        <ele>2403.8</ele>
        <time>2015-02-19T10:21:39.730Z</time>
      </trkpt>
      <trkpt lat="45.14697" lon="5.99451">
        <ele>2407.9</ele>
        <time>2015-02-19T10:22:09.730Z</time>
      </trkpt>
      <trkpt lat="45.14704" lon="5.99447">
        <ele>2412.4</ele>
        <time>2015-02-19T10:22:44.730Z</time>
      </trkpt>
      <trkpt lat="45.14707" lon="5.9944">
        <ele>2419.7</ele>
        <time>2015-02-19T10:23:47.730Z</time>
      </trkpt>
      <trkpt lat="45.14713" lon="5.99434">
        <ele>2423.3</ele>
        <time>2015-02-19T10:24:17.730Z</time>
      </trkpt>
      <trkpt lat="45.14717" lon="5.99425">
        <ele>2429.5</ele>
        <time>2015-02-19T10:25:25.730Z</time>
      </trkpt>
      <trkpt lat="45.14724" lon="5.99421">
        <ele>2434.8</ele>
        <time>2015-02-19T10:26:18.730Z</time>
      </trkpt>
      <trkpt lat="45.14727" lon="5.99414">
        <ele>2439.2</ele>
        <time>2015-02-19T10:30:22.730Z</time>
      </trkpt>
      <trkpt lat="45.14734" lon="5.99412">
        <ele>2443.7</ele>
        <time>2015-02-19T10:31:57.730Z</time>
      </trkpt>
      <trkpt lat="45.14733" lon="5.99405">
        <ele>2445</ele>
        <time>2015-02-19T10:32:45.730Z</time>
      </trkpt>
      <trkpt lat="45.14729" lon="5.99397">
        <ele>2447.3</ele>
        <time>2015-02-19T10:33:03.730Z</time>
      </trkpt>
      <trkpt lat="45.14735" lon="5.99399">
        <ele>2448.7</ele>
        <time>2015-02-19T10:33:17.730Z</time>
      </trkpt>
      <trkpt lat="45.14732" lon="5.99392">
        <ele>2451</ele>
        <time>2015-02-19T10:33:39.730Z</time>
      </trkpt>
      <trkpt lat="45.14739" lon="5.99394">
        <ele>2454</ele>
        <time>2015-02-19T10:34:00.730Z</time>
      </trkpt>
      <trkpt lat="45.14738" lon="5.99386">
        <ele>2456.8</ele>
        <time>2015-02-19T10:34:28.730Z</time>
      </trkpt>
      <trkpt lat="45.14744" lon="5.99389">
        <ele>2459.6</ele>
        <time>2015-02-19T10:34:48.730Z</time>
      </trkpt>
      <trkpt lat="45.14742" lon="5.99382">
        <ele>2462</ele>
        <time>2015-02-19T10:35:25.730Z</time>
      </trkpt>
      <trkpt lat="45.14738" lon="5.99373">
        <ele>2465</ele>
        <time>2015-02-19T10:42:17.510Z</time>
      </trkpt>
      <trkpt lat="45.14746" lon="5.99378">
        <ele>2466.6</ele>
        <time>2015-02-19T10:44:26.480Z</time>
      </trkpt>
      <trkpt lat="45.1475" lon="5.99372">
        <ele>2467</ele>
        <time>2015-02-19T10:45:20.830Z</time>
      </trkpt>
      <trkpt lat="45.14751" lon="5.99364">
        <ele>2467</ele>
        <time>2015-02-19T10:45:47.540Z</time>
      </trkpt>
      <trkpt lat="45.14754" lon="5.99358">
        <ele>2467</ele>
        <time>2015-02-19T10:45:55.680Z</time>
      </trkpt>
      <trkpt lat="45.14757" lon="5.99351">
        <ele>2467.3</ele>
        <time>2015-02-19T10:46:03.670Z</time>
      </trkpt>
      <trkpt lat="45.14762" lon="5.99342">
        <ele>2467.2</ele>
        <time>2015-02-19T10:46:18.580Z</time>
      </trkpt>
      <trkpt lat="45.14764" lon="5.99335">
        <ele>2466.1</ele>
        <time>2015-02-19T10:46:29.930Z</time>
      </trkpt>
      <trkpt lat="45.14768" lon="5.99328">
        <ele>2464.2</ele>
        <time>2015-02-19T10:46:39.830Z</time>
      </trkpt>
      <trkpt lat="45.14771" lon="5.9932">
        <ele>2464</ele>
        <time>2015-02-19T10:46:47.080Z</time>
      </trkpt>
      <trkpt lat="45.14775" lon="5.99313">
        <ele>2463.5</ele>
        <time>2015-02-19T10:46:55.470Z</time>
      </trkpt>
      <trkpt lat="45.14779" lon="5.99304">
        <ele>2462.7</ele>
        <time>2015-02-19T10:47:03.960Z</time>
      </trkpt>
      <trkpt lat="45.14784" lon="5.99296">
        <ele>2462.5</ele>
        <time>2015-02-19T10:47:13.470Z</time>
      </trkpt>
      <trkpt lat="45.14788" lon="5.99288">
        <ele>2464.1</ele>
        <time>2015-02-19T10:47:21.480Z</time>
      </trkpt>
      <trkpt lat="45.14793" lon="5.99278">
        <ele>2465</ele>
        <time>2015-02-19T10:47:31.570Z</time>
      </trkpt>
      <trkpt lat="45.14798" lon="5.9927">
        <ele>2465</ele>
        <time>2015-02-19T10:47:41.020Z</time>
      </trkpt>
      <trkpt lat="45.14802" lon="5.99263">
        <ele>2465.9</ele>
        <time>2015-02-19T10:47:49.680Z</time>
      </trkpt>
      <trkpt lat="45.14806" lon="5.99254">
        <ele>2466.9</ele>
        <time>2015-02-19T10:47:59.830Z</time>
      </trkpt>
      <trkpt lat="45.14809" lon="5.99244">
        <ele>2468.1</ele>
        <time>2015-02-19T10:48:11.480Z</time>
      </trkpt>
      <trkpt lat="45.14813" lon="5.99236">
        <ele>2470</ele>
        <time>2015-02-19T10:48:21.670Z</time>
      </trkpt>
      <trkpt lat="45.14817" lon="5.99228">
        <ele>2470</ele>
        <time>2015-02-19T10:48:31.680Z</time>
      </trkpt>
      <trkpt lat="45.14821" lon="5.99218">
        <ele>2470</ele>
        <time>2015-02-19T10:48:42.480Z</time>
      </trkpt>
      <trkpt lat="45.14824" lon="5.99209">
        <ele>2470</ele>
        <time>2015-02-19T10:48:52.470Z</time>
      </trkpt>
      <trkpt lat="45.14828" lon="5.99199">
        <ele>2470</ele>
        <time>2015-02-19T10:49:03.670Z</time>
      </trkpt>
      <trkpt lat="45.14831" lon="5.99189">
        <ele>2470.7</ele>
        <time>2015-02-19T10:49:14.480Z</time>
      </trkpt>
      <trkpt lat="45.14832" lon="5.9918">
        <ele>2472</ele>
        <time>2015-02-19T10:49:23.480Z</time>
      </trkpt>
      <trkpt lat="45.14833" lon="5.99171">
        <ele>2472.4</ele>
        <time>2015-02-19T10:49:32.720Z</time>
      </trkpt>
      <trkpt lat="45.14834" lon="5.9916">
        <ele>2474.4</ele>
        <time>2015-02-19T10:49:44.570Z</time>
      </trkpt>
      <trkpt lat="45.14835" lon="5.99149">
        <ele>2476.2</ele>
        <time>2015-02-19T10:49:56.720Z</time>
      </trkpt>
      <trkpt lat="45.14832" lon="5.9914">
        <ele>2477</ele>
        <time>2015-02-19T10:50:06.720Z</time>
      </trkpt>
      <trkpt lat="45.14833" lon="5.9913">
        <ele>2478.5</ele>
        <time>2015-02-19T10:50:18.570Z</time>
      </trkpt>
      <trkpt lat="45.14833" lon="5.99118">
        <ele>2479.5</ele>
        <time>2015-02-19T10:50:33.470Z</time>
      </trkpt>
      <trkpt lat="45.14835" lon="5.99108">
        <ele>2483.6</ele>
        <time>2015-02-19T10:50:49.510Z</time>
      </trkpt>
      <trkpt lat="45.14838" lon="5.99101">
        <ele>2484</ele>
        <time>2015-02-19T10:50:58.830Z</time>
      </trkpt>
      <trkpt lat="45.14843" lon="5.99094">
        <ele>2484</ele>
        <time>2015-02-19T10:51:09.610Z</time>
      </trkpt>
      <trkpt lat="45.14847" lon="5.99087">
        <ele>2486.1</ele>
        <time>2015-02-19T10:51:21.820Z</time>
      </trkpt>
      <trkpt lat="45.14845" lon="5.99079">
        <ele>2486.7</ele>
        <time>2015-02-19T10:52:57.630Z</time>
      </trkpt>
      <trkpt lat="45.14847" lon="5.99071">
        <ele>2487.5</ele>
        <time>2015-02-19T10:53:05.580Z</time>
      </trkpt>
      <trkpt lat="45.14848" lon="5.99063">
        <ele>2489.1</ele>
        <time>2015-02-19T10:53:16.480Z</time>
      </trkpt>
      <trkpt lat="45.14849" lon="5.99052">
        <ele>2491.9</ele>
        <time>2015-02-19T10:53:40.520Z</time>
      </trkpt>
      <trkpt lat="45.1485" lon="5.9904">
        <ele>2492.8</ele>
        <time>2015-02-19T10:53:53.510Z</time>
      </trkpt>
      <trkpt lat="45.14849" lon="5.99031">
        <ele>2495.4</ele>
        <time>2015-02-19T10:54:02.720Z</time>
      </trkpt>
      <trkpt lat="45.14847" lon="5.99021">
        <ele>2497.6</ele>
        <time>2015-02-19T10:54:16.480Z</time>
      </trkpt>
      <trkpt lat="45.14844" lon="5.99014">
        <ele>2498.5</ele>
        <time>2015-02-19T10:54:25.480Z</time>
      </trkpt>
      <trkpt lat="45.14853" lon="5.99019">
        <ele>2501.6</ele>
        <time>2015-02-19T10:54:56.570Z</time>
      </trkpt>
      <trkpt lat="45.14861" lon="5.99026">
        <ele>2503.1</ele>
        <time>2015-02-19T10:55:11.520Z</time>
      </trkpt>
      <trkpt lat="45.14869" lon="5.99035">
        <ele>2505.9</ele>
        <time>2015-02-19T10:55:29.620Z</time>
      </trkpt>
      <trkpt lat="45.14875" lon="5.99042">
        <ele>2507</ele>
        <time>2015-02-19T10:56:34.570Z</time>
      </trkpt>
      <trkpt lat="45.14882" lon="5.99048">
        <ele>2508.5</ele>
        <time>2015-02-19T10:56:52.570Z</time>
      </trkpt>
      <trkpt lat="45.14888" lon="5.99054">
        <ele>2511.7</ele>
        <time>2015-02-19T10:57:17.810Z</time>
      </trkpt>
      <trkpt lat="45.14885" lon="5.99046">
        <ele>2512.4</ele>
        <time>2015-02-19T10:57:34.570Z</time>
      </trkpt>
      <trkpt lat="45.14883" lon="5.99038">
        <ele>2514.7</ele>
        <time>2015-02-19T10:57:46.670Z</time>
      </trkpt>
      <trkpt lat="45.14892" lon="5.99043">
        <ele>2520.3</ele>
        <time>2015-02-19T10:58:27.510Z</time>
      </trkpt>
      <trkpt lat="45.14897" lon="5.99054">
        <ele>2521.1</ele>
        <time>2015-02-19T10:58:41.520Z</time>
      </trkpt>
      <trkpt lat="45.14895" lon="5.99048">
        <ele>2523.5</ele>
        <time>2015-02-19T10:59:05.470Z</time>
      </trkpt>
      <trkpt lat="45.14894" lon="5.99041">
        <ele>2525.1</ele>
        <time>2015-02-19T10:59:14.570Z</time>
      </trkpt>
      <trkpt lat="45.149" lon="5.99049">
        <ele>2530</ele>
        <time>2015-02-19T10:59:45.520Z</time>
      </trkpt>
      <trkpt lat="45.14903" lon="5.99057">
        <ele>2531.2</ele>
        <time>2015-02-19T10:59:56.620Z</time>
      </trkpt>
      <trkpt lat="45.14903" lon="5.9905">
        <ele>2533.6</ele>
        <time>2015-02-19T11:00:16.570Z</time>
      </trkpt>
      <trkpt lat="45.14902" lon="5.99044">
        <ele>2534</ele>
        <time>2015-02-19T11:00:29.570Z</time>
      </trkpt>
      <trkpt lat="45.14908" lon="5.99051">
        <ele>2537</ele>
        <time>2015-02-19T11:00:59.620Z</time>
      </trkpt>
      <trkpt lat="45.14906" lon="5.99044">
        <ele>2539.5</ele>
        <time>2015-02-19T11:01:22.470Z</time>
      </trkpt>
      <trkpt lat="45.14906" lon="5.99038">
        <ele>2542.1</ele>
        <time>2015-02-19T11:01:31.570Z</time>
      </trkpt>
      <trkpt lat="45.1491" lon="5.99045">
        <ele>2544.7</ele>
        <time>2015-02-19T11:01:49.610Z</time>
      </trkpt>
      <trkpt lat="45.14915" lon="5.99051">
        <ele>2545</ele>
        <time>2015-02-19T11:03:52.470Z</time>
      </trkpt>
      <trkpt lat="45.14914" lon="5.99045">
        <ele>2545</ele>
        <time>2015-02-19T11:15:17.780Z</time>
      </trkpt>
      <trkpt lat="45.14915" lon="5.99035">
        <ele>2545</ele>
        <time>2015-02-19T11:15:19.680Z</time>
      </trkpt>
      <trkpt lat="45.14918" lon="5.99022">
        <ele>2545</ele>
        <time>2015-02-19T11:15:23.930Z</time>
      </trkpt>
      <trkpt lat="45.14919" lon="5.99004">
        <ele>2545</ele>
        <time>2015-02-19T11:15:29.160Z</time>
      </trkpt>
      <trkpt lat="45.14925" lon="5.98989">
        <ele>2540.4</ele>
        <time>2015-02-19T11:15:31.940Z</time>
      </trkpt>
      <trkpt lat="45.1493" lon="5.98972">
        <ele>2529.6</ele>
        <time>2015-02-19T11:15:34.680Z</time>
      </trkpt>
      <trkpt lat="45.14935" lon="5.98958">
        <ele>2518</ele>
        <time>2015-02-19T11:15:37.610Z</time>
      </trkpt>
      <trkpt lat="45.14941" lon="5.98944">
        <ele>2504.3</ele>
        <time>2015-02-19T11:15:41.170Z</time>
      </trkpt>
      <trkpt lat="45.14945" lon="5.98929">
        <ele>2497.7</ele>
        <time>2015-02-19T11:15:43.680Z</time>
      </trkpt>
      <trkpt lat="45.14949" lon="5.98909">
        <ele>2490.1</ele>
        <time>2015-02-19T11:15:46.580Z</time>
      </trkpt>
      <trkpt lat="45.14954" lon="5.98893">
        <ele>2481.8</ele>
        <time>2015-02-19T11:15:49.780Z</time>
      </trkpt>
      <trkpt lat="45.14958" lon="5.98875">
        <ele>2473.5</ele>
        <time>2015-02-19T11:15:52.930Z</time>
      </trkpt>
      <trkpt lat="45.14961" lon="5.98861">
        <ele>2468.4</ele>
        <time>2015-02-19T11:15:54.910Z</time>
      </trkpt>
      <trkpt lat="45.14966" lon="5.98847">
        <ele>2462</ele>
        <time>2015-02-19T11:15:57.360Z</time>
      </trkpt>
      <trkpt lat="45.1497" lon="5.98832">
        <ele>2457.7</ele>
        <time>2015-02-19T11:15:59.030Z</time>
      </trkpt>
      <trkpt lat="45.14973" lon="5.98817">
        <ele>2452.7</ele>
        <time>2015-02-19T11:16:01.110Z</time>
      </trkpt>
      <trkpt lat="45.14981" lon="5.98804">
        <ele>2450.9</ele>
        <time>2015-02-19T11:16:02.900Z</time>
      </trkpt>
      <trkpt lat="45.1498" lon="5.98817">
        <ele>2443</ele>
        <time>2015-02-19T11:16:45.580Z</time>
      </trkpt>
      <trkpt lat="45.14974" lon="5.98821">
        <ele>2442</ele>
        <time>2015-02-19T11:17:18.740Z</time>
      </trkpt>
      <trkpt lat="45.14971" lon="5.9881">
        <ele>2441.9</ele>
        <time>2015-02-19T11:17:31.840Z</time>
      </trkpt>
      <trkpt lat="45.1497" lon="5.98796">
        <ele>2441.7</ele>
        <time>2015-02-19T11:17:33.860Z</time>
      </trkpt>
      <trkpt lat="45.14968" lon="5.98782">
        <ele>2441.5</ele>
        <time>2015-02-19T11:17:35.690Z</time>
      </trkpt>
      <trkpt lat="45.14964" lon="5.98763">
        <ele>2441.2</ele>
        <time>2015-02-19T11:17:38.740Z</time>
      </trkpt>
      <trkpt lat="45.14962" lon="5.98743">
        <ele>2437.1</ele>
        <time>2015-02-19T11:17:42.010Z</time>
      </trkpt>
      <trkpt lat="45.1496" lon="5.98729">
        <ele>2430.4</ele>
        <time>2015-02-19T11:17:43.750Z</time>
      </trkpt>
      <trkpt lat="45.1496" lon="5.98713">
        <ele>2423.4</ele>
        <time>2015-02-19T11:17:45.590Z</time>
      </trkpt>
      <trkpt lat="45.14958" lon="5.98676">
        <ele>2400.5</ele>
        <time>2015-02-19T11:17:51.950Z</time>
      </trkpt>
      <trkpt lat="45.14955" lon="5.98661">
        <ele>2395.5</ele>
        <time>2015-02-19T11:17:54.000Z</time>
      </trkpt>
      <trkpt lat="45.14953" lon="5.98645">
        <ele>2391</ele>
        <time>2015-02-19T11:17:55.840Z</time>
      </trkpt>
      <trkpt lat="45.14963" lon="5.98622">
        <ele>2385.9</ele>
        <time>2015-02-19T11:17:57.940Z</time>
      </trkpt>
      <trkpt lat="45.14953" lon="5.98633">
        <ele>2379</ele>
        <time>2015-02-19T11:18:48.560Z</time>
      </trkpt>
      <trkpt lat="45.14944" lon="5.98635">
        <ele>2378.8</ele>
        <time>2015-02-19T11:18:53.010Z</time>
      </trkpt>
      <trkpt lat="45.14934" lon="5.98631">
        <ele>2378.5</ele>
        <time>2015-02-19T11:18:55.870Z</time>
      </trkpt>
      <trkpt lat="45.14931" lon="5.98616">
        <ele>2377.7</ele>
        <time>2015-02-19T11:19:01.850Z</time>
      </trkpt>
      <trkpt lat="45.14935" lon="5.98598">
        <ele>2376.8</ele>
        <time>2015-02-19T11:19:04.690Z</time>
      </trkpt>
      <trkpt lat="45.14942" lon="5.98583">
        <ele>2375.9</ele>
        <time>2015-02-19T11:19:07.770Z</time>
      </trkpt>
      <trkpt lat="45.14946" lon="5.98567">
        <ele>2375.4</ele>
        <time>2015-02-19T11:19:09.640Z</time>
      </trkpt>
      <trkpt lat="45.14954" lon="5.98551">
        <ele>2370.3</ele>
        <time>2015-02-19T11:19:11.920Z</time>
      </trkpt>
      <trkpt lat="45.14959" lon="5.98536">
        <ele>2360.4</ele>
        <time>2015-02-19T11:19:14.210Z</time>
      </trkpt>
      <trkpt lat="45.1496" lon="5.98518">
        <ele>2349</ele>
        <time>2015-02-19T11:19:16.830Z</time>
      </trkpt>
      <trkpt lat="45.14961" lon="5.98504">
        <ele>2339.8</ele>
        <time>2015-02-19T11:19:18.950Z</time>
      </trkpt>
      <trkpt lat="45.14962" lon="5.98488">
        <ele>2331</ele>
        <time>2015-02-19T11:19:21.000Z</time>
      </trkpt>
      <trkpt lat="45.14968" lon="5.98474">
        <ele>2324.5</ele>
        <time>2015-02-19T11:19:23.070Z</time>
      </trkpt>
      <trkpt lat="45.14974" lon="5.98456">
        <ele>2318.5</ele>
        <time>2015-02-19T11:19:25.010Z</time>
      </trkpt>
      <trkpt lat="45.14978" lon="5.98435">
        <ele>2311.4</ele>
        <time>2015-02-19T11:19:27.300Z</time>
      </trkpt>
      <trkpt lat="45.14988" lon="5.98423">
        <ele>2306.1</ele>
        <time>2015-02-19T11:19:29.000Z</time>
      </trkpt>
      <trkpt lat="45.1499" lon="5.98365">
        <ele>2290.9</ele>
        <time>2015-02-19T11:19:34.750Z</time>
      </trkpt>
      <trkpt lat="45.14986" lon="5.98343">
        <ele>2286.1</ele>
        <time>2015-02-19T11:19:36.780Z</time>
      </trkpt>
      <trkpt lat="45.14988" lon="5.98319">
        <ele>2280.6</ele>
        <time>2015-02-19T11:19:39.080Z</time>
      </trkpt>
      <trkpt lat="45.14992" lon="5.98305">
        <ele>2279.2</ele>
        <time>2015-02-19T11:19:39.650Z</time>
      </trkpt>
      <trkpt lat="45.14996" lon="5.98286">
        <ele>2276</ele>
        <time>2015-02-19T11:19:41.030Z</time>
      </trkpt>
      <trkpt lat="45.14996" lon="5.98267">
        <ele>2270.6</ele>
        <time>2015-02-19T11:19:43.880Z</time>
      </trkpt>
      <trkpt lat="45.14996" lon="5.98241">
        <ele>2266.6</ele>
        <time>2015-02-19T11:19:45.990Z</time>
      </trkpt>
      <trkpt lat="45.15004" lon="5.98222">
        <ele>2261.9</ele>
        <time>2015-02-19T11:19:48.440Z</time>
      </trkpt>
      <trkpt lat="45.15013" lon="5.98216">
        <ele>2258.9</ele>
        <time>2015-02-19T11:19:50.060Z</time>
      </trkpt>
      <trkpt lat="45.15023" lon="5.98218">
        <ele>2254.2</ele>
        <time>2015-02-19T11:20:00.030Z</time>
      </trkpt>
      <trkpt lat="45.15017" lon="5.98222">
        <ele>2254.3</ele>
        <time>2015-02-19T11:25:36.930Z</time>
      </trkpt>
      <trkpt lat="45.15017" lon="5.98232">
        <ele>2257</ele>
        <time>2015-02-19T11:28:11.930Z</time>
      </trkpt>
      <trkpt lat="45.15018" lon="5.98241">
        <ele>2258.6</ele>
        <time>2015-02-19T11:29:49.930Z</time>
      </trkpt>
      <trkpt lat="45.1502" lon="5.9825">
        <ele>2258.8</ele>
        <time>2015-02-19T11:29:55.930Z</time>
      </trkpt>
      <trkpt lat="45.15022" lon="5.9826">
        <ele>2258.1</ele>
        <time>2015-02-19T11:30:02.930Z</time>
      </trkpt>
      <trkpt lat="45.15024" lon="5.98269">
        <ele>2258</ele>
        <time>2015-02-19T11:30:08.930Z</time>
      </trkpt>
      <trkpt lat="45.15027" lon="5.98281">
        <ele>2258</ele>
        <time>2015-02-19T11:30:16.930Z</time>
      </trkpt>
      <trkpt lat="45.15029" lon="5.98291">
        <ele>2258</ele>
        <time>2015-02-19T11:30:23.930Z</time>
      </trkpt>
      <trkpt lat="45.15031" lon="5.98301">
        <ele>2259.6</ele>
        <time>2015-02-19T11:30:31.930Z</time>
      </trkpt>
      <trkpt lat="45.15034" lon="5.9831">
        <ele>2260</ele>
        <time>2015-02-19T11:30:40.960Z</time>
      </trkpt>
      <trkpt lat="45.15036" lon="5.98321">
        <ele>2261.6</ele>
        <time>2015-02-19T11:30:51.930Z</time>
      </trkpt>
      <trkpt lat="45.15038" lon="5.98331">
        <ele>2263.8</ele>
        <time>2015-02-19T11:31:02.930Z</time>
      </trkpt>
      <trkpt lat="45.1504" lon="5.98343">
        <ele>2266</ele>
        <time>2015-02-19T11:31:13.930Z</time>
      </trkpt>
      <trkpt lat="45.1504" lon="5.98352">
        <ele>2267.8</ele>
        <time>2015-02-19T11:31:22.950Z</time>
      </trkpt>
      <trkpt lat="45.1504" lon="5.98361">
        <ele>2268.9</ele>
        <time>2015-02-19T11:31:32.930Z</time>
      </trkpt>
      <trkpt lat="45.15044" lon="5.98368">
        <ele>2269.9</ele>
        <time>2015-02-19T11:31:42.930Z</time>
      </trkpt>
      <trkpt lat="45.15039" lon="5.98374">
        <ele>2272</ele>
        <time>2015-02-19T11:31:53.930Z</time>
      </trkpt>
      <trkpt lat="45.15033" lon="5.98376">
        <ele>2272.8</ele>
        <time>2015-02-19T11:32:01.930Z</time>
      </trkpt>
      <trkpt lat="45.15034" lon="5.9839">
        <ele>2277.7</ele>
        <time>2015-02-19T11:32:30.930Z</time>
      </trkpt>
      <trkpt lat="45.15039" lon="5.98399">
        <ele>2278.9</ele>
        <time>2015-02-19T11:32:42.930Z</time>
      </trkpt>
      <trkpt lat="45.15043" lon="5.98409">
        <ele>2280.8</ele>
        <time>2015-02-19T11:32:52.930Z</time>
      </trkpt>
      <trkpt lat="45.15044" lon="5.9842">
        <ele>2282</ele>
        <time>2015-02-19T11:33:03.930Z</time>
      </trkpt>
      <trkpt lat="45.15045" lon="5.98431">
        <ele>2283.1</ele>
        <time>2015-02-19T11:33:14.950Z</time>
      </trkpt>
      <trkpt lat="45.15046" lon="5.98439">
        <ele>2284</ele>
        <time>2015-02-19T11:33:23.930Z</time>
      </trkpt>
      <trkpt lat="45.15048" lon="5.98448">
        <ele>2285.2</ele>
        <time>2015-02-19T11:33:35.950Z</time>
      </trkpt>
      <trkpt lat="45.15051" lon="5.98458">
        <ele>2286.5</ele>
        <time>2015-02-19T11:33:48.930Z</time>
      </trkpt>
      <trkpt lat="45.15054" lon="5.98469">
        <ele>2288.4</ele>
        <time>2015-02-19T11:34:00.930Z</time>
      </trkpt>
      <trkpt lat="45.15057" lon="5.9848">
        <ele>2289</ele>
        <time>2015-02-19T11:34:11.930Z</time>
      </trkpt>
      <trkpt lat="45.1506" lon="5.98489">
        <ele>2289.8</ele>
        <time>2015-02-19T11:34:21.930Z</time>
      </trkpt>
      <trkpt lat="45.15067" lon="5.98497">
        <ele>2291.4</ele>
        <time>2015-02-19T11:34:35.930Z</time>
      </trkpt>
      <trkpt lat="45.15073" lon="5.98503">
        <ele>2293.3</ele>
        <time>2015-02-19T11:34:46.670Z</time>
      </trkpt>
      <trkpt lat="45.15078" lon="5.98511">
        <ele>2295</ele>
        <time>2015-02-19T11:34:58.930Z</time>
      </trkpt>
      <trkpt lat="45.1508" lon="5.98523">
        <ele>2296.6</ele>
        <time>2015-02-19T11:35:09.930Z</time>
      </trkpt>
      <trkpt lat="45.15085" lon="5.9853">
        <ele>2297.8</ele>
        <time>2015-02-19T11:35:21.930Z</time>
      </trkpt>
      <trkpt lat="45.1509" lon="5.98536">
        <ele>2300</ele>
        <time>2015-02-19T11:35:43.810Z</time>
      </trkpt>
      <trkpt lat="45.15095" lon="5.98542">
        <ele>2301</ele>
        <time>2015-02-19T11:35:54.030Z</time>
      </trkpt>
      <trkpt lat="45.15102" lon="5.98549">
        <ele>2302.1</ele>
        <time>2015-02-19T11:36:04.580Z</time>
      </trkpt>
      <trkpt lat="45.15109" lon="5.98554">
        <ele>2303.8</ele>
        <time>2015-02-19T11:36:17.760Z</time>
      </trkpt>
      <trkpt lat="45.15117" lon="5.98556">
        <ele>2306.2</ele>
        <time>2015-02-19T11:36:29.750Z</time>
      </trkpt>
      <trkpt lat="45.15123" lon="5.98552">
        <ele>2307.6</ele>
        <time>2015-02-19T11:36:39.750Z</time>
      </trkpt>
      <trkpt lat="45.15128" lon="5.98546">
        <ele>2309.2</ele>
        <time>2015-02-19T11:36:49.870Z</time>
      </trkpt>
      <trkpt lat="45.15136" lon="5.98551">
        <ele>2311.8</ele>
        <time>2015-02-19T11:37:02.750Z</time>
      </trkpt>
      <trkpt lat="45.15137" lon="5.98558">
        <ele>2314</ele>
        <time>2015-02-19T11:38:42.780Z</time>
      </trkpt>
      <trkpt lat="45.15141" lon="5.98567">
        <ele>2314.2</ele>
        <time>2015-02-19T11:39:44.790Z</time>
      </trkpt>
      <trkpt lat="45.15142" lon="5.98577">
        <ele>2315.7</ele>
        <time>2015-02-19T11:39:52.570Z</time>
      </trkpt>
      <trkpt lat="45.15143" lon="5.98587">
        <ele>2316.8</ele>
        <time>2015-02-19T11:40:02.000Z</time>
      </trkpt>
      <trkpt lat="45.15145" lon="5.98597">
        <ele>2317.8</ele>
        <time>2015-02-19T11:40:11.750Z</time>
      </trkpt>
      <trkpt lat="45.15145" lon="5.98605">
        <ele>2318.6</ele>
        <time>2015-02-19T11:40:19.780Z</time>
      </trkpt>
      <trkpt lat="45.15145" lon="5.98616">
        <ele>2319.8</ele>
        <time>2015-02-19T11:40:31.780Z</time>
      </trkpt>
      <trkpt lat="45.15152" lon="5.98622">
        <ele>2324.2</ele>
        <time>2015-02-19T11:40:45.750Z</time>
      </trkpt>
      <trkpt lat="45.15154" lon="5.98633">
        <ele>2325.4</ele>
        <time>2015-02-19T11:40:57.780Z</time>
      </trkpt>
      <trkpt lat="45.1516" lon="5.9864">
        <ele>2328.3</ele>
        <time>2015-02-19T11:41:09.680Z</time>
      </trkpt>
      <trkpt lat="45.15166" lon="5.98643">
        <ele>2330.5</ele>
        <time>2015-02-19T11:41:18.580Z</time>
      </trkpt>
      <trkpt lat="45.15169" lon="5.98652">
        <ele>2332.2</ele>
        <time>2015-02-19T11:41:29.750Z</time>
      </trkpt>
      <trkpt lat="45.15177" lon="5.9866">
        <ele>2335</ele>
        <time>2015-02-19T11:41:44.070Z</time>
      </trkpt>
      <trkpt lat="45.15183" lon="5.98667">
        <ele>2336.4</ele>
        <time>2015-02-19T11:41:55.650Z</time>
      </trkpt>
      <trkpt lat="45.15188" lon="5.9867">
        <ele>2337.8</ele>
        <time>2015-02-19T11:42:02.780Z</time>
      </trkpt>
      <trkpt lat="45.15194" lon="5.98674">
        <ele>2338.7</ele>
        <time>2015-02-19T11:42:11.030Z</time>
      </trkpt>
      <trkpt lat="45.15199" lon="5.98678">
        <ele>2339.4</ele>
        <time>2015-02-19T11:42:17.850Z</time>
      </trkpt>
      <trkpt lat="45.15204" lon="5.98683">
        <ele>2340.2</ele>
        <time>2015-02-19T11:42:25.850Z</time>
      </trkpt>
      <trkpt lat="45.15209" lon="5.98685">
        <ele>2340.9</ele>
        <time>2015-02-19T11:42:32.580Z</time>
      </trkpt>
      <trkpt lat="45.15215" lon="5.98688">
        <ele>2342.6</ele>
        <time>2015-02-19T11:42:42.030Z</time>
      </trkpt>
      <trkpt lat="45.15222" lon="5.98693">
        <ele>2344.8</ele>
        <time>2015-02-19T11:42:52.930Z</time>
      </trkpt>
      <trkpt lat="45.15229" lon="5.987">
        <ele>2346.7</ele>
        <time>2015-02-19T11:43:02.250Z</time>
      </trkpt>
      <trkpt lat="45.15239" lon="5.98706">
        <ele>2348</ele>
        <time>2015-02-19T11:43:23.870Z</time>
      </trkpt>
      <trkpt lat="45.15247" lon="5.98709">
        <ele>2349.3</ele>
        <time>2015-02-19T11:43:36.830Z</time>
      </trkpt>
      <trkpt lat="45.15257" lon="5.98711">
        <ele>2351.2</ele>
        <time>2015-02-19T11:43:49.930Z</time>
      </trkpt>
      <trkpt lat="45.15264" lon="5.98706">
        <ele>2353.6</ele>
        <time>2015-02-19T11:44:01.870Z</time>
      </trkpt>
      <trkpt lat="45.15273" lon="5.9871">
        <ele>2356.7</ele>
        <time>2015-02-19T11:44:12.830Z</time>
      </trkpt>
      <trkpt lat="45.15281" lon="5.98713">
        <ele>2359</ele>
        <time>2015-02-19T11:44:24.930Z</time>
      </trkpt>
      <trkpt lat="45.1529" lon="5.98719">
        <ele>2360</ele>
        <time>2015-02-19T11:44:51.930Z</time>
      </trkpt>
      <trkpt lat="45.15295" lon="5.9873">
        <ele>2362.2</ele>
        <time>2015-02-19T11:45:04.930Z</time>
      </trkpt>
      <trkpt lat="45.153" lon="5.98743">
        <ele>2364.8</ele>
        <time>2015-02-19T11:45:17.930Z</time>
      </trkpt>
      <trkpt lat="45.15304" lon="5.98752">
        <ele>2366.5</ele>
        <time>2015-02-19T11:46:18.930Z</time>
      </trkpt>
      <trkpt lat="45.15305" lon="5.98762">
        <ele>2367.6</ele>
        <time>2015-02-19T11:46:26.870Z</time>
      </trkpt>
      <trkpt lat="45.15306" lon="5.98772">
        <ele>2369.4</ele>
        <time>2015-02-19T11:46:35.930Z</time>
      </trkpt>
      <trkpt lat="45.1531" lon="5.98778">
        <ele>2371</ele>
        <time>2015-02-19T11:46:43.930Z</time>
      </trkpt>
      <trkpt lat="45.15318" lon="5.98788">
        <ele>2372.4</ele>
        <time>2015-02-19T11:46:57.870Z</time>
      </trkpt>
      <trkpt lat="45.15322" lon="5.98794">
        <ele>2373.4</ele>
        <time>2015-02-19T11:47:05.930Z</time>
      </trkpt>
      <trkpt lat="45.15327" lon="5.98798">
        <ele>2375</ele>
        <time>2015-02-19T11:47:13.930Z</time>
      </trkpt>
      <trkpt lat="45.15332" lon="5.98805">
        <ele>2378</ele>
        <time>2015-02-19T11:47:23.930Z</time>
      </trkpt>
      <trkpt lat="45.15338" lon="5.98811">
        <ele>2379.8</ele>
        <time>2015-02-19T11:47:32.930Z</time>
      </trkpt>
      <trkpt lat="45.15345" lon="5.98821">
        <ele>2382.2</ele>
        <time>2015-02-19T11:47:45.830Z</time>
      </trkpt>
      <trkpt lat="45.1535" lon="5.98827">
        <ele>2383</ele>
        <time>2015-02-19T11:47:53.930Z</time>
      </trkpt>
      <trkpt lat="45.15353" lon="5.98836">
        <ele>2385.6</ele>
        <time>2015-02-19T11:48:06.870Z</time>
      </trkpt>
      <trkpt lat="45.15357" lon="5.98845">
        <ele>2387.6</ele>
        <time>2015-02-19T11:48:16.970Z</time>
      </trkpt>
      <trkpt lat="45.1536" lon="5.98855">
        <ele>2389.7</ele>
        <time>2015-02-19T11:48:30.930Z</time>
      </trkpt>
      <trkpt lat="45.15353" lon="5.98861">
        <ele>2392</ele>
        <time>2015-02-19T11:49:12.930Z</time>
      </trkpt>
      <trkpt lat="45.15346" lon="5.98862">
        <ele>2392.7</ele>
        <time>2015-02-19T11:49:20.830Z</time>
      </trkpt>
      <trkpt lat="45.15338" lon="5.98864">
        <ele>2394.4</ele>
        <time>2015-02-19T11:49:30.970Z</time>
      </trkpt>
      <trkpt lat="45.1533" lon="5.98865">
        <ele>2396.8</ele>
        <time>2015-02-19T11:49:43.070Z</time>
      </trkpt>
      <trkpt lat="45.15322" lon="5.98867">
        <ele>2399.3</ele>
        <time>2015-02-19T11:49:56.930Z</time>
      </trkpt>
      <trkpt lat="45.15329" lon="5.98878">
        <ele>2403.2</ele>
        <time>2015-02-19T11:50:30.030Z</time>
      </trkpt>
      <trkpt lat="45.15335" lon="5.98886">
        <ele>2406</ele>
        <time>2015-02-19T11:50:46.030Z</time>
      </trkpt>
      <trkpt lat="45.15341" lon="5.98896">
        <ele>2406.4</ele>
        <time>2015-02-19T11:51:07.830Z</time>
      </trkpt>
      <trkpt lat="45.15345" lon="5.98904">
        <ele>2408.2</ele>
        <time>2015-02-19T11:51:19.930Z</time>
      </trkpt>
      <trkpt lat="45.1534" lon="5.98912">
        <ele>2411.6</ele>
        <time>2015-02-19T11:51:39.970Z</time>
      </trkpt>
      <trkpt lat="45.15332" lon="5.98912">
        <ele>2412.6</ele>
        <time>2015-02-19T11:51:49.930Z</time>
      </trkpt>
      <trkpt lat="45.15324" lon="5.9891">
        <ele>2414.9</ele>
        <time>2015-02-19T11:52:06.950Z</time>
      </trkpt>
      <trkpt lat="45.15316" lon="5.98908">
        <ele>2417.5</ele>
        <time>2015-02-19T11:52:19.050Z</time>
      </trkpt>
      <trkpt lat="45.15321" lon="5.98915">
        <ele>2421.8</ele>
        <time>2015-02-19T11:54:02.050Z</time>
      </trkpt>
      <trkpt lat="45.15325" lon="5.98924">
        <ele>2423.1</ele>
        <time>2015-02-19T11:54:14.830Z</time>
      </trkpt>
      <trkpt lat="45.15319" lon="5.98929">
        <ele>2427</ele>
        <time>2015-02-19T11:54:49.070Z</time>
      </trkpt>
      <trkpt lat="45.15312" lon="5.98927">
        <ele>2428</ele>
        <time>2015-02-19T11:54:57.870Z</time>
      </trkpt>
      <trkpt lat="45.15305" lon="5.98925">
        <ele>2428.4</ele>
        <time>2015-02-19T11:55:07.930Z</time>
      </trkpt>
      <trkpt lat="45.15309" lon="5.98933">
        <ele>2432</ele>
        <time>2015-02-19T11:55:33.950Z</time>
      </trkpt>
      <trkpt lat="45.15314" lon="5.98943">
        <ele>2433.8</ele>
        <time>2015-02-19T11:55:47.930Z</time>
      </trkpt>
      <trkpt lat="45.15318" lon="5.98952">
        <ele>2435.7</ele>
        <time>2015-02-19T11:56:00.970Z</time>
      </trkpt>
      <trkpt lat="45.15322" lon="5.98961">
        <ele>2438.3</ele>
        <time>2015-02-19T11:56:16.830Z</time>
      </trkpt>
      <trkpt lat="45.15313" lon="5.98962">
        <ele>2440.3</ele>
        <time>2015-02-19T11:56:34.870Z</time>
      </trkpt>
      <trkpt lat="45.15305" lon="5.98959">
        <ele>2443.4</ele>
        <time>2015-02-19T11:56:47.870Z</time>
      </trkpt>
      <trkpt lat="45.15296" lon="5.98955">
        <ele>2444.8</ele>
        <time>2015-02-19T11:57:01.870Z</time>
      </trkpt>
      <trkpt lat="45.1529" lon="5.98951">
        <ele>2445</ele>
        <time>2015-02-19T11:57:11.930Z</time>
      </trkpt>
      <trkpt lat="45.15293" lon="5.98958">
        <ele>2447.8</ele>
        <time>2015-02-19T11:57:31.870Z</time>
      </trkpt>
      <trkpt lat="45.15298" lon="5.98967">
        <ele>2448</ele>
        <time>2015-02-19T11:57:43.930Z</time>
      </trkpt>
      <trkpt lat="45.15302" lon="5.98974">
        <ele>2449.7</ele>
        <time>2015-02-19T11:57:57.350Z</time>
      </trkpt>
      <trkpt lat="45.15306" lon="5.98983">
        <ele>2452.1</ele>
        <time>2015-02-19T11:58:14.970Z</time>
      </trkpt>
      <trkpt lat="45.15311" lon="5.98991">
        <ele>2453.6</ele>
        <time>2015-02-19T11:58:26.830Z</time>
      </trkpt>
      <trkpt lat="45.15304" lon="5.98991">
        <ele>2458.2</ele>
        <time>2015-02-19T12:01:05.830Z</time>
      </trkpt>
      <trkpt lat="45.15298" lon="5.98988">
        <ele>2459.1</ele>
        <time>2015-02-19T12:01:14.970Z</time>
      </trkpt>
      <trkpt lat="45.1529" lon="5.98983">
        <ele>2460.4</ele>
        <time>2015-02-19T12:01:28.070Z</time>
      </trkpt>
      <trkpt lat="45.15284" lon="5.98979">
        <ele>2461.8</ele>
        <time>2015-02-19T12:01:37.870Z</time>
      </trkpt>
      <trkpt lat="45.15288" lon="5.98989">
        <ele>2465.4</ele>
        <time>2015-02-19T12:02:17.970Z</time>
      </trkpt>
      <trkpt lat="45.15292" lon="5.98997">
        <ele>2466</ele>
        <time>2015-02-19T12:02:30.930Z</time>
      </trkpt>
      <trkpt lat="45.15297" lon="5.99006">
        <ele>2469.7</ele>
        <time>2015-02-19T12:02:42.930Z</time>
      </trkpt>
      <trkpt lat="45.15301" lon="5.99012">
        <ele>2470</ele>
        <time>2015-02-19T12:02:52.060Z</time>
      </trkpt>
      <trkpt lat="45.15294" lon="5.9901">
        <ele>2472.4</ele>
        <time>2015-02-19T12:03:07.930Z</time>
      </trkpt>
      <trkpt lat="45.15287" lon="5.99006">
        <ele>2473.5</ele>
        <time>2015-02-19T12:03:18.970Z</time>
      </trkpt>
      <trkpt lat="45.15281" lon="5.99003">
        <ele>2474.4</ele>
        <time>2015-02-19T12:03:27.710Z</time>
      </trkpt>
      <trkpt lat="45.15283" lon="5.99012">
        <ele>2478.1</ele>
        <time>2015-02-19T12:03:54.830Z</time>
      </trkpt>
      <trkpt lat="45.15287" lon="5.9902">
        <ele>2479.3</ele>
        <time>2015-02-19T12:04:04.830Z</time>
      </trkpt>
      <trkpt lat="45.15291" lon="5.99026">
        <ele>2482</ele>
        <time>2015-02-19T12:04:16.830Z</time>
      </trkpt>
      <trkpt lat="45.15295" lon="5.99033">
        <ele>2484.4</ele>
        <time>2015-02-19T12:04:48.030Z</time>
      </trkpt>
      <trkpt lat="45.15287" lon="5.99036">
        <ele>2487</ele>
        <time>2015-02-19T12:05:29.860Z</time>
      </trkpt>
      <trkpt lat="45.15282" lon="5.99032">
        <ele>2491</ele>
        <time>2015-02-19T12:05:54.030Z</time>
      </trkpt>
      <trkpt lat="45.15287" lon="5.99039">
        <ele>2491.7</ele>
        <time>2015-02-19T12:06:01.070Z</time>
      </trkpt>
      <trkpt lat="45.15292" lon="5.99047">
        <ele>2493</ele>
        <time>2015-02-19T12:06:36.830Z</time>
      </trkpt>
      <trkpt lat="45.15296" lon="5.99052">
        <ele>2495.7</ele>
        <time>2015-02-19T12:07:00.830Z</time>
      </trkpt>
      <trkpt lat="45.15302" lon="5.99059">
        <ele>2496</ele>
        <time>2015-02-19T12:07:31.880Z</time>
      </trkpt>
      <trkpt lat="45.15309" lon="5.99066">
        <ele>2497.5</ele>
        <time>2015-02-19T12:07:46.050Z</time>
      </trkpt>
      <trkpt lat="45.15315" lon="5.99069">
        <ele>2499</ele>
        <time>2015-02-19T12:07:57.070Z</time>
      </trkpt>
      <trkpt lat="45.15322" lon="5.99072">
        <ele>2500.4</ele>
        <time>2015-02-19T12:08:10.970Z</time>
      </trkpt>
      <trkpt lat="45.15315" lon="5.99076">
        <ele>2502</ele>
        <time>2015-02-19T12:08:31.840Z</time>
      </trkpt>
      <trkpt lat="45.15309" lon="5.99078">
        <ele>2503.6</ele>
        <time>2015-02-19T12:08:41.830Z</time>
      </trkpt>
      <trkpt lat="45.15315" lon="5.99083">
        <ele>2507</ele>
        <time>2015-02-19T12:09:13.950Z</time>
      </trkpt>
      <trkpt lat="45.15322" lon="5.99086">
        <ele>2510.4</ele>
        <time>2015-02-19T12:09:27.950Z</time>
      </trkpt>
      <trkpt lat="45.15316" lon="5.99092">
        <ele>2513.4</ele>
        <time>2015-02-19T12:09:58.030Z</time>
      </trkpt>
      <trkpt lat="45.1531" lon="5.99093">
        <ele>2514.8</ele>
        <time>2015-02-19T12:10:08.060Z</time>
      </trkpt>
      <trkpt lat="45.15316" lon="5.99098">
        <ele>2516</ele>
        <time>2015-02-19T12:10:29.930Z</time>
      </trkpt>
      <trkpt lat="45.15323" lon="5.99102">
        <ele>2516.7</ele>
        <time>2015-02-19T12:10:40.970Z</time>
      </trkpt>
      <trkpt lat="45.1533" lon="5.99103">
        <ele>2518.3</ele>
        <time>2015-02-19T12:10:54.970Z</time>
      </trkpt>
      <trkpt lat="45.15324" lon="5.99107">
        <ele>2521</ele>
        <time>2015-02-19T12:11:08.930Z</time>
      </trkpt>
      <trkpt lat="45.15317" lon="5.9911">
        <ele>2521.8</ele>
        <time>2015-02-19T12:11:21.930Z</time>
      </trkpt>
      <trkpt lat="45.15311" lon="5.99111">
        <ele>2524.5</ele>
        <time>2015-02-19T12:11:31.960Z</time>
      </trkpt>
      <trkpt lat="45.15315" lon="5.99117">
        <ele>2526.2</ele>
        <time>2015-02-19T12:11:55.960Z</time>
      </trkpt>
      <trkpt lat="45.15309" lon="5.99121">
        <ele>2530.2</ele>
        <time>2015-02-19T12:12:34.930Z</time>
      </trkpt>
      <trkpt lat="45.15302" lon="5.9912">
        <ele>2532.4</ele>
        <time>2015-02-19T12:12:46.060Z</time>
      </trkpt>
      <trkpt lat="45.15294" lon="5.99119">
        <ele>2534.3</ele>
        <time>2015-02-19T12:12:57.030Z</time>
      </trkpt>
      <trkpt lat="45.153" lon="5.99124">
        <ele>2536</ele>
        <time>2015-02-19T12:13:13.830Z</time>
      </trkpt>
      <trkpt lat="45.15305" lon="5.99131">
        <ele>2537.4</ele>
        <time>2015-02-19T12:13:25.930Z</time>
      </trkpt>
      <trkpt lat="45.1531" lon="5.99138">
        <ele>2539</ele>
        <time>2015-02-19T12:13:37.970Z</time>
      </trkpt>
      <trkpt lat="45.15316" lon="5.99145">
        <ele>2539.5</ele>
        <time>2015-02-19T12:13:49.030Z</time>
      </trkpt>
      <trkpt lat="45.15322" lon="5.99149">
        <ele>2540.4</ele>
        <time>2015-02-19T12:13:57.930Z</time>
      </trkpt>
      <trkpt lat="45.15329" lon="5.99149">
        <ele>2542</ele>
        <time>2015-02-19T12:14:08.970Z</time>
      </trkpt>
      <trkpt lat="45.15336" lon="5.99149">
        <ele>2543.5</ele>
        <time>2015-02-19T12:14:19.030Z</time>
      </trkpt>
      <trkpt lat="45.15343" lon="5.99148">
        <ele>2543.3</ele>
        <time>2015-02-19T12:14:50.980Z</time>
      </trkpt>
      <trkpt lat="45.1535" lon="5.9915">
        <ele>2542.4</ele>
        <time>2015-02-19T12:21:17.680Z</time>
      </trkpt>
      <trkpt lat="45.15356" lon="5.99155">
        <ele>2543.3</ele>
        <time>2015-02-19T12:21:26.930Z</time>
      </trkpt>
      <trkpt lat="45.15363" lon="5.99162">
        <ele>2544.8</ele>
        <time>2015-02-19T12:21:36.680Z</time>
      </trkpt>
      <trkpt lat="45.15368" lon="5.99167">
        <ele>2547</ele>
        <time>2015-02-19T12:21:44.680Z</time>
      </trkpt>
      <trkpt lat="45.15374" lon="5.99173">
        <ele>2547</ele>
        <time>2015-02-19T12:21:52.680Z</time>
      </trkpt>
      <trkpt lat="45.15378" lon="5.9918">
        <ele>2547</ele>
        <time>2015-02-19T12:22:01.000Z</time>
      </trkpt>
      <trkpt lat="45.15382" lon="5.99187">
        <ele>2548</ele>
        <time>2015-02-19T12:22:08.730Z</time>
      </trkpt>
      <trkpt lat="45.15386" lon="5.99196">
        <ele>2549</ele>
        <time>2015-02-19T12:22:18.050Z</time>
      </trkpt>
      <trkpt lat="45.15389" lon="5.99203">
        <ele>2549</ele>
        <time>2015-02-19T12:22:25.890Z</time>
      </trkpt>
      <trkpt lat="45.15396" lon="5.99214">
        <ele>2549.8</ele>
        <time>2015-02-19T12:22:41.570Z</time>
      </trkpt>
      <trkpt lat="45.15402" lon="5.99219">
        <ele>2549.1</ele>
        <time>2015-02-19T12:22:44.910Z</time>
      </trkpt>
      <trkpt lat="45.1541" lon="5.99223">
        <ele>2547.4</ele>
        <time>2015-02-19T12:22:47.050Z</time>
      </trkpt>
      <trkpt lat="45.15418" lon="5.99224">
        <ele>2545.8</ele>
        <time>2015-02-19T12:22:49.030Z</time>
      </trkpt>
      <trkpt lat="45.15424" lon="5.99223">
        <ele>2543.4</ele>
        <time>2015-02-19T12:22:52.100Z</time>
      </trkpt>
      <trkpt lat="45.1543" lon="5.99223">
        <ele>2541.2</ele>
        <time>2015-02-19T12:22:57.670Z</time>
      </trkpt>
      <trkpt lat="45.15436" lon="5.99225">
        <ele>2540</ele>
        <time>2015-02-19T12:23:03.800Z</time>
      </trkpt>
      <trkpt lat="45.15442" lon="5.99227">
        <ele>2540</ele>
        <time>2015-02-19T12:23:09.570Z</time>
      </trkpt>
      <trkpt lat="45.1545" lon="5.99227">
        <ele>2539.7</ele>
        <time>2015-02-19T12:23:14.570Z</time>
      </trkpt>
      <trkpt lat="45.15458" lon="5.99226">
        <ele>2538.4</ele>
        <time>2015-02-19T12:23:17.940Z</time>
      </trkpt>
      <trkpt lat="45.15466" lon="5.99227">
        <ele>2536</ele>
        <time>2015-02-19T12:23:24.670Z</time>
      </trkpt>
      <trkpt lat="45.15477" lon="5.99227">
        <ele>2536.7</ele>
        <time>2015-02-19T12:23:37.580Z</time>
      </trkpt>
      <trkpt lat="45.15489" lon="5.99228">
        <ele>2538.9</ele>
        <time>2015-02-19T12:23:52.770Z</time>
      </trkpt>
      <trkpt lat="45.15501" lon="5.9923">
        <ele>2539.3</ele>
        <time>2015-02-19T12:24:06.580Z</time>
      </trkpt>
      <trkpt lat="45.15516" lon="5.99233">
        <ele>2542</ele>
        <time>2015-02-19T12:24:23.870Z</time>
      </trkpt>
      <trkpt lat="45.15527" lon="5.99235">
        <ele>2544</ele>
        <time>2015-02-19T12:25:42.580Z</time>
      </trkpt>
      <trkpt lat="45.15539" lon="5.99234">
        <ele>2545</ele>
        <time>2015-02-19T12:25:57.780Z</time>
      </trkpt>
      <trkpt lat="45.1555" lon="5.99235">
        <ele>2546.8</ele>
        <time>2015-02-19T12:26:12.880Z</time>
      </trkpt>
      <trkpt lat="45.15562" lon="5.99234">
        <ele>2549</ele>
        <time>2015-02-19T12:26:28.780Z</time>
      </trkpt>
      <trkpt lat="45.15572" lon="5.99233">
        <ele>2550.8</ele>
        <time>2015-02-19T12:26:47.780Z</time>
      </trkpt>
      <trkpt lat="45.15583" lon="5.99232">
        <ele>2553.3</ele>
        <time>2015-02-19T12:27:06.780Z</time>
      </trkpt>
      <trkpt lat="45.15601" lon="5.99237">
        <ele>2557.3</ele>
        <time>2015-02-19T12:28:27.100Z</time>
      </trkpt>
      <trkpt lat="45.15596" lon="5.99242">
        <ele>2558.6</ele>
        <time>2015-02-19T12:28:39.880Z</time>
      </trkpt>
      <trkpt lat="45.15589" lon="5.99249">
        <ele>2560.4</ele>
        <time>2015-02-19T12:29:17.770Z</time>
      </trkpt>
      <trkpt lat="45.15584" lon="5.99254">
        <ele>2561.6</ele>
        <time>2015-02-19T12:29:26.680Z</time>
      </trkpt>
      <trkpt lat="45.1559" lon="5.99254">
        <ele>2564.4</ele>
        <time>2015-02-19T12:29:48.630Z</time>
      </trkpt>
      <trkpt lat="45.15595" lon="5.99255">
        <ele>2566.4</ele>
        <time>2015-02-19T12:29:57.780Z</time>
      </trkpt>
      <trkpt lat="45.156" lon="5.99257">
        <ele>2567.4</ele>
        <time>2015-02-19T12:30:05.660Z</time>
      </trkpt>
      <trkpt lat="45.15605" lon="5.9926">
        <ele>2568.9</ele>
        <time>2015-02-19T12:30:14.770Z</time>
      </trkpt>
      <trkpt lat="45.15611" lon="5.99264">
        <ele>2568.1</ele>
        <time>2015-02-19T12:30:22.800Z</time>
      </trkpt>
      <trkpt lat="45.15615" lon="5.99268">
        <ele>2570.4</ele>
        <time>2015-02-19T12:30:31.780Z</time>
      </trkpt>
      <trkpt lat="45.1561" lon="5.99272">
        <ele>2573.2</ele>
        <time>2015-02-19T12:30:54.780Z</time>
      </trkpt>
      <trkpt lat="45.15614" lon="5.99277">
        <ele>2574</ele>
        <time>2015-02-19T12:31:19.900Z</time>
      </trkpt>
      <trkpt lat="45.15619" lon="5.9928">
        <ele>2575</ele>
        <time>2015-02-19T12:31:33.800Z</time>
      </trkpt>
      <trkpt lat="45.15625" lon="5.99283">
        <ele>2578</ele>
        <time>2015-02-19T12:31:58.680Z</time>
      </trkpt>
      <trkpt lat="45.15631" lon="5.99287">
        <ele>2579.4</ele>
        <time>2015-02-19T12:32:10.680Z</time>
      </trkpt>
      <trkpt lat="45.15627" lon="5.99294">
        <ele>2582.3</ele>
        <time>2015-02-19T12:32:34.920Z</time>
      </trkpt>
      <trkpt lat="45.15633" lon="5.99298">
        <ele>2585.5</ele>
        <time>2015-02-19T12:32:56.680Z</time>
      </trkpt>
      <trkpt lat="45.15638" lon="5.99302">
        <ele>2587.4</ele>
        <time>2015-02-19T12:33:05.860Z</time>
      </trkpt>
      <trkpt lat="45.15644" lon="5.99306">
        <ele>2589.3</ele>
        <time>2015-02-19T12:33:16.880Z</time>
      </trkpt>
      <trkpt lat="45.1565" lon="5.99309">
        <ele>2590</ele>
        <time>2015-02-19T12:33:28.780Z</time>
      </trkpt>
      <trkpt lat="45.15657" lon="5.99311">
        <ele>2591.4</ele>
        <time>2015-02-19T12:33:40.680Z</time>
      </trkpt>
      <trkpt lat="45.15663" lon="5.99311">
        <ele>2592.7</ele>
        <time>2015-02-19T12:33:50.780Z</time>
      </trkpt>
      <trkpt lat="45.15668" lon="5.9931">
        <ele>2593.7</ele>
        <time>2015-02-19T12:34:00.780Z</time>
      </trkpt>
      <trkpt lat="45.15664" lon="5.99321">
        <ele>2596</ele>
        <time>2015-02-19T12:34:18.750Z</time>
      </trkpt>
      <trkpt lat="45.15658" lon="5.99327">
        <ele>2598.4</ele>
        <time>2015-02-19T12:34:30.950Z</time>
      </trkpt>
      <trkpt lat="45.15652" lon="5.99331">
        <ele>2599</ele>
        <time>2015-02-19T12:34:41.680Z</time>
      </trkpt>
      <trkpt lat="45.15645" lon="5.99333">
        <ele>2599.9</ele>
        <time>2015-02-19T12:34:53.130Z</time>
      </trkpt>
      <trkpt lat="45.15651" lon="5.99338">
        <ele>2602.7</ele>
        <time>2015-02-19T12:35:10.880Z</time>
      </trkpt>
      <trkpt lat="45.15658" lon="5.99342">
        <ele>2603.8</ele>
        <time>2015-02-19T12:35:22.030Z</time>
      </trkpt>
      <trkpt lat="45.15664" lon="5.99342">
        <ele>2606.7</ele>
        <time>2015-02-19T12:35:32.950Z</time>
      </trkpt>
      <trkpt lat="45.15664" lon="5.99352">
        <ele>2611</ele>
        <time>2015-02-19T12:35:53.800Z</time>
      </trkpt>
      <trkpt lat="45.15664" lon="5.99361">
        <ele>2612</ele>
        <time>2015-02-19T12:36:04.080Z</time>
      </trkpt>
      <trkpt lat="45.15668" lon="5.99372">
        <ele>2613.7</ele>
        <time>2015-02-19T12:36:20.930Z</time>
      </trkpt>
      <trkpt lat="45.15674" lon="5.99378">
        <ele>2614</ele>
        <time>2015-02-19T12:36:30.850Z</time>
      </trkpt>
      <trkpt lat="45.15678" lon="5.99386">
        <ele>2615.2</ele>
        <time>2015-02-19T12:36:39.780Z</time>
      </trkpt>
      <trkpt lat="45.1568" lon="5.99396">
        <ele>2616</ele>
        <time>2015-02-19T12:37:38.680Z</time>
      </trkpt>
      <trkpt lat="45.15686" lon="5.99399">
        <ele>2616.4</ele>
        <time>2015-02-19T12:37:47.860Z</time>
      </trkpt>
      <trkpt lat="45.15692" lon="5.99403">
        <ele>2618.1</ele>
        <time>2015-02-19T12:38:04.750Z</time>
      </trkpt>
      <trkpt lat="45.15696" lon="5.99409">
        <ele>2619.2</ele>
        <time>2015-02-19T12:38:14.330Z</time>
      </trkpt>
      <trkpt lat="45.157" lon="5.99416">
        <ele>2622</ele>
        <time>2015-02-19T12:38:24.080Z</time>
      </trkpt>
      <trkpt lat="45.15704" lon="5.99423">
        <ele>2623</ele>
        <time>2015-02-19T12:38:34.020Z</time>
      </trkpt>
      <trkpt lat="45.15709" lon="5.9943">
        <ele>2623.4</ele>
        <time>2015-02-19T12:38:45.900Z</time>
      </trkpt>
      <trkpt lat="45.15712" lon="5.99437">
        <ele>2625.1</ele>
        <time>2015-02-19T12:38:54.660Z</time>
      </trkpt>
      <trkpt lat="45.15713" lon="5.99444">
        <ele>2626.3</ele>
        <time>2015-02-19T12:39:16.880Z</time>
      </trkpt>
      <trkpt lat="45.15715" lon="5.99435">
        <ele>2627.6</ele>
        <time>2015-02-19T12:39:29.650Z</time>
      </trkpt>
      <trkpt lat="45.15717" lon="5.99426">
        <ele>2628.8</ele>
        <time>2015-02-19T12:39:41.880Z</time>
      </trkpt>
      <trkpt lat="45.15724" lon="5.9943">
        <ele>2631.2</ele>
        <time>2015-02-19T12:40:00.040Z</time>
      </trkpt>
      <trkpt lat="45.15726" lon="5.99437">
        <ele>2633.2</ele>
        <time>2015-02-19T12:40:14.780Z</time>
      </trkpt>
      <trkpt lat="45.15719" lon="5.99433">
        <ele>2631</ele>
        <time>2015-02-19T13:19:52.170Z</time>
      </trkpt>
      <trkpt lat="45.15711" lon="5.99434">
        <ele>2631</ele>
        <time>2015-02-19T13:19:54.030Z</time>
      </trkpt>
      <trkpt lat="45.15703" lon="5.9943">
        <ele>2629.9</ele>
        <time>2015-02-19T13:19:55.900Z</time>
      </trkpt>
      <trkpt lat="45.15693" lon="5.99437">
        <ele>2627.9</ele>
        <time>2015-02-19T13:19:59.160Z</time>
      </trkpt>
      <trkpt lat="45.15689" lon="5.99449">
        <ele>2626.4</ele>
        <time>2015-02-19T13:20:01.740Z</time>
      </trkpt>
      <trkpt lat="45.15686" lon="5.99461">
        <ele>2620.2</ele>
        <time>2015-02-19T13:20:56.240Z</time>
      </trkpt>
      <trkpt lat="45.15691" lon="5.99473">
        <ele>2620.9</ele>
        <time>2015-02-19T13:23:04.800Z</time>
      </trkpt>
      <trkpt lat="45.15701" lon="5.99471">
        <ele>2614.6</ele>
        <time>2015-02-19T13:23:26.170Z</time>
      </trkpt>
      <trkpt lat="45.15711" lon="5.99474">
        <ele>2608.1</ele>
        <time>2015-02-19T13:23:31.870Z</time>
      </trkpt>
      <trkpt lat="45.15723" lon="5.99487">
        <ele>2584.8</ele>
        <time>2015-02-19T13:23:50.770Z</time>
      </trkpt>
      <trkpt lat="45.15734" lon="5.99482">
        <ele>2581</ele>
        <time>2015-02-19T13:23:55.820Z</time>
      </trkpt>
      <trkpt lat="45.15745" lon="5.99487">
        <ele>2574.8</ele>
        <time>2015-02-19T13:24:06.020Z</time>
      </trkpt>
      <trkpt lat="45.15755" lon="5.99484">
        <ele>2568.1</ele>
        <time>2015-02-19T13:24:12.110Z</time>
      </trkpt>
      <trkpt lat="45.15764" lon="5.99479">
        <ele>2565.1</ele>
        <time>2015-02-19T13:24:16.230Z</time>
      </trkpt>
      <trkpt lat="45.15777" lon="5.99481">
        <ele>2548.8</ele>
        <time>2015-02-19T13:24:39.720Z</time>
      </trkpt>
      <trkpt lat="45.15787" lon="5.99485">
        <ele>2536.8</ele>
        <time>2015-02-19T13:24:50.870Z</time>
      </trkpt>
      <trkpt lat="45.15811" lon="5.9948">
        <ele>2529.9</ele>
        <time>2015-02-19T13:25:03.880Z</time>
      </trkpt>
      <trkpt lat="45.15825" lon="5.99481">
        <ele>2519.7</ele>
        <time>2015-02-19T13:25:14.110Z</time>
      </trkpt>
      <trkpt lat="45.15837" lon="5.99482">
        <ele>2516.7</ele>
        <time>2015-02-19T13:25:16.890Z</time>
      </trkpt>
      <trkpt lat="45.15831" lon="5.9947">
        <ele>2484.8</ele>
        <time>2015-02-19T13:25:43.200Z</time>
      </trkpt>
      <trkpt lat="45.15824" lon="5.99458">
        <ele>2483.2</ele>
        <time>2015-02-19T13:28:05.780Z</time>
      </trkpt>
      <trkpt lat="45.15825" lon="5.99473">
        <ele>2480.4</ele>
        <time>2015-02-19T13:29:06.700Z</time>
      </trkpt>
      <trkpt lat="45.15833" lon="5.99487">
        <ele>2474.9</ele>
        <time>2015-02-19T13:29:10.880Z</time>
      </trkpt>
      <trkpt lat="45.15841" lon="5.99498">
        <ele>2469.8</ele>
        <time>2015-02-19T13:29:14.350Z</time>
      </trkpt>
      <trkpt lat="45.1585" lon="5.99505">
        <ele>2465.6</ele>
        <time>2015-02-19T13:29:15.960Z</time>
      </trkpt>
      <trkpt lat="45.1586" lon="5.99507">
        <ele>2460.5</ele>
        <time>2015-02-19T13:29:17.970Z</time>
      </trkpt>
      <trkpt lat="45.1587" lon="5.99514">
        <ele>2454</ele>
        <time>2015-02-19T13:29:20.460Z</time>
      </trkpt>
      <trkpt lat="45.15883" lon="5.99522">
        <ele>2446.4</ele>
        <time>2015-02-19T13:29:23.420Z</time>
      </trkpt>
      <trkpt lat="45.15893" lon="5.99527">
        <ele>2441.2</ele>
        <time>2015-02-19T13:29:25.300Z</time>
      </trkpt>
      <trkpt lat="45.15905" lon="5.99531">
        <ele>2433.3</ele>
        <time>2015-02-19T13:29:28.120Z</time>
      </trkpt>
      <trkpt lat="45.15915" lon="5.99533">
        <ele>2428</ele>
        <time>2015-02-19T13:29:29.970Z</time>
      </trkpt>
      <trkpt lat="45.15967" lon="5.99628">
        <ele>2347</ele>
        <time>2015-02-19T13:30:08.860Z</time>
      </trkpt>
      <trkpt lat="45.1595" lon="5.99623">
        <ele>2347</ele>
        <time>2015-02-19T13:30:13.110Z</time>
      </trkpt>
      <trkpt lat="45.1596" lon="5.99621">
        <ele>2346.9</ele>
        <time>2015-02-19T13:31:02.720Z</time>
      </trkpt>
      <trkpt lat="45.1597" lon="5.99632">
        <ele>2344.3</ele>
        <time>2015-02-19T13:33:22.720Z</time>
      </trkpt>
      <trkpt lat="45.15978" lon="5.99643">
        <ele>2339.5</ele>
        <time>2015-02-19T13:33:25.760Z</time>
      </trkpt>
      <trkpt lat="45.15985" lon="5.99657">
        <ele>2332.2</ele>
        <time>2015-02-19T13:33:28.910Z</time>
      </trkpt>
      <trkpt lat="45.15992" lon="5.99672">
        <ele>2324.8</ele>
        <time>2015-02-19T13:33:32.150Z</time>
      </trkpt>
      <trkpt lat="45.16001" lon="5.99685">
        <ele>2316.7</ele>
        <time>2015-02-19T13:33:35.390Z</time>
      </trkpt>
      <trkpt lat="45.16011" lon="5.99694">
        <ele>2308.8</ele>
        <time>2015-02-19T13:33:38.360Z</time>
      </trkpt>
      <trkpt lat="45.16023" lon="5.99709">
        <ele>2298.8</ele>
        <time>2015-02-19T13:33:42.100Z</time>
      </trkpt>
      <trkpt lat="45.16035" lon="5.99721">
        <ele>2291.1</ele>
        <time>2015-02-19T13:33:44.880Z</time>
      </trkpt>
      <trkpt lat="45.16043" lon="5.99729">
        <ele>2284.6</ele>
        <time>2015-02-19T13:33:47.130Z</time>
      </trkpt>
      <trkpt lat="45.16051" lon="5.99739">
        <ele>2279.1</ele>
        <time>2015-02-19T13:33:49.030Z</time>
      </trkpt>
      <trkpt lat="45.1606" lon="5.99752">
        <ele>2270.8</ele>
        <time>2015-02-19T13:33:51.880Z</time>
      </trkpt>
      <trkpt lat="45.16069" lon="5.99765">
        <ele>2261.4</ele>
        <time>2015-02-19T13:33:55.140Z</time>
      </trkpt>
      <trkpt lat="45.16079" lon="5.99771">
        <ele>2256.8</ele>
        <time>2015-02-19T13:33:56.730Z</time>
      </trkpt>
      <trkpt lat="45.16093" lon="5.99777">
        <ele>2249.8</ele>
        <time>2015-02-19T13:33:59.170Z</time>
      </trkpt>
      <trkpt lat="45.16136" lon="5.99879">
        <ele>2211.5</ele>
        <time>2015-02-19T13:34:15.150Z</time>
      </trkpt>
      <trkpt lat="45.16147" lon="5.99877">
        <ele>2210.1</ele>
        <time>2015-02-19T13:34:16.190Z</time>
      </trkpt>
      <trkpt lat="45.16136" lon="5.99882">
        <ele>2208.6</ele>
        <time>2015-02-19T13:34:17.280Z</time>
      </trkpt>
      <trkpt lat="45.16138" lon="5.99896">
        <ele>2206</ele>
        <time>2015-02-19T13:34:19.140Z</time>
      </trkpt>
      <trkpt lat="45.16131" lon="5.99883">
        <ele>2198.7</ele>
        <time>2015-02-19T13:34:27.430Z</time>
      </trkpt>
      <trkpt lat="45.16128" lon="5.99862">
        <ele>2199.8</ele>
        <time>2015-02-19T13:35:01.880Z</time>
      </trkpt>
      <trkpt lat="45.16132" lon="5.99868">
        <ele>2198.2</ele>
        <time>2015-02-19T13:35:31.880Z</time>
      </trkpt>
      <trkpt lat="45.16128" lon="5.99883">
        <ele>2197.3</ele>
        <time>2015-02-19T13:35:50.890Z</time>
      </trkpt>
      <trkpt lat="45.16124" lon="5.999">
        <ele>2197.1</ele>
        <time>2015-02-19T13:35:53.010Z</time>
      </trkpt>
      <trkpt lat="45.16122" lon="5.99918">
        <ele>2195</ele>
        <time>2015-02-19T13:35:55.140Z</time>
      </trkpt>
      <trkpt lat="45.1612" lon="5.99931">
        <ele>2191.8</ele>
        <time>2015-02-19T13:35:57.030Z</time>
      </trkpt>
      <trkpt lat="45.16125" lon="5.99947">
        <ele>2186.2</ele>
        <time>2015-02-19T13:36:00.230Z</time>
      </trkpt>
      <trkpt lat="45.16129" lon="5.99966">
        <ele>2181</ele>
        <time>2015-02-19T13:36:03.230Z</time>
      </trkpt>
      <trkpt lat="45.16135" lon="5.99984">
        <ele>2173.7</ele>
        <time>2015-02-19T13:36:06.230Z</time>
      </trkpt>
      <trkpt lat="45.1614" lon="6">
        <ele>2169.2</ele>
        <time>2015-02-19T13:36:08.010Z</time>
      </trkpt>
      <trkpt lat="45.16143" lon="6.00015">
        <ele>2163</ele>
        <time>2015-02-19T13:36:10.400Z</time>
      </trkpt>
      <trkpt lat="45.16146" lon="6.00031">
        <ele>2158.6</ele>
        <time>2015-02-19T13:36:12.130Z</time>
      </trkpt>
      <trkpt lat="45.1615" lon="6.00047">
        <ele>2152.9</ele>
        <time>2015-02-19T13:36:14.440Z</time>
      </trkpt>
      <trkpt lat="45.16159" lon="6.00066">
        <ele>2148.9</ele>
        <time>2015-02-19T13:36:16.230Z</time>
      </trkpt>
      <trkpt lat="45.16162" lon="6.00082">
        <ele>2144.6</ele>
        <time>2015-02-19T13:36:18.230Z</time>
      </trkpt>
      <trkpt lat="45.16168" lon="6.00096">
        <ele>2140.7</ele>
        <time>2015-02-19T13:36:19.980Z</time>
      </trkpt>
      <trkpt lat="45.16182" lon="6.00111">
        <ele>2135.7</ele>
        <time>2015-02-19T13:36:22.280Z</time>
      </trkpt>
      <trkpt lat="45.16155" lon="6.0016">
        <ele>2128</ele>
        <time>2015-02-19T13:36:27.000Z</time>
      </trkpt>
      <trkpt lat="45.16156" lon="6.00176">
        <ele>2121.8</ele>
        <time>2015-02-19T13:36:31.770Z</time>
      </trkpt>
      <trkpt lat="45.16159" lon="6.00165">
        <ele>2117.7</ele>
        <time>2015-02-19T13:37:00.090Z</time>
      </trkpt>
      <trkpt lat="45.16159" lon="6.00158">
        <ele>2118</ele>
        <time>2015-02-19T13:38:10.890Z</time>
      </trkpt>
      <trkpt lat="45.16153" lon="6.0017">
        <ele>2118</ele>
        <time>2015-02-19T13:38:20.110Z</time>
      </trkpt>
      <trkpt lat="45.16147" lon="6.00177">
        <ele>2117.7</ele>
        <time>2015-02-19T13:38:26.980Z</time>
      </trkpt>
      <trkpt lat="45.16141" lon="6.00185">
        <ele>2116</ele>
        <time>2015-02-19T13:38:43.910Z</time>
      </trkpt>
      <trkpt lat="45.1614" lon="6.00201">
        <ele>2113</ele>
        <time>2015-02-19T13:38:46.850Z</time>
      </trkpt>
      <trkpt lat="45.16136" lon="6.00215">
        <ele>2109.8</ele>
        <time>2015-02-19T13:38:50.050Z</time>
      </trkpt>
      <trkpt lat="45.16124" lon="6.0022">
        <ele>2107.1</ele>
        <time>2015-02-19T13:38:52.710Z</time>
      </trkpt>
      <trkpt lat="45.16118" lon="6.0023">
        <ele>2101.1</ele>
        <time>2015-02-19T13:38:56.150Z</time>
      </trkpt>
      <trkpt lat="45.16118" lon="6.00243">
        <ele>2097.3</ele>
        <time>2015-02-19T13:38:57.980Z</time>
      </trkpt>
      <trkpt lat="45.16125" lon="6.00257">
        <ele>2091.4</ele>
        <time>2015-02-19T13:39:00.760Z</time>
      </trkpt>
      <trkpt lat="45.16129" lon="6.00271">
        <ele>2086.9</ele>
        <time>2015-02-19T13:39:02.910Z</time>
      </trkpt>
      <trkpt lat="45.16133" lon="6.00288">
        <ele>2081</ele>
        <time>2015-02-19T13:39:04.970Z</time>
      </trkpt>
      <trkpt lat="45.16137" lon="6.00303">
        <ele>2073.4</ele>
        <time>2015-02-19T13:39:07.170Z</time>
      </trkpt>
      <trkpt lat="45.1614" lon="6.00321">
        <ele>2066.7</ele>
        <time>2015-02-19T13:39:09.120Z</time>
      </trkpt>
      <trkpt lat="45.16144" lon="6.00338">
        <ele>2058.7</ele>
        <time>2015-02-19T13:39:11.400Z</time>
      </trkpt>
      <trkpt lat="45.16147" lon="6.00355">
        <ele>2051.8</ele>
        <time>2015-02-19T13:39:13.390Z</time>
      </trkpt>
      <trkpt lat="45.16149" lon="6.00371">
        <ele>2047.5</ele>
        <time>2015-02-19T13:39:14.990Z</time>
      </trkpt>
      <trkpt lat="45.16154" lon="6.00387">
        <ele>2041.7</ele>
        <time>2015-02-19T13:39:17.400Z</time>
      </trkpt>
      <trkpt lat="45.16156" lon="6.00408">
        <ele>2037.3</ele>
        <time>2015-02-19T13:39:19.270Z</time>
      </trkpt>
      <trkpt lat="45.16158" lon="6.0043">
        <ele>2033.1</ele>
        <time>2015-02-19T13:39:21.030Z</time>
      </trkpt>
      <trkpt lat="45.16168" lon="6.00452">
        <ele>2027.7</ele>
        <time>2015-02-19T13:39:23.300Z</time>
      </trkpt>
      <trkpt lat="45.16172" lon="6.00475">
        <ele>2025.1</ele>
        <time>2015-02-19T13:39:24.980Z</time>
      </trkpt>
      <trkpt lat="45.16166" lon="6.00494">
        <ele>2023.1</ele>
        <time>2015-02-19T13:39:27.160Z</time>
      </trkpt>
      <trkpt lat="45.16162" lon="6.00515">
        <ele>2021.1</ele>
        <time>2015-02-19T13:39:29.430Z</time>
      </trkpt>
      <trkpt lat="45.16156" lon="6.00534">
        <ele>2019.6</ele>
        <time>2015-02-19T13:39:30.980Z</time>
      </trkpt>
      <trkpt lat="45.16153" lon="6.00549">
        <ele>2017.6</ele>
        <time>2015-02-19T13:39:33.180Z</time>
      </trkpt>
      <trkpt lat="45.16151" lon="6.0056">
        <ele>2016</ele>
        <time>2015-02-19T13:39:44.780Z</time>
      </trkpt>
      <trkpt lat="45.16146" lon="6.00569">
        <ele>2016</ele>
        <time>2015-02-19T13:40:04.800Z</time>
      </trkpt>
      <trkpt lat="45.16142" lon="6.00588">
        <ele>2017</ele>
        <time>2015-02-19T13:40:30.870Z</time>
      </trkpt>
      <trkpt lat="45.16138" lon="6.00602">
        <ele>2018</ele>
        <time>2015-02-19T13:41:15.930Z</time>
      </trkpt>
      <trkpt lat="45.16132" lon="6.0061">
        <ele>2018</ele>
        <time>2015-02-19T13:41:29.980Z</time>
      </trkpt>
      <trkpt lat="45.16124" lon="6.00622">
        <ele>2018</ele>
        <time>2015-02-19T13:41:33.870Z</time>
      </trkpt>
      <trkpt lat="45.1612" lon="6.00634">
        <ele>2015.2</ele>
        <time>2015-02-19T13:41:37.010Z</time>
      </trkpt>
      <trkpt lat="45.16113" lon="6.00654">
        <ele>2012.6</ele>
        <time>2015-02-19T13:41:39.970Z</time>
      </trkpt>
      <trkpt lat="45.16107" lon="6.00666">
        <ele>2010.8</ele>
        <time>2015-02-19T13:41:41.920Z</time>
      </trkpt>
      <trkpt lat="45.16106" lon="6.00682">
        <ele>2008.5</ele>
        <time>2015-02-19T13:41:44.260Z</time>
      </trkpt>
      <trkpt lat="45.1611" lon="6.00698">
        <ele>2005.3</ele>
        <time>2015-02-19T13:41:46.000Z</time>
      </trkpt>
      <trkpt lat="45.16115" lon="6.00714">
        <ele>2001.2</ele>
        <time>2015-02-19T13:41:48.290Z</time>
      </trkpt>
      <trkpt lat="45.16118" lon="6.0073">
        <ele>1997.9</ele>
        <time>2015-02-19T13:41:50.080Z</time>
      </trkpt>
      <trkpt lat="45.16119" lon="6.00745">
        <ele>1994.2</ele>
        <time>2015-02-19T13:41:52.100Z</time>
      </trkpt>
      <trkpt lat="45.1612" lon="6.00759">
        <ele>1990.9</ele>
        <time>2015-02-19T13:41:53.980Z</time>
      </trkpt>
      <trkpt lat="45.16119" lon="6.00778">
        <ele>1989.3</ele>
        <time>2015-02-19T13:41:56.750Z</time>
      </trkpt>
      <trkpt lat="45.16122" lon="6.00797">
        <ele>1987.5</ele>
        <time>2015-02-19T13:41:59.780Z</time>
      </trkpt>
      <trkpt lat="45.16121" lon="6.0081">
        <ele>1985.6</ele>
        <time>2015-02-19T13:42:02.880Z</time>
      </trkpt>
      <trkpt lat="45.16119" lon="6.00828">
        <ele>1983.5</ele>
        <time>2015-02-19T13:42:09.030Z</time>
      </trkpt>
      <trkpt lat="45.16116" lon="6.00847">
        <ele>1982.5</ele>
        <time>2015-02-19T13:42:12.130Z</time>
      </trkpt>
      <trkpt lat="45.16115" lon="6.00861">
        <ele>1981.6</ele>
        <time>2015-02-19T13:42:14.460Z</time>
      </trkpt>
      <trkpt lat="45.16111" lon="6.00874">
        <ele>1980.5</ele>
        <time>2015-02-19T13:42:16.030Z</time>
      </trkpt>
      <trkpt lat="45.16111" lon="6.00891">
        <ele>1979.1</ele>
        <time>2015-02-19T13:42:17.990Z</time>
      </trkpt>
      <trkpt lat="45.1611" lon="6.00903">
        <ele>1977.4</ele>
        <time>2015-02-19T13:42:20.440Z</time>
      </trkpt>
      <trkpt lat="45.16112" lon="6.00916">
        <ele>1976.2</ele>
        <time>2015-02-19T13:42:22.230Z</time>
      </trkpt>
      <trkpt lat="45.16115" lon="6.0093">
        <ele>1975</ele>
        <time>2015-02-19T13:42:23.880Z</time>
      </trkpt>
      <trkpt lat="45.1612" lon="6.00943">
        <ele>1973.2</ele>
        <time>2015-02-19T13:42:26.180Z</time>
      </trkpt>
      <trkpt lat="45.16125" lon="6.00955">
        <ele>1971.8</ele>
        <time>2015-02-19T13:42:27.970Z</time>
      </trkpt>
      <trkpt lat="45.1613" lon="6.00966">
        <ele>1970.2</ele>
        <time>2015-02-19T13:42:29.870Z</time>
      </trkpt>
      <trkpt lat="45.16134" lon="6.00977">
        <ele>1967</ele>
        <time>2015-02-19T13:42:46.820Z</time>
      </trkpt>
      <trkpt lat="45.16135" lon="6.0099">
        <ele>1967.1</ele>
        <time>2015-02-19T13:42:54.880Z</time>
      </trkpt>
      <trkpt lat="45.16133" lon="6.01013">
        <ele>1970.6</ele>
        <time>2015-02-19T13:43:29.770Z</time>
      </trkpt>
      <trkpt lat="45.16129" lon="6.01026">
        <ele>1971</ele>
        <time>2015-02-19T13:43:59.870Z</time>
      </trkpt>
      <trkpt lat="45.1612" lon="6.01035">
        <ele>1971</ele>
        <time>2015-02-19T13:46:18.880Z</time>
      </trkpt>
      <trkpt lat="45.16114" lon="6.01031">
        <ele>1975.9</ele>
        <time>2015-02-19T13:49:26.920Z</time>
      </trkpt>
      <trkpt lat="45.16109" lon="6.01032">
        <ele>1978.1</ele>
        <time>2015-02-19T13:49:34.790Z</time>
      </trkpt>
      <trkpt lat="45.16099" lon="6.01035">
        <ele>1980</ele>
        <time>2015-02-19T13:49:48.770Z</time>
      </trkpt>
      <trkpt lat="45.16096" lon="6.01044">
        <ele>1981.9</ele>
        <time>2015-02-19T13:50:02.870Z</time>
      </trkpt>
      <trkpt lat="45.16094" lon="6.01058">
        <ele>1984.6</ele>
        <time>2015-02-19T13:50:26.870Z</time>
      </trkpt>
      <trkpt lat="45.16088" lon="6.01068">
        <ele>1986.8</ele>
        <time>2015-02-19T13:51:01.770Z</time>
      </trkpt>
      <trkpt lat="45.16083" lon="6.01072">
        <ele>1987</ele>
        <time>2015-02-19T13:51:09.030Z</time>
      </trkpt>
      <trkpt lat="45.16078" lon="6.01072">
        <ele>1987.2</ele>
        <time>2015-02-19T13:51:15.800Z</time>
      </trkpt>
      <trkpt lat="45.16067" lon="6.01072">
        <ele>1988.6</ele>
        <time>2015-02-19T13:51:29.970Z</time>
      </trkpt>
      <trkpt lat="45.16057" lon="6.01068">
        <ele>1991.1</ele>
        <time>2015-02-19T13:51:44.530Z</time>
      </trkpt>
      <trkpt lat="45.1605" lon="6.01079">
        <ele>1994.3</ele>
        <time>2015-02-19T13:52:06.800Z</time>
      </trkpt>
      <trkpt lat="45.16055" lon="6.01091">
        <ele>1995.7</ele>
        <time>2015-02-19T13:52:20.780Z</time>
      </trkpt>
      <trkpt lat="45.16063" lon="6.01101">
        <ele>1998.2</ele>
        <time>2015-02-19T13:52:35.970Z</time>
      </trkpt>
      <trkpt lat="45.16072" lon="6.01108">
        <ele>1999.9</ele>
        <time>2015-02-19T13:52:46.900Z</time>
      </trkpt>
      <trkpt lat="45.16079" lon="6.01119">
        <ele>2003.4</ele>
        <time>2015-02-19T13:53:00.840Z</time>
      </trkpt>
      <trkpt lat="45.16072" lon="6.01128">
        <ele>2006.3</ele>
        <time>2015-02-19T13:53:16.900Z</time>
      </trkpt>
      <trkpt lat="45.16063" lon="6.01126">
        <ele>2007</ele>
        <time>2015-02-19T13:53:27.880Z</time>
      </trkpt>
      <trkpt lat="45.16056" lon="6.01124">
        <ele>2008.1</ele>
        <time>2015-02-19T13:53:44.780Z</time>
      </trkpt>
      <trkpt lat="45.1605" lon="6.01123">
        <ele>2008.8</ele>
        <time>2015-02-19T13:53:51.700Z</time>
      </trkpt>
      <trkpt lat="45.16043" lon="6.01121">
        <ele>2009.8</ele>
        <time>2015-02-19T13:54:01.780Z</time>
      </trkpt>
      <trkpt lat="45.16037" lon="6.0112">
        <ele>2011.2</ele>
        <time>2015-02-19T13:54:09.960Z</time>
      </trkpt>
      <trkpt lat="45.16027" lon="6.01118">
        <ele>2013.8</ele>
        <time>2015-02-19T13:54:23.000Z</time>
      </trkpt>
      <trkpt lat="45.16016" lon="6.01115">
        <ele>2016.1</ele>
        <time>2015-02-19T13:54:34.710Z</time>
      </trkpt>
      <trkpt lat="45.16006" lon="6.01115">
        <ele>2017.6</ele>
        <time>2015-02-19T13:54:49.810Z</time>
      </trkpt>
      <trkpt lat="45.15996" lon="6.0111">
        <ele>2021</ele>
        <time>2015-02-19T13:55:03.800Z</time>
      </trkpt>
      <trkpt lat="45.15986" lon="6.01115">
        <ele>2021.5</ele>
        <time>2015-02-19T13:55:18.910Z</time>
      </trkpt>
      <trkpt lat="45.15979" lon="6.01126">
        <ele>2023.8</ele>
        <time>2015-02-19T13:55:32.880Z</time>
      </trkpt>
      <trkpt lat="45.15984" lon="6.01139">
        <ele>2024</ele>
        <time>2015-02-19T13:55:55.710Z</time>
      </trkpt>
      <trkpt lat="45.15988" lon="6.01152">
        <ele>2024.3</ele>
        <time>2015-02-19T13:56:30.980Z</time>
      </trkpt>
      <trkpt lat="45.1599" lon="6.01166">
        <ele>2024</ele>
        <time>2015-02-19T13:56:41.810Z</time>
      </trkpt>
      <trkpt lat="45.15994" lon="6.0118">
        <ele>2024</ele>
        <time>2015-02-19T13:56:56.310Z</time>
      </trkpt>
      <trkpt lat="45.16001" lon="6.01191">
        <ele>2024</ele>
        <time>2015-02-19T13:57:05.800Z</time>
      </trkpt>
      <trkpt lat="45.16007" lon="6.01203">
        <ele>2024.3</ele>
        <time>2015-02-19T13:57:17.000Z</time>
      </trkpt>
      <trkpt lat="45.16011" lon="6.01217">
        <ele>2026</ele>
        <time>2015-02-19T13:57:28.980Z</time>
      </trkpt>
      <trkpt lat="45.16015" lon="6.01231">
        <ele>2027</ele>
        <time>2015-02-19T13:57:38.870Z</time>
      </trkpt>
      <trkpt lat="45.16018" lon="6.01245">
        <ele>2027</ele>
        <time>2015-02-19T13:57:48.980Z</time>
      </trkpt>
      <trkpt lat="45.16023" lon="6.01257">
        <ele>2027</ele>
        <time>2015-02-19T13:58:01.070Z</time>
      </trkpt>
      <trkpt lat="45.16027" lon="6.01267">
        <ele>2027.7</ele>
        <time>2015-02-19T13:58:10.780Z</time>
      </trkpt>
      <trkpt lat="45.16028" lon="6.01277">
        <ele>2030</ele>
        <time>2015-02-19T13:59:16.800Z</time>
      </trkpt>
      <trkpt lat="45.16021" lon="6.01288">
        <ele>2032</ele>
        <time>2015-02-19T14:06:13.130Z</time>
      </trkpt>
      <trkpt lat="45.1602" lon="6.01301">
        <ele>2030.4</ele>
        <time>2015-02-19T14:06:15.130Z</time>
      </trkpt>
      <trkpt lat="45.16017" lon="6.01309">
        <ele>2029.2</ele>
        <time>2015-02-19T14:06:16.130Z</time>
      </trkpt>
      <trkpt lat="45.16013" lon="6.01316">
        <ele>2028</ele>
        <time>2015-02-19T14:06:17.130Z</time>
      </trkpt>
      <trkpt lat="45.1601" lon="6.01322">
        <ele>2026.8</ele>
        <time>2015-02-19T14:06:18.150Z</time>
      </trkpt>
      <trkpt lat="45.16007" lon="6.01328">
        <ele>2025.6</ele>
        <time>2015-02-19T14:06:19.130Z</time>
      </trkpt>
      <trkpt lat="45.16003" lon="6.01332">
        <ele>2024.4</ele>
        <time>2015-02-19T14:06:20.130Z</time>
      </trkpt>
      <trkpt lat="45.15998" lon="6.01337">
        <ele>2023.2</ele>
        <time>2015-02-19T14:06:21.130Z</time>
      </trkpt>
      <trkpt lat="45.15994" lon="6.01339">
        <ele>2022</ele>
        <time>2015-02-19T14:06:22.130Z</time>
      </trkpt>
      <trkpt lat="45.15988" lon="6.01337">
        <ele>2019.9</ele>
        <time>2015-02-19T14:06:24.130Z</time>
      </trkpt>
      <trkpt lat="45.15981" lon="6.01336">
        <ele>2019.3</ele>
        <time>2015-02-19T14:06:26.130Z</time>
      </trkpt>
      <trkpt lat="45.15969" lon="6.01336">
        <ele>2018.4</ele>
        <time>2015-02-19T14:06:29.130Z</time>
      </trkpt>
      <trkpt lat="45.15959" lon="6.01336">
        <ele>2017.5</ele>
        <time>2015-02-19T14:06:32.150Z</time>
      </trkpt>
      <trkpt lat="45.1595" lon="6.01337">
        <ele>2016.7</ele>
        <time>2015-02-19T14:06:35.130Z</time>
      </trkpt>
      <trkpt lat="45.15941" lon="6.01338">
        <ele>2016.1</ele>
        <time>2015-02-19T14:06:38.130Z</time>
      </trkpt>
      <trkpt lat="45.15933" lon="6.01341">
        <ele>2015.7</ele>
        <time>2015-02-19T14:06:40.130Z</time>
      </trkpt>
      <trkpt lat="45.15923" lon="6.01348">
        <ele>2015.1</ele>
        <time>2015-02-19T14:06:43.130Z</time>
      </trkpt>
      <trkpt lat="45.15925" lon="6.0136">
        <ele>2008.3</ele>
        <time>2015-02-19T14:06:47.130Z</time>
      </trkpt>
      <trkpt lat="45.1593" lon="6.01378">
        <ele>2002.3</ele>
        <time>2015-02-19T14:06:50.130Z</time>
      </trkpt>
      <trkpt lat="45.15935" lon="6.01399">
        <ele>1996.3</ele>
        <time>2015-02-19T14:06:53.130Z</time>
      </trkpt>
      <trkpt lat="45.15938" lon="6.01416">
        <ele>1992.3</ele>
        <time>2015-02-19T14:06:55.130Z</time>
      </trkpt>
      <trkpt lat="45.15938" lon="6.01436">
        <ele>1988.3</ele>
        <time>2015-02-19T14:06:57.130Z</time>
      </trkpt>
      <trkpt lat="45.15939" lon="6.0146">
        <ele>1984.3</ele>
        <time>2015-02-19T14:06:59.130Z</time>
      </trkpt>
      <trkpt lat="45.15932" lon="6.01479">
        <ele>1980.3</ele>
        <time>2015-02-19T14:07:01.130Z</time>
      </trkpt>
      <trkpt lat="45.15929" lon="6.01499">
        <ele>1974.7</ele>
        <time>2015-02-19T14:07:04.130Z</time>
      </trkpt>
      <trkpt lat="45.15917" lon="6.01506">
        <ele>1973.1</ele>
        <time>2015-02-19T14:07:06.130Z</time>
      </trkpt>
      <trkpt lat="45.15907" lon="6.01509">
        <ele>1971.5</ele>
        <time>2015-02-19T14:07:08.130Z</time>
      </trkpt>
      <trkpt lat="45.15895" lon="6.0151">
        <ele>1969.9</ele>
        <time>2015-02-19T14:07:10.130Z</time>
      </trkpt>
      <trkpt lat="45.15885" lon="6.01512">
        <ele>1968.3</ele>
        <time>2015-02-19T14:07:12.130Z</time>
      </trkpt>
      <trkpt lat="45.15874" lon="6.01515">
        <ele>1966.7</ele>
        <time>2015-02-19T14:07:15.130Z</time>
      </trkpt>
      <trkpt lat="45.15864" lon="6.01516">
        <ele>1966.1</ele>
        <time>2015-02-19T14:07:18.130Z</time>
      </trkpt>
      <trkpt lat="45.15852" lon="6.01519">
        <ele>1965.5</ele>
        <time>2015-02-19T14:07:21.130Z</time>
      </trkpt>
      <trkpt lat="45.15841" lon="6.01525">
        <ele>1964.4</ele>
        <time>2015-02-19T14:07:24.130Z</time>
      </trkpt>
      <trkpt lat="45.15834" lon="6.01533">
        <ele>1959.6</ele>
        <time>2015-02-19T14:07:27.130Z</time>
      </trkpt>
      <trkpt lat="45.15833" lon="6.01566">
        <ele>1951.6</ele>
        <time>2015-02-19T14:07:32.130Z</time>
      </trkpt>
      <trkpt lat="45.15836" lon="6.01582">
        <ele>1948.4</ele>
        <time>2015-02-19T14:07:34.130Z</time>
      </trkpt>
      <trkpt lat="45.15828" lon="6.01594">
        <ele>1945</ele>
        <time>2015-02-19T14:07:36.130Z</time>
      </trkpt>
      <trkpt lat="45.15818" lon="6.01604">
        <ele>1941.9</ele>
        <time>2015-02-19T14:07:37.950Z</time>
      </trkpt>
      <trkpt lat="45.15816" lon="6.01618">
        <ele>1936.5</ele>
        <time>2015-02-19T14:07:41.130Z</time>
      </trkpt>
      <trkpt lat="45.15813" lon="6.01632">
        <ele>1933.1</ele>
        <time>2015-02-19T14:07:43.130Z</time>
      </trkpt>
      <trkpt lat="45.15802" lon="6.01646">
        <ele>1930.9</ele>
        <time>2015-02-19T14:07:45.130Z</time>
      </trkpt>
      <trkpt lat="45.15791" lon="6.01655">
        <ele>1929.3</ele>
        <time>2015-02-19T14:07:47.130Z</time>
      </trkpt>
      <trkpt lat="45.1578" lon="6.01663">
        <ele>1926.9</ele>
        <time>2015-02-19T14:07:50.130Z</time>
      </trkpt>
      <trkpt lat="45.15771" lon="6.01669">
        <ele>1922.1</ele>
        <time>2015-02-19T14:07:55.130Z</time>
      </trkpt>
      <trkpt lat="45.15769" lon="6.01684">
        <ele>1916.5</ele>
        <time>2015-02-19T14:07:59.130Z</time>
      </trkpt>
      <trkpt lat="45.15768" lon="6.01704">
        <ele>1912.3</ele>
        <time>2015-02-19T14:08:02.130Z</time>
      </trkpt>
      <trkpt lat="45.15764" lon="6.01723">
        <ele>1909.2</ele>
        <time>2015-02-19T14:08:04.130Z</time>
      </trkpt>
      <trkpt lat="45.15753" lon="6.01736">
        <ele>1904.4</ele>
        <time>2015-02-19T14:08:06.130Z</time>
      </trkpt>
      <trkpt lat="45.15743" lon="6.01752">
        <ele>1899.6</ele>
        <time>2015-02-19T14:08:08.130Z</time>
      </trkpt>
      <trkpt lat="45.15737" lon="6.01774">
        <ele>1894.8</ele>
        <time>2015-02-19T14:08:10.130Z</time>
      </trkpt>
      <trkpt lat="45.15733" lon="6.01788">
        <ele>1892.4</ele>
        <time>2015-02-19T14:08:11.130Z</time>
      </trkpt>
      <trkpt lat="45.15728" lon="6.01801">
        <ele>1890</ele>
        <time>2015-02-19T14:08:12.130Z</time>
      </trkpt>
      <trkpt lat="45.15723" lon="6.01813">
        <ele>1887.6</ele>
        <time>2015-02-19T14:08:13.130Z</time>
      </trkpt>
      <trkpt lat="45.15718" lon="6.01825">
        <ele>1885.7</ele>
        <time>2015-02-19T14:08:14.130Z</time>
      </trkpt>
      <trkpt lat="45.15708" lon="6.01847">
        <ele>1883.9</ele>
        <time>2015-02-19T14:08:16.130Z</time>
      </trkpt>
      <trkpt lat="45.15699" lon="6.01863">
        <ele>1882.1</ele>
        <time>2015-02-19T14:08:18.130Z</time>
      </trkpt>
      <trkpt lat="45.15692" lon="6.01874">
        <ele>1879.4</ele>
        <time>2015-02-19T14:08:21.130Z</time>
      </trkpt>
      <trkpt lat="45.15688" lon="6.01891">
        <ele>1875.5</ele>
        <time>2015-02-19T14:08:41.130Z</time>
      </trkpt>
      <trkpt lat="45.15685" lon="6.0191">
        <ele>1874.4</ele>
        <time>2015-02-19T14:08:44.130Z</time>
      </trkpt>
      <trkpt lat="45.15682" lon="6.01926">
        <ele>1871</ele>
        <time>2015-02-19T14:08:46.130Z</time>
      </trkpt>
      <trkpt lat="45.15681" lon="6.01939">
        <ele>1867.6</ele>
        <time>2015-02-19T14:08:48.130Z</time>
      </trkpt>
      <trkpt lat="45.15676" lon="6.01953">
        <ele>1864.2</ele>
        <time>2015-02-19T14:08:50.130Z</time>
      </trkpt>
      <trkpt lat="45.15671" lon="6.01968">
        <ele>1860.8</ele>
        <time>2015-02-19T14:08:52.130Z</time>
      </trkpt>
      <trkpt lat="45.15668" lon="6.01982">
        <ele>1857.9</ele>
        <time>2015-02-19T14:08:54.130Z</time>
      </trkpt>
      <trkpt lat="45.15661" lon="6.01993">
        <ele>1856.4</ele>
        <time>2015-02-19T14:08:59.130Z</time>
      </trkpt>
      <trkpt lat="45.1566" lon="6.02005">
        <ele>1855.8</ele>
        <time>2015-02-19T14:09:01.130Z</time>
      </trkpt>
      <trkpt lat="45.15651" lon="6.0201">
        <ele>1854.9</ele>
        <time>2015-02-19T14:09:05.130Z</time>
      </trkpt>
      <trkpt lat="45.15646" lon="6.02019">
        <ele>1853.7</ele>
        <time>2015-02-19T14:09:15.130Z</time>
      </trkpt>
      <trkpt lat="45.15641" lon="6.02031">
        <ele>1853.1</ele>
        <time>2015-02-19T14:09:18.130Z</time>
      </trkpt>
      <trkpt lat="45.15633" lon="6.02045">
        <ele>1852.5</ele>
        <time>2015-02-19T14:09:21.130Z</time>
      </trkpt>
      <trkpt lat="45.15626" lon="6.02052">
        <ele>1851.5</ele>
        <time>2015-02-19T14:09:29.130Z</time>
      </trkpt>
      <trkpt lat="45.15618" lon="6.02061">
        <ele>1852</ele>
        <time>2015-02-19T14:09:50.970Z</time>
      </trkpt>
      <trkpt lat="45.15612" lon="6.02066">
        <ele>1851.6</ele>
        <time>2015-02-19T14:09:55.030Z</time>
      </trkpt>
      <trkpt lat="45.15607" lon="6.02073">
        <ele>1850.7</ele>
        <time>2015-02-19T14:09:57.030Z</time>
      </trkpt>
      <trkpt lat="45.156" lon="6.02083">
        <ele>1849.8</ele>
        <time>2015-02-19T14:09:59.270Z</time>
      </trkpt>
      <trkpt lat="45.15591" lon="6.02092">
        <ele>1849</ele>
        <time>2015-02-19T14:10:01.260Z</time>
      </trkpt>
      <trkpt lat="45.15587" lon="6.02094">
        <ele>1848.6</ele>
        <time>2015-02-19T14:10:02.260Z</time>
      </trkpt>
      <trkpt lat="45.15582" lon="6.02098">
        <ele>1848</ele>
        <time>2015-02-19T14:10:04.270Z</time>
      </trkpt>
      <trkpt lat="45.15578" lon="6.02101">
        <ele>1847.7</ele>
        <time>2015-02-19T14:10:07.270Z</time>
      </trkpt>
      <trkpt lat="45.1557" lon="6.02111">
        <ele>1846.8</ele>
        <time>2015-02-19T14:10:15.030Z</time>
      </trkpt>
      <trkpt lat="45.15563" lon="6.02118">
        <ele>1846.4</ele>
        <time>2015-02-19T14:10:17.030Z</time>
      </trkpt>
      <trkpt lat="45.15554" lon="6.02125">
        <ele>1846</ele>
        <time>2015-02-19T14:10:19.030Z</time>
      </trkpt>
      <trkpt lat="45.15546" lon="6.02131">
        <ele>1845.6</ele>
        <time>2015-02-19T14:10:21.030Z</time>
      </trkpt>
      <trkpt lat="45.15537" lon="6.02137">
        <ele>1845.2</ele>
        <time>2015-02-19T14:10:23.030Z</time>
      </trkpt>
      <trkpt lat="45.15529" lon="6.02144">
        <ele>1844.5</ele>
        <time>2015-02-19T14:10:25.030Z</time>
      </trkpt>
      <trkpt lat="45.1552" lon="6.02153">
        <ele>1843.5</ele>
        <time>2015-02-19T14:10:27.030Z</time>
      </trkpt>
      <trkpt lat="45.15512" lon="6.02161">
        <ele>1842.5</ele>
        <time>2015-02-19T14:10:29.030Z</time>
      </trkpt>
      <trkpt lat="45.15505" lon="6.02167">
        <ele>1841.5</ele>
        <time>2015-02-19T14:10:31.030Z</time>
      </trkpt>
      <trkpt lat="45.15497" lon="6.02171">
        <ele>1840</ele>
        <time>2015-02-19T14:10:34.030Z</time>
      </trkpt>
      <trkpt lat="45.15489" lon="6.02177">
        <ele>1839</ele>
        <time>2015-02-19T14:10:39.230Z</time>
      </trkpt>
      <trkpt lat="45.15485" lon="6.02182">
        <ele>1838.3</ele>
        <time>2015-02-19T14:10:42.410Z</time>
      </trkpt>
      <trkpt lat="45.15477" lon="6.02187">
        <ele>1838</ele>
        <time>2015-02-19T14:10:47.030Z</time>
      </trkpt>
      <trkpt lat="45.15472" lon="6.02194">
        <ele>1838</ele>
        <time>2015-02-19T14:10:54.230Z</time>
      </trkpt>
      <trkpt lat="45.15465" lon="6.02202">
        <ele>1836.4</ele>
        <time>2015-02-19T14:11:50.080Z</time>
      </trkpt>
      <trkpt lat="45.15457" lon="6.02212">
        <ele>1836</ele>
        <time>2015-02-19T14:11:54.340Z</time>
      </trkpt>
      <trkpt lat="45.15451" lon="6.0222">
        <ele>1835.7</ele>
        <time>2015-02-19T14:11:57.130Z</time>
      </trkpt>
      <trkpt lat="45.15444" lon="6.02226">
        <ele>1835.4</ele>
        <time>2015-02-19T14:12:00.030Z</time>
      </trkpt>
      <trkpt lat="45.15436" lon="6.02236">
        <ele>1835.1</ele>
        <time>2015-02-19T14:12:03.030Z</time>
      </trkpt>
      <trkpt lat="45.15429" lon="6.02244">
        <ele>1834.3</ele>
        <time>2015-02-19T14:12:05.040Z</time>
      </trkpt>
      <trkpt lat="45.15425" lon="6.02248">
        <ele>1833.5</ele>
        <time>2015-02-19T14:12:06.340Z</time>
      </trkpt>
      <trkpt lat="45.1542" lon="6.02257">
        <ele>1832.5</ele>
        <time>2015-02-19T14:12:08.030Z</time>
      </trkpt>
      <trkpt lat="45.15416" lon="6.02269">
        <ele>1831.1</ele>
        <time>2015-02-19T14:12:10.440Z</time>
      </trkpt>
      <trkpt lat="45.1541" lon="6.02279">
        <ele>1830.1</ele>
        <time>2015-02-19T14:12:12.130Z</time>
      </trkpt>
      <trkpt lat="45.15403" lon="6.02289">
        <ele>1828</ele>
        <time>2015-02-19T14:12:14.900Z</time>
      </trkpt>
      <trkpt lat="45.15404" lon="6.023">
        <ele>1826</ele>
        <time>2015-02-19T14:12:16.890Z</time>
      </trkpt>
      <trkpt lat="45.15399" lon="6.02311">
        <ele>1823.9</ele>
        <time>2015-02-19T14:12:18.900Z</time>
      </trkpt>
      <trkpt lat="45.15395" lon="6.02322">
        <ele>1822.3</ele>
        <time>2015-02-19T14:12:20.530Z</time>
      </trkpt>
      <trkpt lat="45.15396" lon="6.02334">
        <ele>1820.2</ele>
        <time>2015-02-19T14:12:22.630Z</time>
      </trkpt>
      <trkpt lat="45.15397" lon="6.02346">
        <ele>1817.9</ele>
        <time>2015-02-19T14:12:25.130Z</time>
      </trkpt>
      <trkpt lat="45.15394" lon="6.0236">
        <ele>1815.5</ele>
        <time>2015-02-19T14:12:28.230Z</time>
      </trkpt>
      <trkpt lat="45.15385" lon="6.0237">
        <ele>1813.2</ele>
        <time>2015-02-19T14:12:31.030Z</time>
      </trkpt>
      <trkpt lat="45.15393" lon="6.02378">
        <ele>1806.8</ele>
        <time>2015-02-19T14:12:45.300Z</time>
      </trkpt>
      <trkpt lat="45.15396" lon="6.02394">
        <ele>1805.5</ele>
        <time>2015-02-19T14:12:54.290Z</time>
      </trkpt>
      <trkpt lat="45.15397" lon="6.02413">
        <ele>1802.8</ele>
        <time>2015-02-19T14:12:57.030Z</time>
      </trkpt>
      <trkpt lat="45.15388" lon="6.02427">
        <ele>1800.8</ele>
        <time>2015-02-19T14:12:59.030Z</time>
      </trkpt>
      <trkpt lat="45.15376" lon="6.02433">
        <ele>1798.6</ele>
        <time>2015-02-19T14:13:01.230Z</time>
      </trkpt>
      <trkpt lat="45.15366" lon="6.0244">
        <ele>1796.8</ele>
        <time>2015-02-19T14:13:03.130Z</time>
      </trkpt>
      <trkpt lat="45.15357" lon="6.02448">
        <ele>1795.2</ele>
        <time>2015-02-19T14:13:05.020Z</time>
      </trkpt>
      <trkpt lat="45.15347" lon="6.02459">
        <ele>1793.7</ele>
        <time>2015-02-19T14:13:07.230Z</time>
      </trkpt>
      <trkpt lat="45.15337" lon="6.02471">
        <ele>1792.4</ele>
        <time>2015-02-19T14:13:09.130Z</time>
      </trkpt>
      <trkpt lat="45.15331" lon="6.02474">
        <ele>1791.7</ele>
        <time>2015-02-19T14:13:10.160Z</time>
      </trkpt>
      <trkpt lat="45.15324" lon="6.02477">
        <ele>1790.7</ele>
        <time>2015-02-19T14:13:11.560Z</time>
      </trkpt>
      <trkpt lat="45.15317" lon="6.02478">
        <ele>1790.2</ele>
        <time>2015-02-19T14:13:12.330Z</time>
      </trkpt>
      <trkpt lat="45.15307" lon="6.02482">
        <ele>1788.6</ele>
        <time>2015-02-19T14:13:14.360Z</time>
      </trkpt>
      <trkpt lat="45.15299" lon="6.02493">
        <ele>1787</ele>
        <time>2015-02-19T14:13:16.030Z</time>
      </trkpt>
      <trkpt lat="45.15288" lon="6.02499">
        <ele>1784.8</ele>
        <time>2015-02-19T14:13:18.230Z</time>
      </trkpt>
      <trkpt lat="45.15279" lon="6.02511">
        <ele>1782.9</ele>
        <time>2015-02-19T14:13:20.130Z</time>
      </trkpt>
      <trkpt lat="45.15268" lon="6.02519">
        <ele>1780.4</ele>
        <time>2015-02-19T14:13:22.530Z</time>
      </trkpt>
      <trkpt lat="45.15267" lon="6.02534">
        <ele>1777.8</ele>
        <time>2015-02-19T14:13:25.130Z</time>
      </trkpt>
      <trkpt lat="45.15271" lon="6.02543">
        <ele>1775.9</ele>
        <time>2015-02-19T14:13:27.040Z</time>
      </trkpt>
      <trkpt lat="45.15261" lon="6.0255">
        <ele>1772.6</ele>
        <time>2015-02-19T14:13:30.330Z</time>
      </trkpt>
      <trkpt lat="45.15256" lon="6.02544">
        <ele>1768</ele>
        <time>2015-02-19T14:14:51.230Z</time>
      </trkpt>
      <trkpt lat="45.15247" lon="6.02547">
        <ele>1768</ele>
        <time>2015-02-19T14:14:53.140Z</time>
      </trkpt>
      <trkpt lat="45.15236" lon="6.02549">
        <ele>1767.5</ele>
        <time>2015-02-19T14:14:55.130Z</time>
      </trkpt>
      <trkpt lat="45.15227" lon="6.02552">
        <ele>1766.6</ele>
        <time>2015-02-19T14:14:57.350Z</time>
      </trkpt>
      <trkpt lat="45.15227" lon="6.02563">
        <ele>1765.9</ele>
        <time>2015-02-19T14:14:59.130Z</time>
      </trkpt>
      <trkpt lat="45.15235" lon="6.02569">
        <ele>1765.1</ele>
        <time>2015-02-19T14:15:01.030Z</time>
      </trkpt>
      <trkpt lat="45.1524" lon="6.0258">
        <ele>1763.7</ele>
        <time>2015-02-19T14:15:04.150Z</time>
      </trkpt>
      <trkpt lat="45.15245" lon="6.02588">
        <ele>1760.2</ele>
        <time>2015-02-19T14:15:08.030Z</time>
      </trkpt>
      <trkpt lat="45.15236" lon="6.02595">
        <ele>1757.5</ele>
        <time>2015-02-19T14:15:11.030Z</time>
      </trkpt>
      <trkpt lat="45.15229" lon="6.02603">
        <ele>1754.6</ele>
        <time>2015-02-19T14:15:15.280Z</time>
      </trkpt>
      <trkpt lat="45.15225" lon="6.02616">
        <ele>1751.8</ele>
        <time>2015-02-19T14:15:34.160Z</time>
      </trkpt>
      <trkpt lat="45.15228" lon="6.02632">
        <ele>1747.7</ele>
        <time>2015-02-19T14:15:40.030Z</time>
      </trkpt>
      <trkpt lat="45.15234" lon="6.02643">
        <ele>1745.4</ele>
        <time>2015-02-19T14:15:43.270Z</time>
      </trkpt>
      <trkpt lat="45.15245" lon="6.02655">
        <ele>1742.4</ele>
        <time>2015-02-19T14:15:46.230Z</time>
      </trkpt>
      <trkpt lat="45.15252" lon="6.02666">
        <ele>1737.9</ele>
        <time>2015-02-19T14:15:50.290Z</time>
      </trkpt>
      <trkpt lat="45.15244" lon="6.02673">
        <ele>1733.3</ele>
        <time>2015-02-19T14:15:56.030Z</time>
      </trkpt>
      <trkpt lat="45.15236" lon="6.02683">
        <ele>1731.9</ele>
        <time>2015-02-19T14:16:00.770Z</time>
      </trkpt>
      <trkpt lat="45.15234" lon="6.02697">
        <ele>1725.3</ele>
        <time>2015-02-19T14:17:33.110Z</time>
      </trkpt>
      <trkpt lat="45.15244" lon="6.02709">
        <ele>1723.3</ele>
        <time>2015-02-19T14:17:37.330Z</time>
      </trkpt>
      <trkpt lat="45.15248" lon="6.02724">
        <ele>1720.3</ele>
        <time>2015-02-19T14:17:43.180Z</time>
      </trkpt>
      <trkpt lat="45.15244" lon="6.02738">
        <ele>1717.1</ele>
        <time>2015-02-19T14:17:46.500Z</time>
      </trkpt>
      <trkpt lat="45.15236" lon="6.02747">
        <ele>1714.2</ele>
        <time>2015-02-19T14:17:49.130Z</time>
      </trkpt>
      <trkpt lat="45.15225" lon="6.02749">
        <ele>1711</ele>
        <time>2015-02-19T14:17:52.130Z</time>
      </trkpt>
      <trkpt lat="45.15215" lon="6.02746">
        <ele>1708.8</ele>
        <time>2015-02-19T14:17:55.140Z</time>
      </trkpt>
      <trkpt lat="45.15204" lon="6.02746">
        <ele>1706</ele>
        <time>2015-02-19T14:18:14.090Z</time>
      </trkpt>
      <trkpt lat="45.15194" lon="6.02753">
        <ele>1702.5</ele>
        <time>2015-02-19T14:18:22.740Z</time>
      </trkpt>
      <trkpt lat="45.15183" lon="6.02753">
        <ele>1700.5</ele>
        <time>2015-02-19T14:18:26.820Z</time>
      </trkpt>
      <trkpt lat="45.15172" lon="6.02752">
        <ele>1699.1</ele>
        <time>2015-02-19T14:18:29.820Z</time>
      </trkpt>
      <trkpt lat="45.15161" lon="6.0276">
        <ele>1693.8</ele>
        <time>2015-02-19T14:18:36.700Z</time>
      </trkpt>
      <trkpt lat="45.1515" lon="6.02768">
        <ele>1682.5</ele>
        <time>2015-02-19T14:18:48.910Z</time>
      </trkpt>
      <trkpt lat="45.15137" lon="6.02775">
        <ele>1680.9</ele>
        <time>2015-02-19T14:18:52.110Z</time>
      </trkpt>
      <trkpt lat="45.15127" lon="6.02779">
        <ele>1679.4</ele>
        <time>2015-02-19T14:18:55.070Z</time>
      </trkpt>
      <trkpt lat="45.15119" lon="6.02788">
        <ele>1673.7</ele>
        <time>2015-02-19T14:19:24.780Z</time>
      </trkpt>
      <trkpt lat="45.15119" lon="6.02804">
        <ele>1670.4</ele>
        <time>2015-02-19T14:19:32.980Z</time>
      </trkpt>
      <trkpt lat="45.15119" lon="6.02823">
        <ele>1663.3</ele>
        <time>2015-02-19T14:19:38.030Z</time>
      </trkpt>
      <trkpt lat="45.15108" lon="6.02829">
        <ele>1657.8</ele>
        <time>2015-02-19T14:19:41.430Z</time>
      </trkpt>
      <trkpt lat="45.15097" lon="6.02833">
        <ele>1651.8</ele>
        <time>2015-02-19T14:19:51.190Z</time>
      </trkpt>
      <trkpt lat="45.15086" lon="6.02838">
        <ele>1650.9</ele>
        <time>2015-02-19T14:19:53.980Z</time>
      </trkpt>
      <trkpt lat="45.15079" lon="6.0285">
        <ele>1645</ele>
        <time>2015-02-19T14:20:03.840Z</time>
      </trkpt>
      <trkpt lat="45.15079" lon="6.02864">
        <ele>1639.6</ele>
        <time>2015-02-19T14:20:08.040Z</time>
      </trkpt>
      <trkpt lat="45.15076" lon="6.02882">
        <ele>1630</ele>
        <time>2015-02-19T14:20:51.950Z</time>
      </trkpt>
      <trkpt lat="45.15068" lon="6.02891">
        <ele>1624.5</ele>
        <time>2015-02-19T14:20:57.880Z</time>
      </trkpt>
      <trkpt lat="45.15066" lon="6.02908">
        <ele>1613.2</ele>
        <time>2015-02-19T14:21:07.880Z</time>
      </trkpt>
      <trkpt lat="45.15065" lon="6.02923">
        <ele>1607.5</ele>
        <time>2015-02-19T14:21:17.080Z</time>
      </trkpt>
      <trkpt lat="45.15063" lon="6.02936">
        <ele>1595</ele>
        <time>2015-02-19T14:22:18.030Z</time>
      </trkpt>
      <trkpt lat="45.15054" lon="6.02946">
        <ele>1588.7</ele>
        <time>2015-02-19T14:23:42.230Z</time>
      </trkpt>
      <trkpt lat="45.15045" lon="6.02953">
        <ele>1582</ele>
        <time>2015-02-19T14:23:54.030Z</time>
      </trkpt>
      <trkpt lat="45.15041" lon="6.02967">
        <ele>1577</ele>
        <time>2015-02-19T14:24:25.130Z</time>
      </trkpt>
      <trkpt lat="45.15043" lon="6.02982">
        <ele>1572</ele>
        <time>2015-02-19T14:24:31.320Z</time>
      </trkpt>
      <trkpt lat="45.15041" lon="6.02999">
        <ele>1567</ele>
        <time>2015-02-19T14:24:37.120Z</time>
      </trkpt>
      <trkpt lat="45.15052" lon="6.03007">
        <ele>1560.8</ele>
        <time>2015-02-19T14:24:44.220Z</time>
      </trkpt>
      <trkpt lat="45.15061" lon="6.03014">
        <ele>1559.4</ele>
        <time>2015-02-19T14:24:47.150Z</time>
      </trkpt>
      <trkpt lat="45.15071" lon="6.03021">
        <ele>1553</ele>
        <time>2015-02-19T14:25:06.530Z</time>
      </trkpt>
      <trkpt lat="45.15076" lon="6.03037">
        <ele>1553</ele>
        <time>2015-02-19T14:25:14.030Z</time>
      </trkpt>
      <trkpt lat="45.15071" lon="6.03051">
        <ele>1545.4</ele>
        <time>2015-02-19T14:25:33.110Z</time>
      </trkpt>
      <trkpt lat="45.15059" lon="6.03053">
        <ele>1542.1</ele>
        <time>2015-02-19T14:25:53.030Z</time>
      </trkpt>
      <trkpt lat="45.15063" lon="6.03067">
        <ele>1539.6</ele>
        <time>2015-02-19T14:26:00.030Z</time>
      </trkpt>
      <trkpt lat="45.15064" lon="6.03081">
        <ele>1534.1</ele>
        <time>2015-02-19T14:26:23.020Z</time>
      </trkpt>
      <trkpt lat="45.15074" lon="6.03091">
        <ele>1531.8</ele>
        <time>2015-02-19T14:26:31.230Z</time>
      </trkpt>
      <trkpt lat="45.15087" lon="6.03096">
        <ele>1529</ele>
        <time>2015-02-19T14:27:02.130Z</time>
      </trkpt>
      <trkpt lat="45.15085" lon="6.0311">
        <ele>1526.8</ele>
        <time>2015-02-19T14:27:06.330Z</time>
      </trkpt>
      <trkpt lat="45.15079" lon="6.03127">
        <ele>1520</ele>
        <time>2015-02-19T14:27:21.080Z</time>
      </trkpt>
      <trkpt lat="45.15067" lon="6.03131">
        <ele>1518.8</ele>
        <time>2015-02-19T14:27:36.150Z</time>
      </trkpt>
      <trkpt lat="45.15057" lon="6.03134">
        <ele>1517.7</ele>
        <time>2015-02-19T14:27:45.330Z</time>
      </trkpt>
      <trkpt lat="45.15052" lon="6.03148">
        <ele>1516.5</ele>
        <time>2015-02-19T14:27:51.260Z</time>
      </trkpt>
      <trkpt lat="45.15041" lon="6.03146">
        <ele>1512.2</ele>
        <time>2015-02-19T14:27:57.030Z</time>
      </trkpt>
      <trkpt lat="45.1503" lon="6.03149">
        <ele>1503.6</ele>
        <time>2015-02-19T14:28:05.230Z</time>
      </trkpt>
      <trkpt lat="45.15019" lon="6.03159">
        <ele>1499.9</ele>
        <time>2015-02-19T14:28:15.230Z</time>
      </trkpt>
      <trkpt lat="45.15005" lon="6.03159">
        <ele>1497.7</ele>
        <time>2015-02-19T14:28:18.030Z</time>
      </trkpt>
      <trkpt lat="45.14994" lon="6.03162">
        <ele>1495.3</ele>
        <time>2015-02-19T14:28:21.030Z</time>
      </trkpt>
      <trkpt lat="45.14984" lon="6.03166">
        <ele>1493</ele>
        <time>2015-02-19T14:28:24.030Z</time>
      </trkpt>
      <trkpt lat="45.14972" lon="6.03168">
        <ele>1490</ele>
        <time>2015-02-19T14:28:27.030Z</time>
      </trkpt>
      <trkpt lat="45.14962" lon="6.03168">
        <ele>1487.6</ele>
        <time>2015-02-19T14:28:29.350Z</time>
      </trkpt>
      <trkpt lat="45.14964" lon="6.03184">
        <ele>1477.5</ele>
        <time>2015-02-19T14:28:39.350Z</time>
      </trkpt>
      <trkpt lat="45.14954" lon="6.03201">
        <ele>1468.8</ele>
        <time>2015-02-19T14:29:46.010Z</time>
      </trkpt>
      <trkpt lat="45.14941" lon="6.03201">
        <ele>1468.3</ele>
        <time>2015-02-19T14:29:51.010Z</time>
      </trkpt>
      <trkpt lat="45.14929" lon="6.03204">
        <ele>1467.9</ele>
        <time>2015-02-19T14:29:54.010Z</time>
      </trkpt>
      <trkpt lat="45.14923" lon="6.03216">
        <ele>1460.6</ele>
        <time>2015-02-19T14:30:05.010Z</time>
      </trkpt>
      <trkpt lat="45.14912" lon="6.03224">
        <ele>1456.2</ele>
        <time>2015-02-19T14:30:09.020Z</time>
      </trkpt>
      <trkpt lat="45.14901" lon="6.03224">
        <ele>1452.9</ele>
        <time>2015-02-19T14:30:12.010Z</time>
      </trkpt>
      <trkpt lat="45.14887" lon="6.03223">
        <ele>1449.5</ele>
        <time>2015-02-19T14:30:15.010Z</time>
      </trkpt>
      <trkpt lat="45.14877" lon="6.03227">
        <ele>1447.1</ele>
        <time>2015-02-19T14:30:17.010Z</time>
      </trkpt>
      <trkpt lat="45.14867" lon="6.0323">
        <ele>1444.7</ele>
        <time>2015-02-19T14:30:19.010Z</time>
      </trkpt>
      <trkpt lat="45.14854" lon="6.0324">
        <ele>1441.1</ele>
        <time>2015-02-19T14:30:22.010Z</time>
      </trkpt>
      <trkpt lat="45.14843" lon="6.03244">
        <ele>1438.5</ele>
        <time>2015-02-19T14:30:25.010Z</time>
      </trkpt>
      <trkpt lat="45.14831" lon="6.03253">
        <ele>1434.1</ele>
        <time>2015-02-19T14:30:38.390Z</time>
      </trkpt>
      <trkpt lat="45.1482" lon="6.03256">
        <ele>1433.5</ele>
        <time>2015-02-19T14:30:41.380Z</time>
      </trkpt>
      <trkpt lat="45.14808" lon="6.03254">
        <ele>1426.8</ele>
        <time>2015-02-19T14:32:14.150Z</time>
      </trkpt>
      <trkpt lat="45.14796" lon="6.03259">
        <ele>1424.8</ele>
        <time>2015-02-19T14:32:17.050Z</time>
      </trkpt>
      <trkpt lat="45.14784" lon="6.03268">
        <ele>1423.2</ele>
        <time>2015-02-19T14:32:19.250Z</time>
      </trkpt>
      <trkpt lat="45.14771" lon="6.03269">
        <ele>1421.9</ele>
        <time>2015-02-19T14:32:21.200Z</time>
      </trkpt>
      <trkpt lat="45.14756" lon="6.03276">
        <ele>1420</ele>
        <time>2015-02-19T14:32:23.990Z</time>
      </trkpt>
      <trkpt lat="45.14746" lon="6.03282">
        <ele>1418.1</ele>
        <time>2015-02-19T14:32:26.370Z</time>
      </trkpt>
      <trkpt lat="45.1474" lon="6.03294">
        <ele>1410.7</ele>
        <time>2015-02-19T14:32:35.130Z</time>
      </trkpt>
      <trkpt lat="45.14725" lon="6.03299">
        <ele>1406</ele>
        <time>2015-02-19T14:32:38.990Z</time>
      </trkpt>
      <trkpt lat="45.14709" lon="6.033">
        <ele>1403.3</ele>
        <time>2015-02-19T14:32:41.130Z</time>
      </trkpt>
      <trkpt lat="45.14697" lon="6.033">
        <ele>1395.5</ele>
        <time>2015-02-19T14:32:49.540Z</time>
      </trkpt>
      <trkpt lat="45.14683" lon="6.03299">
        <ele>1394.1</ele>
        <time>2015-02-19T14:32:51.230Z</time>
      </trkpt>
      <trkpt lat="45.14673" lon="6.03301">
        <ele>1391.8</ele>
        <time>2015-02-19T14:32:54.330Z</time>
      </trkpt>
      <trkpt lat="45.14663" lon="6.03306">
        <ele>1388.3</ele>
        <time>2015-02-19T14:33:01.190Z</time>
      </trkpt>
      <trkpt lat="45.14672" lon="6.03315">
        <ele>1386.5</ele>
        <time>2015-02-19T14:33:06.030Z</time>
      </trkpt>
      <trkpt lat="45.1467" lon="6.0335">
        <ele>1377.7</ele>
        <time>2015-02-19T14:33:40.200Z</time>
      </trkpt>
      <trkpt lat="45.14671" lon="6.03365">
        <ele>1373.6</ele>
        <time>2015-02-19T14:33:44.120Z</time>
      </trkpt>
      <trkpt lat="45.14663" lon="6.03375">
        <ele>1370.1</ele>
        <time>2015-02-19T14:33:47.030Z</time>
      </trkpt>
      <trkpt lat="45.14655" lon="6.03387">
        <ele>1366.5</ele>
        <time>2015-02-19T14:33:50.030Z</time>
      </trkpt>
      <trkpt lat="45.14643" lon="6.03395">
        <ele>1363.9</ele>
        <time>2015-02-19T14:33:52.230Z</time>
      </trkpt>
      <trkpt lat="45.14629" lon="6.03402">
        <ele>1361.5</ele>
        <time>2015-02-19T14:33:54.520Z</time>
      </trkpt>
      <trkpt lat="45.14619" lon="6.034">
        <ele>1359</ele>
        <time>2015-02-19T14:33:58.160Z</time>
      </trkpt>
      <trkpt lat="45.14609" lon="6.03394">
        <ele>1354.6</ele>
        <time>2015-02-19T14:34:06.070Z</time>
      </trkpt>
      <trkpt lat="45.146" lon="6.03389">
        <ele>1353.5</ele>
        <time>2015-02-19T14:34:11.170Z</time>
      </trkpt>
      <trkpt lat="45.1459" lon="6.03381">
        <ele>1352.9</ele>
        <time>2015-02-19T14:34:14.990Z</time>
      </trkpt>
      <trkpt lat="45.14578" lon="6.03377">
        <ele>1350.9</ele>
        <time>2015-02-19T14:34:34.160Z</time>
      </trkpt>
      <trkpt lat="45.1457" lon="6.03368">
        <ele>1348</ele>
        <time>2015-02-19T14:35:41.460Z</time>
      </trkpt>
      <trkpt lat="45.14562" lon="6.03359">
        <ele>1347.3</ele>
        <time>2015-02-19T14:35:46.230Z</time>
      </trkpt>
      <trkpt lat="45.14552" lon="6.03359">
        <ele>1344.2</ele>
        <time>2015-02-19T14:36:02.130Z</time>
      </trkpt>
      <trkpt lat="45.14543" lon="6.03366">
        <ele>1340.3</ele>
        <time>2015-02-19T14:36:09.180Z</time>
      </trkpt>
      <trkpt lat="45.14531" lon="6.03363">
        <ele>1338.3</ele>
        <time>2015-02-19T14:36:12.030Z</time>
      </trkpt>
      <trkpt lat="45.14518" lon="6.03362">
        <ele>1335.2</ele>
        <time>2015-02-19T14:36:16.130Z</time>
      </trkpt>
      <trkpt lat="45.14506" lon="6.03357">
        <ele>1332.7</ele>
        <time>2015-02-19T14:36:19.180Z</time>
      </trkpt>
      <trkpt lat="45.14496" lon="6.03351">
        <ele>1331.2</ele>
        <time>2015-02-19T14:36:21.130Z</time>
      </trkpt>
      <trkpt lat="45.14487" lon="6.03345">
        <ele>1328.3</ele>
        <time>2015-02-19T14:36:25.270Z</time>
      </trkpt>
      <trkpt lat="45.14478" lon="6.03339">
        <ele>1324.3</ele>
        <time>2015-02-19T14:36:33.460Z</time>
      </trkpt>
      <trkpt lat="45.14469" lon="6.03333">
        <ele>1322.9</ele>
        <time>2015-02-19T14:36:39.230Z</time>
      </trkpt>
      <trkpt lat="45.1446" lon="6.03326">
        <ele>1321.1</ele>
        <time>2015-02-19T14:36:56.150Z</time>
      </trkpt>
      <trkpt lat="45.14452" lon="6.0332">
        <ele>1319.5</ele>
        <time>2015-02-19T14:37:00.230Z</time>
      </trkpt>
      <trkpt lat="45.14445" lon="6.03314">
        <ele>1318.9</ele>
        <time>2015-02-19T14:37:13.100Z</time>
      </trkpt>
      <trkpt lat="45.14438" lon="6.0331">
        <ele>1318</ele>
        <time>2015-02-19T14:37:52.480Z</time>
      </trkpt>
      <trkpt lat="45.14443" lon="6.03323">
        <ele>1316.4</ele>
        <time>2015-02-19T14:37:59.130Z</time>
      </trkpt>
      <trkpt lat="45.14449" lon="6.0334">
        <ele>1313.1</ele>
        <time>2015-02-19T14:38:13.240Z</time>
      </trkpt>
      <trkpt lat="45.14437" lon="6.03343">
        <ele>1307.8</ele>
        <time>2015-02-19T14:38:18.210Z</time>
      </trkpt>
      <trkpt lat="45.14427" lon="6.03343">
        <ele>1301</ele>
        <time>2015-02-19T14:38:25.030Z</time>
      </trkpt>
      <trkpt lat="45.14423" lon="6.03329">
        <ele>1301</ele>
        <time>2015-02-19T14:38:35.130Z</time>
      </trkpt>
      <trkpt lat="45.14412" lon="6.03327">
        <ele>1300.9</ele>
        <time>2015-02-19T14:38:44.330Z</time>
      </trkpt>
      <trkpt lat="45.14408" lon="6.03318">
        <ele>1298</ele>
        <time>2015-02-19T14:39:26.400Z</time>
      </trkpt>
      <trkpt lat="45.14405" lon="6.03306">
        <ele>1298</ele>
        <time>2015-02-19T14:39:30.310Z</time>
      </trkpt>
      <trkpt lat="45.14401" lon="6.0329">
        <ele>1297.9</ele>
        <time>2015-02-19T14:39:34.220Z</time>
      </trkpt>
      <trkpt lat="45.144" lon="6.0327">
        <ele>1296.7</ele>
        <time>2015-02-19T14:39:37.130Z</time>
      </trkpt>
      <trkpt lat="45.14397" lon="6.03249">
        <ele>1295.5</ele>
        <time>2015-02-19T14:39:40.130Z</time>
      </trkpt>
      <trkpt lat="45.14395" lon="6.03233">
        <ele>1294.8</ele>
        <time>2015-02-19T14:39:42.020Z</time>
      </trkpt>
      <trkpt lat="45.14392" lon="6.03218">
        <ele>1294</ele>
        <time>2015-02-19T14:39:44.030Z</time>
      </trkpt>
      <trkpt lat="45.14387" lon="6.03203">
        <ele>1293.1</ele>
        <time>2015-02-19T14:39:46.060Z</time>
      </trkpt>
      <trkpt lat="45.14381" lon="6.0319">
        <ele>1292.3</ele>
        <time>2015-02-19T14:39:48.230Z</time>
      </trkpt>
      <trkpt lat="45.14375" lon="6.03174">
        <ele>1291.1</ele>
        <time>2015-02-19T14:39:51.030Z</time>
      </trkpt>
      <trkpt lat="45.1437" lon="6.03157">
        <ele>1289.7</ele>
        <time>2015-02-19T14:39:54.450Z</time>
      </trkpt>
      <trkpt lat="45.14367" lon="6.03143">
        <ele>1289</ele>
        <time>2015-02-19T14:39:56.230Z</time>
      </trkpt>
      <trkpt lat="45.14366" lon="6.03127">
        <ele>1288.3</ele>
        <time>2015-02-19T14:39:58.030Z</time>
      </trkpt>
      <trkpt lat="45.14367" lon="6.03111">
        <ele>1287.5</ele>
        <time>2015-02-19T14:40:00.060Z</time>
      </trkpt>
      <trkpt lat="45.1437" lon="6.03096">
        <ele>1286.7</ele>
        <time>2015-02-19T14:40:02.230Z</time>
      </trkpt>
      <trkpt lat="45.14371" lon="6.03081">
        <ele>1285.8</ele>
        <time>2015-02-19T14:40:04.260Z</time>
      </trkpt>
      <trkpt lat="45.1437" lon="6.03066">
        <ele>1284.7</ele>
        <time>2015-02-19T14:40:06.030Z</time>
      </trkpt>
      <trkpt lat="45.14369" lon="6.0303">
        <ele>1281.6</ele>
        <time>2015-02-19T14:40:11.240Z</time>
      </trkpt>
      <trkpt lat="45.14368" lon="6.03009">
        <ele>1280</ele>
        <time>2015-02-19T14:40:14.030Z</time>
      </trkpt>
      <trkpt lat="45.14366" lon="6.02993">
        <ele>1279.2</ele>
        <time>2015-02-19T14:40:16.030Z</time>
      </trkpt>
      <trkpt lat="45.14366" lon="6.02978">
        <ele>1278.3</ele>
        <time>2015-02-19T14:40:18.230Z</time>
      </trkpt>
      <trkpt lat="45.14366" lon="6.02962">
        <ele>1277.4</ele>
        <time>2015-02-19T14:40:20.500Z</time>
      </trkpt>
      <trkpt lat="45.14367" lon="6.02943">
        <ele>1276.3</ele>
        <time>2015-02-19T14:40:23.070Z</time>
      </trkpt>
      <trkpt lat="45.1437" lon="6.02927">
        <ele>1275.5</ele>
        <time>2015-02-19T14:40:26.360Z</time>
      </trkpt>
      <trkpt lat="45.14374" lon="6.02911">
        <ele>1274.9</ele>
        <time>2015-02-19T14:40:29.130Z</time>
      </trkpt>
      <trkpt lat="45.14379" lon="6.02893">
        <ele>1274.4</ele>
        <time>2015-02-19T14:40:31.960Z</time>
      </trkpt>
      <trkpt lat="45.1438" lon="6.02873">
        <ele>1273.2</ele>
        <time>2015-02-19T14:40:35.250Z</time>
      </trkpt>
      <trkpt lat="45.14381" lon="6.02858">
        <ele>1271.9</ele>
        <time>2015-02-19T14:40:37.440Z</time>
      </trkpt>
      <trkpt lat="45.14384" lon="6.02841">
        <ele>1270.9</ele>
        <time>2015-02-19T14:40:39.130Z</time>
      </trkpt>
      <trkpt lat="45.14388" lon="6.02824">
        <ele>1269.8</ele>
        <time>2015-02-19T14:40:41.030Z</time>
      </trkpt>
      <trkpt lat="45.14391" lon="6.02808">
        <ele>1268.5</ele>
        <time>2015-02-19T14:40:43.230Z</time>
      </trkpt>
      <trkpt lat="45.14393" lon="6.02793">
        <ele>1267.7</ele>
        <time>2015-02-19T14:40:45.120Z</time>
      </trkpt>
      <trkpt lat="45.14385" lon="6.02783">
        <ele>1266.7</ele>
        <time>2015-02-19T14:40:48.410Z</time>
      </trkpt>
      <trkpt lat="45.14373" lon="6.02788">
        <ele>1265.6</ele>
        <time>2015-02-19T14:40:52.030Z</time>
      </trkpt>
      <trkpt lat="45.14364" lon="6.02791">
        <ele>1264.9</ele>
        <time>2015-02-19T14:40:55.020Z</time>
      </trkpt>
      <trkpt lat="45.14353" lon="6.02797">
        <ele>1264.6</ele>
        <time>2015-02-19T14:40:58.320Z</time>
      </trkpt>
      <trkpt lat="45.14341" lon="6.02799">
        <ele>1264.3</ele>
        <time>2015-02-19T14:41:01.230Z</time>
      </trkpt>
      <trkpt lat="45.14329" lon="6.02802">
        <ele>1264</ele>
        <time>2015-02-19T14:41:04.030Z</time>
      </trkpt>
      <trkpt lat="45.14315" lon="6.02803">
        <ele>1263.4</ele>
        <time>2015-02-19T14:41:07.030Z</time>
      </trkpt>
      <trkpt lat="45.14305" lon="6.02799">
        <ele>1263</ele>
        <time>2015-02-19T14:41:09.220Z</time>
      </trkpt>
      <trkpt lat="45.14294" lon="6.02796">
        <ele>1262.5</ele>
        <time>2015-02-19T14:41:11.410Z</time>
      </trkpt>
      <trkpt lat="45.14279" lon="6.02798">
        <ele>1262</ele>
        <time>2015-02-19T14:41:14.030Z</time>
      </trkpt>
      <trkpt lat="45.14267" lon="6.02803">
        <ele>1261.4</ele>
        <time>2015-02-19T14:41:17.030Z</time>
      </trkpt>
      <trkpt lat="45.14257" lon="6.028">
        <ele>1260.8</ele>
        <time>2015-02-19T14:41:20.020Z</time>
      </trkpt>
      <trkpt lat="45.14246" lon="6.02793">
        <ele>1260.1</ele>
        <time>2015-02-19T14:41:23.330Z</time>
      </trkpt>
      <trkpt lat="45.14235" lon="6.02788">
        <ele>1259.5</ele>
        <time>2015-02-19T14:41:26.130Z</time>
      </trkpt>
      <trkpt lat="45.14225" lon="6.02795">
        <ele>1258.7</ele>
        <time>2015-02-19T14:41:30.230Z</time>
      </trkpt>
      <trkpt lat="45.14217" lon="6.02806">
        <ele>1257.8</ele>
        <time>2015-02-19T14:41:36.030Z</time>
      </trkpt>
      <trkpt lat="45.14209" lon="6.02817">
        <ele>1257.2</ele>
        <time>2015-02-19T14:41:42.040Z</time>
      </trkpt>
      <trkpt lat="45.14199" lon="6.02828">
        <ele>1256.7</ele>
        <time>2015-02-19T14:41:46.440Z</time>
      </trkpt>
      <trkpt lat="45.14186" lon="6.02837">
        <ele>1256.5</ele>
        <time>2015-02-19T14:41:49.230Z</time>
      </trkpt>
      <trkpt lat="45.14174" lon="6.02839">
        <ele>1256.3</ele>
        <time>2015-02-19T14:41:51.130Z</time>
      </trkpt>
      <trkpt lat="45.14161" lon="6.02841">
        <ele>1256</ele>
        <time>2015-02-19T14:41:54.140Z</time>
      </trkpt>
      <trkpt lat="45.14149" lon="6.02847">
        <ele>1255.6</ele>
        <time>2015-02-19T14:41:58.030Z</time>
      </trkpt>
      <trkpt lat="45.14141" lon="6.02858">
        <ele>1255.2</ele>
        <time>2015-02-19T14:42:02.160Z</time>
      </trkpt>
      <trkpt lat="45.14135" lon="6.0287">
        <ele>1254.7</ele>
        <time>2015-02-19T14:42:07.130Z</time>
      </trkpt>
      <trkpt lat="45.14127" lon="6.02881">
        <ele>1254.2</ele>
        <time>2015-02-19T14:42:12.160Z</time>
      </trkpt>
      <trkpt lat="45.1412" lon="6.02892">
        <ele>1253.7</ele>
        <time>2015-02-19T14:42:17.130Z</time>
      </trkpt>
      <trkpt lat="45.14113" lon="6.02901">
        <ele>1253.4</ele>
        <time>2015-02-19T14:42:19.960Z</time>
      </trkpt>
      <trkpt lat="45.14104" lon="6.02912">
        <ele>1253</ele>
        <time>2015-02-19T14:42:24.360Z</time>
      </trkpt>
      <trkpt lat="45.14093" lon="6.0292">
        <ele>1253</ele>
        <time>2015-02-19T14:42:28.230Z</time>
      </trkpt>
      <trkpt lat="45.1408" lon="6.02924">
        <ele>1253</ele>
        <time>2015-02-19T14:42:31.050Z</time>
      </trkpt>
      <trkpt lat="45.14069" lon="6.02926">
        <ele>1252.8</ele>
        <time>2015-02-19T14:42:35.440Z</time>
      </trkpt>
      <trkpt lat="45.1406" lon="6.02935">
        <ele>1252.2</ele>
        <time>2015-02-19T14:42:42.060Z</time>
      </trkpt>
      <trkpt lat="45.1405" lon="6.02937">
        <ele>1252</ele>
        <time>2015-02-19T14:42:46.060Z</time>
      </trkpt>
      <trkpt lat="45.14039" lon="6.02939">
        <ele>1252</ele>
        <time>2015-02-19T14:42:51.050Z</time>
      </trkpt>
      <trkpt lat="45.14027" lon="6.02943">
        <ele>1251.7</ele>
        <time>2015-02-19T14:42:57.130Z</time>
      </trkpt>
      <trkpt lat="45.14013" lon="6.02943">
        <ele>1251.4</ele>
        <time>2015-02-19T14:43:00.130Z</time>
      </trkpt>
      <trkpt lat="45.14003" lon="6.02939">
        <ele>1251</ele>
        <time>2015-02-19T14:43:04.240Z</time>
      </trkpt>
      <trkpt lat="45.13992" lon="6.02935">
        <ele>1251</ele>
        <time>2015-02-19T14:43:10.030Z</time>
      </trkpt>
      <trkpt lat="45.13986" lon="6.02923">
        <ele>1251</ele>
        <time>2015-02-19T14:43:18.120Z</time>
      </trkpt>
      <trkpt lat="45.13984" lon="6.02909">
        <ele>1252</ele>
        <time>2015-02-19T14:43:36.030Z</time>
      </trkpt>
      <trkpt lat="45.13983" lon="6.02895">
        <ele>1252</ele>
        <time>2015-02-19T14:43:43.240Z</time>
      </trkpt>
      <trkpt lat="45.13981" lon="6.0288">
        <ele>1252</ele>
        <time>2015-02-19T14:43:49.030Z</time>
      </trkpt>
      <trkpt lat="45.13981" lon="6.02866">
        <ele>1252</ele>
        <time>2015-02-19T14:43:54.250Z</time>
      </trkpt>
      <trkpt lat="45.13979" lon="6.02851">
        <ele>1252</ele>
        <time>2015-02-19T14:44:00.030Z</time>
      </trkpt>
      <trkpt lat="45.13973" lon="6.02839">
        <ele>1252.2</ele>
        <time>2015-02-19T14:44:06.030Z</time>
      </trkpt>
      <trkpt lat="45.13966" lon="6.02827">
        <ele>1252.8</ele>
        <time>2015-02-19T14:44:12.080Z</time>
      </trkpt>
      <trkpt lat="45.13956" lon="6.02819">
        <ele>1253</ele>
        <time>2015-02-19T14:44:18.170Z</time>
      </trkpt>
      <trkpt lat="45.13946" lon="6.02815">
        <ele>1253</ele>
        <time>2015-02-19T14:44:23.230Z</time>
      </trkpt>
      <trkpt lat="45.13937" lon="6.02804">
        <ele>1254.1</ele>
        <time>2015-02-19T14:44:29.370Z</time>
      </trkpt>
      <trkpt lat="45.13928" lon="6.02795">
        <ele>1255</ele>
        <time>2015-02-19T14:44:34.030Z</time>
      </trkpt>
      <trkpt lat="45.13919" lon="6.02789">
        <ele>1255</ele>
        <time>2015-02-19T14:44:38.360Z</time>
      </trkpt>
      <trkpt lat="45.1391" lon="6.02781">
        <ele>1255</ele>
        <time>2015-02-19T14:44:44.970Z</time>
      </trkpt>
      <trkpt lat="45.13901" lon="6.02776">
        <ele>1255</ele>
        <time>2015-02-19T14:44:50.220Z</time>
      </trkpt>
      <trkpt lat="45.13891" lon="6.02768">
        <ele>1255</ele>
        <time>2015-02-19T14:44:55.380Z</time>
      </trkpt>
      <trkpt lat="45.13882" lon="6.02762">
        <ele>1255</ele>
        <time>2015-02-19T14:45:00.980Z</time>
      </trkpt>
      <trkpt lat="45.13873" lon="6.02754">
        <ele>1255</ele>
        <time>2015-02-19T14:45:07.060Z</time>
      </trkpt>
      <trkpt lat="45.13867" lon="6.02741">
        <ele>1255</ele>
        <time>2015-02-19T14:45:14.170Z</time>
      </trkpt>
      <trkpt lat="45.13863" lon="6.02726">
        <ele>1255.6</ele>
        <time>2015-02-19T14:45:20.010Z</time>
      </trkpt>
      <trkpt lat="45.13861" lon="6.0271">
        <ele>1257</ele>
        <time>2015-02-19T14:45:43.030Z</time>
      </trkpt>
      <trkpt lat="45.13856" lon="6.02695">
        <ele>1257</ele>
        <time>2015-02-19T14:45:48.030Z</time>
      </trkpt>
      <trkpt lat="45.13853" lon="6.02682">
        <ele>1257</ele>
        <time>2015-02-19T14:45:52.110Z</time>
      </trkpt>
      <trkpt lat="45.13849" lon="6.02669">
        <ele>1257</ele>
        <time>2015-02-19T14:45:57.130Z</time>
      </trkpt>
      <trkpt lat="45.13848" lon="6.02652">
        <ele>1257</ele>
        <time>2015-02-19T14:46:02.230Z</time>
      </trkpt>
      <trkpt lat="45.13846" lon="6.02638">
        <ele>1257</ele>
        <time>2015-02-19T14:46:07.030Z</time>
      </trkpt>
      <trkpt lat="45.1384" lon="6.0265">
        <ele>1260</ele>
        <time>2015-02-19T14:46:25.130Z</time>
      </trkpt>
      <trkpt lat="45.13831" lon="6.02659">
        <ele>1260</ele>
        <time>2015-02-19T14:46:32.130Z</time>
      </trkpt>
      <trkpt lat="45.1382" lon="6.02667">
        <ele>1260</ele>
        <time>2015-02-19T14:46:38.130Z</time>
      </trkpt>
      <trkpt lat="45.13809" lon="6.02671">
        <ele>1260</ele>
        <time>2015-02-19T14:46:42.130Z</time>
      </trkpt>
      <trkpt lat="45.13796" lon="6.02672">
        <ele>1260.1</ele>
        <time>2015-02-19T14:46:45.130Z</time>
      </trkpt>
      <trkpt lat="45.13784" lon="6.02671">
        <ele>1260.5</ele>
        <time>2015-02-19T14:46:49.130Z</time>
      </trkpt>
      <trkpt lat="45.13773" lon="6.0267">
        <ele>1261</ele>
        <time>2015-02-19T14:46:55.130Z</time>
      </trkpt>
      <trkpt lat="45.13764" lon="6.02678">
        <ele>1261</ele>
        <time>2015-02-19T14:47:01.190Z</time>
      </trkpt>
      <trkpt lat="45.13753" lon="6.02681">
        <ele>1261</ele>
        <time>2015-02-19T14:47:07.040Z</time>
      </trkpt>
      <trkpt lat="45.13743" lon="6.02683">
        <ele>1261</ele>
        <time>2015-02-19T14:47:12.740Z</time>
      </trkpt>
      <trkpt lat="45.13733" lon="6.02681">
        <ele>1261</ele>
        <time>2015-02-19T14:47:18.000Z</time>
      </trkpt>
      <trkpt lat="45.13721" lon="6.02679">
        <ele>1261</ele>
        <time>2015-02-19T14:47:24.000Z</time>
      </trkpt>
      <trkpt lat="45.1371" lon="6.02679">
        <ele>1261</ele>
        <time>2015-02-19T14:47:30.140Z</time>
      </trkpt>
      <trkpt lat="45.13701" lon="6.02671">
        <ele>1260.9</ele>
        <time>2015-02-19T14:47:35.130Z</time>
      </trkpt>
      <trkpt lat="45.13693" lon="6.02661">
        <ele>1260.4</ele>
        <time>2015-02-19T14:47:40.130Z</time>
      </trkpt>
      <trkpt lat="45.13684" lon="6.02652">
        <ele>1259.9</ele>
        <time>2015-02-19T14:47:45.130Z</time>
      </trkpt>
      <trkpt lat="45.13672" lon="6.02653">
        <ele>1259.4</ele>
        <time>2015-02-19T14:47:50.130Z</time>
      </trkpt>
      <trkpt lat="45.1366" lon="6.0265">
        <ele>1259</ele>
        <time>2015-02-19T14:47:54.130Z</time>
      </trkpt>
      <trkpt lat="45.13649" lon="6.02646">
        <ele>1258.7</ele>
        <time>2015-02-19T14:47:57.130Z</time>
      </trkpt>
      <trkpt lat="45.13638" lon="6.02635">
        <ele>1258.4</ele>
        <time>2015-02-19T14:48:00.030Z</time>
      </trkpt>
      <trkpt lat="45.13629" lon="6.02629">
        <ele>1258.2</ele>
        <time>2015-02-19T14:48:02.030Z</time>
      </trkpt>
      <trkpt lat="45.13621" lon="6.02619">
        <ele>1257.9</ele>
        <time>2015-02-19T14:48:04.030Z</time>
      </trkpt>
      <trkpt lat="45.13613" lon="6.02607">
        <ele>1256.7</ele>
        <time>2015-02-19T14:48:06.030Z</time>
      </trkpt>
      <trkpt lat="45.13607" lon="6.02592">
        <ele>1255.4</ele>
        <time>2015-02-19T14:48:08.230Z</time>
      </trkpt>
      <trkpt lat="45.13599" lon="6.02576">
        <ele>1254.3</ele>
        <time>2015-02-19T14:48:10.140Z</time>
      </trkpt>
      <trkpt lat="45.1359" lon="6.02561">
        <ele>1253</ele>
        <time>2015-02-19T14:48:12.330Z</time>
      </trkpt>
      <trkpt lat="45.13578" lon="6.02551">
        <ele>1252</ele>
        <time>2015-02-19T14:48:14.030Z</time>
      </trkpt>
      <trkpt lat="45.13562" lon="6.02543">
        <ele>1250</ele>
        <time>2015-02-19T14:48:16.230Z</time>
      </trkpt>
      <trkpt lat="45.13548" lon="6.02533">
        <ele>1248.2</ele>
        <time>2015-02-19T14:48:18.130Z</time>
      </trkpt>
      <trkpt lat="45.13536" lon="6.02521">
        <ele>1246.5</ele>
        <time>2015-02-19T14:48:20.030Z</time>
      </trkpt>
      <trkpt lat="45.13525" lon="6.02508">
        <ele>1244.5</ele>
        <time>2015-02-19T14:48:22.230Z</time>
      </trkpt>
      <trkpt lat="45.13513" lon="6.02498">
        <ele>1242.6</ele>
        <time>2015-02-19T14:48:24.430Z</time>
      </trkpt>
      <trkpt lat="45.13501" lon="6.02487">
        <ele>1241.4</ele>
        <time>2015-02-19T14:48:26.130Z</time>
      </trkpt>
      <trkpt lat="45.13491" lon="6.02474">
        <ele>1240.1</ele>
        <time>2015-02-19T14:48:28.030Z</time>
      </trkpt>
      <trkpt lat="45.13482" lon="6.0246">
        <ele>1238.5</ele>
        <time>2015-02-19T14:48:30.230Z</time>
      </trkpt>
      <trkpt lat="45.1347" lon="6.02451">
        <ele>1237.2</ele>
        <time>2015-02-19T14:48:32.120Z</time>
      </trkpt>
      <trkpt lat="45.13457" lon="6.0245">
        <ele>1235.6</ele>
        <time>2015-02-19T14:48:34.310Z</time>
      </trkpt>
      <trkpt lat="45.13443" lon="6.0245">
        <ele>1233.9</ele>
        <time>2015-02-19T14:48:36.400Z</time>
      </trkpt>
      <trkpt lat="45.1343" lon="6.02442">
        <ele>1232.5</ele>
        <time>2015-02-19T14:48:38.130Z</time>
      </trkpt>
      <trkpt lat="45.13417" lon="6.02431">
        <ele>1230.9</ele>
        <time>2015-02-19T14:48:40.130Z</time>
      </trkpt>
      <trkpt lat="45.13404" lon="6.02418">
        <ele>1229.4</ele>
        <time>2015-02-19T14:48:42.030Z</time>
      </trkpt>
      <trkpt lat="45.13389" lon="6.02407">
        <ele>1227.7</ele>
        <time>2015-02-19T14:48:44.030Z</time>
      </trkpt>
      <trkpt lat="45.13373" lon="6.02393">
        <ele>1225.6</ele>
        <time>2015-02-19T14:48:46.030Z</time>
      </trkpt>
      <trkpt lat="45.13358" lon="6.0238">
        <ele>1223.4</ele>
        <time>2015-02-19T14:48:48.030Z</time>
      </trkpt>
      <trkpt lat="45.13342" lon="6.0237">
        <ele>1221.2</ele>
        <time>2015-02-19T14:48:50.030Z</time>
      </trkpt>
      <trkpt lat="45.13328" lon="6.02357">
        <ele>1218.7</ele>
        <time>2015-02-19T14:48:52.230Z</time>
      </trkpt>
      <trkpt lat="45.13317" lon="6.02341">
        <ele>1216.7</ele>
        <time>2015-02-19T14:48:54.230Z</time>
      </trkpt>
      <trkpt lat="45.13307" lon="6.02325">
        <ele>1215.1</ele>
        <time>2015-02-19T14:48:56.230Z</time>
      </trkpt>
      <trkpt lat="45.13296" lon="6.0231">
        <ele>1213.5</ele>
        <time>2015-02-19T14:48:58.230Z</time>
      </trkpt>
      <trkpt lat="45.13287" lon="6.02291">
        <ele>1212.1</ele>
        <time>2015-02-19T14:49:00.030Z</time>
      </trkpt>
      <trkpt lat="45.13282" lon="6.02274">
        <ele>1210.3</ele>
        <time>2015-02-19T14:49:02.230Z</time>
      </trkpt>
      <trkpt lat="45.13278" lon="6.02252">
        <ele>1208.7</ele>
        <time>2015-02-19T14:49:04.230Z</time>
      </trkpt>
      <trkpt lat="45.13275" lon="6.02231">
        <ele>1207.1</ele>
        <time>2015-02-19T14:49:06.230Z</time>
      </trkpt>
      <trkpt lat="45.1327" lon="6.02211">
        <ele>1205.5</ele>
        <time>2015-02-19T14:49:08.230Z</time>
      </trkpt>
      <trkpt lat="45.13269" lon="6.02192">
        <ele>1203.9</ele>
        <time>2015-02-19T14:49:10.230Z</time>
      </trkpt>
      <trkpt lat="45.13268" lon="6.02174">
        <ele>1202.3</ele>
        <time>2015-02-19T14:49:12.230Z</time>
      </trkpt>
      <trkpt lat="45.13268" lon="6.02156">
        <ele>1200.8</ele>
        <time>2015-02-19T14:49:14.230Z</time>
      </trkpt>
      <trkpt lat="45.13269" lon="6.02138">
        <ele>1199.8</ele>
        <time>2015-02-19T14:49:16.230Z</time>
      </trkpt>
      <trkpt lat="45.13271" lon="6.02121">
        <ele>1198.8</ele>
        <time>2015-02-19T14:49:18.230Z</time>
      </trkpt>
      <trkpt lat="45.13274" lon="6.02106">
        <ele>1197.8</ele>
        <time>2015-02-19T14:49:20.230Z</time>
      </trkpt>
      <trkpt lat="45.13276" lon="6.02087">
        <ele>1196.3</ele>
        <time>2015-02-19T14:49:23.230Z</time>
      </trkpt>
      <trkpt lat="45.13277" lon="6.02069">
        <ele>1196</ele>
        <time>2015-02-19T14:49:26.230Z</time>
      </trkpt>
      <trkpt lat="45.13273" lon="6.02055">
        <ele>1196</ele>
        <time>2015-02-19T14:49:30.230Z</time>
      </trkpt>
      <trkpt lat="45.13264" lon="6.02044">
        <ele>1195.9</ele>
        <time>2015-02-19T14:49:35.230Z</time>
      </trkpt>
      <trkpt lat="45.13254" lon="6.0204">
        <ele>1195.5</ele>
        <time>2015-02-19T14:49:39.230Z</time>
      </trkpt>
      <trkpt lat="45.13243" lon="6.02045">
        <ele>1195.1</ele>
        <time>2015-02-19T14:49:43.230Z</time>
      </trkpt>
      <trkpt lat="45.13233" lon="6.02052">
        <ele>1194.7</ele>
        <time>2015-02-19T14:49:47.230Z</time>
      </trkpt>
      <trkpt lat="45.13224" lon="6.02059">
        <ele>1194.4</ele>
        <time>2015-02-19T14:49:50.230Z</time>
      </trkpt>
      <trkpt lat="45.13212" lon="6.02071">
        <ele>1194.1</ele>
        <time>2015-02-19T14:49:53.230Z</time>
      </trkpt>
      <trkpt lat="45.13202" lon="6.02077">
        <ele>1192.9</ele>
        <time>2015-02-19T14:49:55.230Z</time>
      </trkpt>
      <trkpt lat="45.1319" lon="6.02081">
        <ele>1191.3</ele>
        <time>2015-02-19T14:49:57.230Z</time>
      </trkpt>
      <trkpt lat="45.13176" lon="6.02083">
        <ele>1189.7</ele>
        <time>2015-02-19T14:49:59.230Z</time>
      </trkpt>
      <trkpt lat="45.13161" lon="6.0208">
        <ele>1188.1</ele>
        <time>2015-02-19T14:50:01.230Z</time>
      </trkpt>
      <trkpt lat="45.13149" lon="6.02073">
        <ele>1186.5</ele>
        <time>2015-02-19T14:50:03.230Z</time>
      </trkpt>
      <trkpt lat="45.13138" lon="6.02064">
        <ele>1185.5</ele>
        <time>2015-02-19T14:50:05.230Z</time>
      </trkpt>
      <trkpt lat="45.13127" lon="6.02057">
        <ele>1184.7</ele>
        <time>2015-02-19T14:50:07.030Z</time>
      </trkpt>
      <trkpt lat="45.13117" lon="6.02052">
        <ele>1183.9</ele>
        <time>2015-02-19T14:50:09.030Z</time>
      </trkpt>
      <trkpt lat="45.13106" lon="6.02047">
        <ele>1183.2</ele>
        <time>2015-02-19T14:50:11.030Z</time>
      </trkpt>
      <trkpt lat="45.13095" lon="6.02043">
        <ele>1182.4</ele>
        <time>2015-02-19T14:50:13.030Z</time>
      </trkpt>
      <trkpt lat="45.13083" lon="6.02041">
        <ele>1181.8</ele>
        <time>2015-02-19T14:50:15.030Z</time>
      </trkpt>
      <trkpt lat="45.13084" lon="6.02018">
        <ele>1179.3</ele>
        <time>2015-02-19T14:50:31.030Z</time>
      </trkpt>
      <trkpt lat="45.13083" lon="6.02033">
        <ele>1179.7</ele>
        <time>2015-02-19T14:50:41.030Z</time>
      </trkpt>
      <trkpt lat="45.1308" lon="6.02018">
        <ele>1178.8</ele>
        <time>2015-02-19T14:51:35.980Z</time>
      </trkpt>
      <trkpt lat="45.13068" lon="6.02012">
        <ele>1178.3</ele>
        <time>2015-02-19T14:51:40.980Z</time>
      </trkpt>
      <trkpt lat="45.13058" lon="6.02009">
        <ele>1178.1</ele>
        <time>2015-02-19T14:51:42.980Z</time>
      </trkpt>
      <trkpt lat="45.13048" lon="6.02004">
        <ele>1177.6</ele>
        <time>2015-02-19T14:51:45.230Z</time>
      </trkpt>
      <trkpt lat="45.13036" lon="6.02">
        <ele>1177</ele>
        <time>2015-02-19T14:51:47.230Z</time>
      </trkpt>
      <trkpt lat="45.13025" lon="6.01995">
        <ele>1176.4</ele>
        <time>2015-02-19T14:51:49.230Z</time>
      </trkpt>
      <trkpt lat="45.13012" lon="6.01994">
        <ele>1175.8</ele>
        <time>2015-02-19T14:51:51.230Z</time>
      </trkpt>
      <trkpt lat="45.13" lon="6.0199">
        <ele>1175.2</ele>
        <time>2015-02-19T14:51:53.230Z</time>
      </trkpt>
      <trkpt lat="45.12988" lon="6.01985">
        <ele>1174.3</ele>
        <time>2015-02-19T14:51:55.230Z</time>
      </trkpt>
      <trkpt lat="45.12978" lon="6.01976">
        <ele>1173.4</ele>
        <time>2015-02-19T14:51:57.030Z</time>
      </trkpt>
      <trkpt lat="45.12968" lon="6.01969">
        <ele>1172.3</ele>
        <time>2015-02-19T14:51:59.260Z</time>
      </trkpt>
      <trkpt lat="45.12959" lon="6.0196">
        <ele>1171.3</ele>
        <time>2015-02-19T14:52:01.260Z</time>
      </trkpt>
      <trkpt lat="45.12951" lon="6.01952">
        <ele>1170.3</ele>
        <time>2015-02-19T14:52:03.260Z</time>
      </trkpt>
      <trkpt lat="45.1294" lon="6.01941">
        <ele>1169</ele>
        <time>2015-02-19T14:52:06.260Z</time>
      </trkpt>
      <trkpt lat="45.12932" lon="6.0193">
        <ele>1167.9</ele>
        <time>2015-02-19T14:52:09.060Z</time>
      </trkpt>
      <trkpt lat="45.12924" lon="6.01918">
        <ele>1166.7</ele>
        <time>2015-02-19T14:52:12.050Z</time>
      </trkpt>
      <trkpt lat="45.12915" lon="6.01907">
        <ele>1165.5</ele>
        <time>2015-02-19T14:52:15.130Z</time>
      </trkpt>
      <trkpt lat="45.12906" lon="6.01894">
        <ele>1164.3</ele>
        <time>2015-02-19T14:52:18.130Z</time>
      </trkpt>
      <trkpt lat="45.12899" lon="6.01881">
        <ele>1163.1</ele>
        <time>2015-02-19T14:52:21.130Z</time>
      </trkpt>
      <trkpt lat="45.12893" lon="6.01872">
        <ele>1162.2</ele>
        <time>2015-02-19T14:52:23.350Z</time>
      </trkpt>
      <trkpt lat="45.12888" lon="6.01862">
        <ele>1161.6</ele>
        <time>2015-02-19T14:52:25.130Z</time>
      </trkpt>
      <trkpt lat="45.12883" lon="6.01851">
        <ele>1161</ele>
        <time>2015-02-19T14:52:27.130Z</time>
      </trkpt>
      <trkpt lat="45.12877" lon="6.01839">
        <ele>1160.4</ele>
        <time>2015-02-19T14:52:29.130Z</time>
      </trkpt>
      <trkpt lat="45.12871" lon="6.01828">
        <ele>1159.8</ele>
        <time>2015-02-19T14:52:31.130Z</time>
      </trkpt>
      <trkpt lat="45.12865" lon="6.01815">
        <ele>1159.2</ele>
        <time>2015-02-19T14:52:33.130Z</time>
      </trkpt>
      <trkpt lat="45.12858" lon="6.01805">
        <ele>1158</ele>
        <time>2015-02-19T14:52:37.300Z</time>
      </trkpt>
      <trkpt lat="45.12858" lon="6.01807">
        <ele>1156</ele>
        <time>2015-02-19T14:52:45.810Z</time>
      </trkpt>
    </trkseg>
  </trk>
</gpx>